Date StartTime U_cm/s V_cm/s W_cm/s Ustd_cm/s Vstd_cm/s Wstd_cm/s Uvar_(cm/s)^2 Vvar_(cm/s)^2 Wvar_(cm/s)^2 KE_(m/s)^2 TurbulentKE_(m/s)^2 HorizWindSpeed_cm/s FrictionSpeec_cm/s DragCoef SpeedOfSound_m/s SonicTemperature_C Pressure_mb 
09/04/2014  00:00:00     -101.817      136.048      -24.580       69.435       76.712       39.762     4821.240     5884.713     1581.005        2.088        0.614      169.928       41.270        0.059      343.835       20.224      857.855
09/04/2014  00:01:00     -128.088      122.250      -22.971       59.692       60.922       45.226     3563.078     3711.497     2045.401        2.060        0.466      177.064       38.262        0.047      343.851       20.251      857.855
09/04/2014  00:02:00     -134.395      159.208      -17.898       75.409       62.380       47.237     5686.570     3891.225     2231.358        2.777        0.590      208.348       37.871        0.033      343.783       20.134      857.863
09/04/2014  00:03:00     -131.247       90.674      -17.691       59.451       58.455       34.082     3534.375     3416.937     1161.615        1.694        0.406      159.523       29.763        0.035      343.791       20.150      857.862
09/04/2014  00:04:00     -149.208      154.949      -50.630       59.389       53.294       33.913     3526.998     2840.216     1150.079        2.817        0.376      215.109       25.872        0.014      343.836       20.225      857.877
09/04/2014  00:05:00     -121.927      160.828      -15.544       72.730       78.843       40.751     5289.584     6216.290     1660.623        2.707        0.658      201.821       33.346        0.027      343.764       20.101      857.888
09/04/2014  00:06:00     -132.599      219.674      -33.458       62.742      120.127       45.163     3936.501    14430.446     2039.699        4.368        1.020      256.592       51.245        0.040      343.790       20.148      857.913
09/04/2014  00:07:00     -127.426      150.781      -24.208       85.418       79.320       41.140     7296.217     6291.732     1692.477        2.742        0.764      197.414       43.083        0.048      343.817       20.193      857.913
09/04/2014  00:08:00     -178.907      171.996      -41.618       84.808       69.945       48.640     7192.324     4892.313     2365.855        3.888        0.723      248.174       42.276        0.029      343.872       20.285      857.919
09/04/2014  00:09:00     -140.480      197.502      -26.502       63.725       97.172       45.518     4060.929     9442.350     2071.855        3.751        0.779      242.366       39.635        0.027      343.819       20.195      857.921
09/04/2014  00:10:00     -173.102      168.629      -39.629       65.760       81.731       44.408     4324.436     6679.899     1972.051        3.647        0.649      241.661       33.516        0.019      343.861       20.267      857.926
09/04/2014  00:11:00     -109.388      155.200      -25.988       63.861       80.761       43.051     4078.195     6522.350     1853.357        2.459        0.623      189.876       38.144        0.040      343.755       20.088      857.929
09/04/2014  00:12:00     -174.833      146.224      -40.170       68.816       53.766       36.948     4735.668     2890.765     1365.125        3.127        0.450      227.921       41.230        0.033      343.901       20.335      857.931
09/04/2014  00:13:00     -148.346      169.651      -33.878       55.542       78.864       39.665     3084.920     6219.530     1573.343        3.140        0.544      225.362       29.242        0.017      343.853       20.255      857.939
09/04/2014  00:14:00     -147.853      155.856      -18.812       80.785       84.478       47.403     6526.294     7136.490     2247.051        3.120        0.795      214.829       48.464        0.051      343.793       20.152      857.941
09/04/2014  00:15:00     -176.069      193.257      -53.160       54.722       88.194       37.935     2994.516     7778.219     1439.033        4.169        0.611      261.436       38.493        0.022      343.868       20.280      857.943
09/04/2014  00:16:00     -146.096      129.528      -31.853       73.949       64.433       35.508     5468.391     4151.602     1260.791        2.501        0.544      195.247       34.118        0.031      343.810       20.183      857.960
09/04/2014  00:17:00     -178.659      194.198      -48.109       61.290       85.154       36.957     3756.466     7251.130     1365.794        4.216        0.619      263.878       28.685        0.012      343.861       20.266      857.970
09/04/2014  00:18:00     -169.126      175.979      -39.142       50.555       86.606       38.853     2555.803     7500.674     1509.533        3.633        0.578      244.074       39.506        0.026      343.831       20.217      857.980
09/04/2014  00:19:00     -220.090      179.612      -50.863       64.453       74.066       44.819     4154.127     5485.754     2008.766        4.747        0.582      284.078       46.565        0.027      343.845       20.240      857.992
09/04/2014  00:20:00     -152.007      169.968      -33.354       60.542       83.201       31.256     3665.284     6922.383      976.933        3.233        0.578      228.025       16.264        0.005      343.780       20.128      858.005
09/04/2014  00:21:00     -153.589      143.161      -27.069       72.191       91.962       38.564     5211.612     8457.047     1487.192        2.998        0.758      209.963       39.773        0.036      343.757       20.090      858.008
09/04/2014  00:22:00     -179.085      214.881      -37.488       76.093       88.606       48.895     5790.092     7850.955     2390.744        4.784        0.802      279.723       50.550        0.033      343.741       20.064      858.009
09/04/2014  00:23:00     -173.862      218.350      -47.700       56.960       67.564       39.994     3244.430     4564.918     1599.512        4.479        0.470      279.114       30.605        0.012      343.764       20.102      858.008
09/04/2014  00:24:00     -179.688      212.199      -38.466       80.537       65.347       44.350     6486.240     4270.180     1966.882        4.576        0.636      278.058       39.832        0.021      343.741       20.063      858.016
09/04/2014  00:25:00     -144.320      225.561      -33.001       70.546       83.294       40.041     4976.757     6937.875     1603.303        4.315        0.676      267.780       40.033        0.022      343.684       19.966      858.010
09/04/2014  00:26:00     -187.289      168.846      -56.322      127.699      100.745       44.930    16306.923    10149.531     2018.730        4.761        1.424      252.163       58.497        0.054      343.739       20.061      858.004
09/04/2014  00:27:00     -138.816      221.845      -33.277       83.379       91.597       46.507     6952.044     8390.074     2162.876        4.355        0.875      261.697       50.546        0.037      343.695       19.984      858.013
09/04/2014  00:28:00     -152.193      174.691      -35.364       84.908       94.169       44.580     7209.332     8867.734     1987.404        3.649        0.903      231.689       45.484        0.039      343.670       19.942      858.015
09/04/2014  00:29:00     -159.628      175.602      -37.022       87.801       86.947       50.314     7708.974     7559.803     2531.529        3.774        0.890      237.312       51.137        0.046      343.736       20.055      858.018
09/04/2014  00:30:00     -140.517      133.192      -29.934       61.390       63.878       40.746     3768.692     4080.352     1660.273        2.394        0.475      193.611       34.273        0.031      343.660       19.925      858.034
09/04/2014  00:31:00     -187.381      270.998      -46.867       82.892      108.780       51.570     6871.136    11833.037     2659.448        6.605        1.068      329.472       53.900        0.027      343.746       20.072      858.050
09/04/2014  00:32:00     -167.058      253.230      -41.830       67.996       89.069       47.512     4623.406     7933.289     2257.412        5.430        0.741      303.371       37.482        0.015      343.730       20.043      858.055
09/04/2014  00:33:00     -215.072      279.753      -55.009       93.588       89.733       59.498     8758.700     8051.955     3540.020        7.394        1.018      352.871       54.052        0.023      343.747       20.073      858.073
09/04/2014  00:34:00     -121.480      178.341      -22.546       88.007       95.148       54.564     7745.177     9053.224     2977.261        3.342        0.989      215.784       55.304        0.066      343.672       19.947      858.092
09/04/2014  00:35:00     -179.950      225.761      -48.871       72.996       90.230       44.523     5328.354     8141.514     1982.329        5.059        0.773      288.704       39.278        0.019      343.693       19.980      858.101
09/04/2014  00:36:00     -189.899      252.124      -41.362       82.063      105.260       47.753     6734.366    11079.746     2280.362        6.071        1.005      315.639       45.452        0.021      343.656       19.917      858.118
09/04/2014  00:37:00     -203.902      191.418      -50.596       67.340       94.269       49.846     4534.650     8886.721     2484.587        4.834        0.795      279.673       39.391        0.020      343.633       19.877      858.118
09/04/2014  00:38:00      -74.338      118.818      -17.051       60.081       55.900       26.413     3609.739     3124.782      697.641        1.368        0.372      140.156       21.819        0.024      343.556       19.751      858.115
09/04/2014  00:39:00     -201.169      207.230      -40.727      114.805       90.530       63.973    13180.095     8195.734     4092.560        5.526        1.273      288.813       71.513        0.061      343.637       19.885      858.116
09/04/2014  00:40:00     -157.451      188.615      -37.313       75.996       77.528       44.736     5775.357     6010.630     2001.311        3.777        0.689      245.696       43.674        0.032      343.601       19.823      858.125
09/04/2014  00:41:00     -139.106      198.430      -29.429       64.982      102.204       46.454     4222.602    10445.687     2157.994        3.821        0.841      242.332       52.887        0.048      343.554       19.744      858.128
09/04/2014  00:42:00     -123.545      234.838      -41.684       86.288      101.686       49.275     7445.656    10340.129     2427.998        4.618        1.011      265.353       56.005        0.045      343.589       19.802      858.129
09/04/2014  00:43:00     -105.439      249.938      -28.442       89.532      106.231       52.622     8015.925    11285.084     2769.034        4.823        1.104      271.268       55.896        0.042      343.551       19.739      858.142
09/04/2014  00:44:00     -128.246      194.158      -23.775       79.255       85.757       53.137     6281.316     7354.326     2823.501        3.558        0.823      232.689       50.038        0.046      343.609       19.837      858.149
09/04/2014  00:45:00      -92.825      131.472      -26.226       72.434       80.223       53.418     5246.675     6435.695     2853.492        2.056        0.727      160.938       28.356        0.031      343.582       19.794      858.157
09/04/2014  00:46:00     -133.574      124.228      -28.572       63.247       73.728       35.659     4000.221     5435.832     1271.581        2.240        0.535      182.414       33.972        0.035      343.558       19.752      858.161
09/04/2014  00:47:00      -75.544      145.117      -28.741       47.638       73.161       31.761     2269.359     5352.601     1008.785        1.811        0.432      163.603       20.473        0.016      343.554       19.745      858.161
09/04/2014  00:48:00      -95.080      177.531      -24.088       58.167       86.007       44.309     3383.438     7397.136     1963.320        2.694        0.637      201.389       27.767        0.019      343.530       19.704      858.164
09/04/2014  00:49:00     -153.329      227.881      -37.526       86.041       83.506       43.066     7403.066     6973.334     1854.647        4.654        0.812      274.662       40.943        0.022      343.589       19.804      858.190
09/04/2014  00:50:00      -76.433      281.042      -27.124       87.637       97.819       45.154     7680.313     9568.633     2038.890        5.242        0.964      291.250       38.340        0.017      343.584       19.795      858.203
09/04/2014  00:51:00     -163.899      248.005      -49.284      106.049      130.606       60.480    11246.417    17058.036     3657.792        6.137        1.598      297.270       71.397        0.058      343.597       19.818      858.215
09/04/2014  00:52:00     -118.857      129.737      -26.552       60.421       58.118       38.231     3650.658     3377.646     1461.591        2.008        0.424      175.951       24.412        0.019      343.563       19.759      858.236
09/04/2014  00:53:00     -135.158      123.870      -22.464      104.390       85.007       52.288    10897.371     7226.261     2734.078        2.748        1.043      183.334       65.320        0.127      343.536       19.716      858.249
09/04/2014  00:54:00     -137.916      189.868      -39.948       54.840       77.478       35.908     3007.395     6002.874     1289.416        3.348        0.515      234.671       30.439        0.017      343.566       19.763      858.234
09/04/2014  00:55:00     -142.672      192.649      -26.308       57.900       92.198       51.589     3352.420     8500.476     2661.469        3.633        0.726      239.727       33.057        0.019      343.544       19.728      858.226
09/04/2014  00:56:00     -173.554      138.742      -22.130       85.961       64.242       47.287     7389.286     4126.990     2236.049        3.180        0.688      222.194       41.182        0.034      343.520       19.687      858.231
09/04/2014  00:57:00     -148.710      256.096      -38.670       67.433       75.331       50.786     4547.187     5674.727     2579.211        5.100        0.640      296.142       39.382        0.018      343.481       19.618      858.234
09/04/2014  00:58:00     -154.045      153.671      -27.762       61.904      142.562       44.116     3832.118    20323.892     1946.228        3.710        1.305      217.588       53.323        0.060      343.478       19.615      858.217
09/04/2014  00:59:00     -176.113      195.214      -42.482       75.549       92.978       50.163     5707.634     8644.993     2516.283        4.390        0.843      262.915       41.375        0.025      343.426       19.526      858.245
09/04/2014  01:00:00     -161.213      171.788      -38.209       73.129       79.593       42.500     5347.922     6335.060     1806.285        3.522        0.674      235.586       34.356        0.021      343.463       19.589      858.253
09/04/2014  01:01:00      -84.628      196.064      -24.576       63.742      108.746       45.972     4063.082    11825.595     2113.458        3.210        0.900      213.548       36.862        0.030      343.371       19.434      858.263
09/04/2014  01:02:00     -139.263      221.787      -38.138       73.807      107.117       47.258     5447.509    11474.049     2233.326        4.459        0.958      261.885       52.565        0.040      343.381       19.450      858.267
09/04/2014  01:03:00     -208.034      169.914      -35.574       78.237       84.761       42.258     6120.956     7184.394     1785.717        4.425        0.755      268.606       37.654        0.020      343.420       19.514      858.271
09/04/2014  01:04:00     -146.244      125.595      -17.057      110.742       68.980       46.214    12263.742     4758.214     2135.691        2.830        0.958      192.773       53.834        0.078      343.341       19.383      858.273
09/04/2014  01:05:00     -138.370      211.471      -30.053       56.706       79.522       40.490     3215.572     6323.710     1639.451        3.797        0.559      252.718       32.133        0.016      343.356       19.407      858.283
09/04/2014  01:06:00      -92.001      170.209      -29.602       48.440       46.463       30.075     2346.429     2158.819      904.505        2.186        0.270      193.482       25.385        0.017      343.335       19.372      858.292
09/04/2014  01:07:00      -70.865      138.667      -20.917       62.194       71.475       40.633     3868.046     5108.741     1651.036        1.766        0.531      155.725       31.321        0.040      343.269       19.262      858.288
09/04/2014  01:08:00      -98.018      218.069      -22.632       71.524       94.646       53.777     5115.671     8957.914     2891.978        3.732        0.848      239.085       49.195        0.042      343.318       19.340      858.296
09/04/2014  01:09:00      -86.854      113.750      -10.657       72.662       97.836       31.942     5279.796     9571.794     1020.281        1.823        0.794      143.117       23.654        0.027      343.326       19.357      858.301
09/04/2014  01:10:00      -84.617      157.016      -25.620       77.977      108.869       42.565     6080.386    11852.556     1811.768        2.610        0.987      178.365       58.423        0.107      343.307       19.324      858.307
09/04/2014  01:11:00     -125.411      156.709      -21.566       60.993       90.488       49.628     3720.120     8188.021     2462.944        2.756        0.719      200.713       44.910        0.050      343.280       19.277      858.308
09/04/2014  01:12:00     -131.034      192.402      -42.133       64.166       63.921       44.017     4117.267     4085.902     1937.464        3.305        0.507      232.784       34.130        0.021      343.339       19.378      858.309
09/04/2014  01:13:00      -90.665      179.105      -19.977       68.909       89.489       43.982     4748.432     8008.336     1934.391        2.769        0.735      200.745       49.304        0.060      343.250       19.227      858.317
09/04/2014  01:14:00     -129.215      165.840      -24.936       75.993       69.401       44.386     5774.969     4816.496     1970.131        2.869        0.628      210.237       43.126        0.042      343.252       19.230      858.317
09/04/2014  01:15:00      -90.502       86.116       -9.257       49.528       55.213       28.543     2453.017     3048.485      814.699        1.100        0.316      124.926       18.943        0.023      343.213       19.167      858.323
09/04/2014  01:16:00     -139.829      164.665      -36.514       72.405       68.953       33.524     5242.441     4754.502     1123.883        2.956        0.556      216.024       25.722        0.014      343.324       19.352      858.315
09/04/2014  01:17:00     -104.178      168.981      -15.461       69.963       70.485       48.271     4894.784     4968.162     2330.046        2.592        0.610      198.513       43.086        0.047      343.245       19.217      858.322
09/04/2014  01:18:00     -139.833      163.537      -25.981       58.886       78.892       38.293     3467.515     6223.878     1466.337        2.906        0.558      215.169       27.011        0.016      343.266       19.253      858.317
09/04/2014  01:19:00     -162.073      182.165      -31.763       80.944      101.034       52.948     6551.868    10207.918     2803.538        4.001        0.978      243.827       51.985        0.045      343.310       19.330      858.314
09/04/2014  01:20:00      -36.904      189.023       -7.037       72.249       85.252       50.210     5219.924     7267.871     2521.091        2.607        0.750      192.592       47.084        0.060      343.244       19.215      858.307
09/04/2014  01:21:00     -139.463      125.215      -35.353       68.832       86.386       35.269     4737.806     7462.533     1243.902        2.491        0.672      187.427       45.159        0.058      343.272       19.266      858.308
09/04/2014  01:22:00      -89.802      186.352      -21.697       54.754       85.643       36.598     2997.990     7334.663     1339.430        2.746        0.584      206.861       33.016        0.025      343.266       19.254      858.331
09/04/2014  01:23:00      -44.461      106.927      -11.124       59.941       57.261       37.093     3592.960     3278.856     1375.921        1.089        0.412      115.802       31.373        0.073      343.226       19.188      858.334
09/04/2014  01:24:00      -78.219      114.156      -19.557       69.516       67.076       35.415     4832.423     4499.131     1254.236        1.506        0.529      138.383       38.631        0.078      343.230       19.194      858.334
09/04/2014  01:25:00     -101.602      197.284      -26.446       64.042       95.986       45.815     4101.404     9213.283     2099.044        3.268        0.771      221.910       52.858        0.057      343.228       19.189      858.361
09/04/2014  01:26:00      -78.165      199.634      -33.882       59.071       83.428       39.183     3489.396     6960.252     1535.274        2.955        0.599      214.391       37.276        0.030      343.247       19.223      858.392
09/04/2014  01:27:00      -97.481      177.575      -24.517       49.994       86.057       35.457     2499.422     7405.760     1257.207        2.640        0.558      202.572       31.599        0.024      343.173       19.096      858.409
09/04/2014  01:28:00      -52.629      185.743      -11.593       40.225       87.051       37.466     1618.065     7577.870     1403.724        2.400        0.530      193.055       34.894        0.033      343.155       19.065      858.404
09/04/2014  01:29:00      -79.491      154.753      -22.928       53.145       60.355       33.195     2824.346     3642.764     1101.917        1.918        0.378      173.975       19.311        0.012      343.125       19.014      858.393
09/04/2014  01:30:00     -117.116      159.380      -22.482       84.764       89.115       50.698     7184.966     7941.550     2570.272        2.866        0.885      197.783       52.844        0.071      343.126       19.015      858.411
09/04/2014  01:31:00     -162.671      186.167      -38.144       82.276       94.951       52.790     6769.387     9015.638     2786.780        4.057        0.929      247.225       59.758        0.058      343.193       19.129      858.409
09/04/2014  01:32:00     -129.946      188.775      -40.896       58.448       47.116       37.934     3416.145     2219.948     1439.015        3.063        0.354      229.177       36.222        0.025      343.188       19.121      858.404
09/04/2014  01:33:00     -101.809      106.502      -11.410       59.382       70.985       38.673     3526.213     5038.848     1495.636        1.595        0.503      147.336       31.867        0.047      343.164       19.081      858.405
09/04/2014  01:34:00     -131.420      117.268      -24.106       50.631       58.609       40.598     2563.543     3434.965     1648.164        1.962        0.382      176.133       30.422        0.030      343.191       19.127      858.411
09/04/2014  01:35:00     -154.370      220.397      -45.632       76.487       65.441       48.625     5850.251     4282.477     2364.396        4.349        0.625      269.082       43.196        0.026      343.224       19.179      858.416
09/04/2014  01:36:00     -127.717      184.965      -33.814       71.956       63.860       45.527     5177.656     4078.081     2072.680        3.150        0.566      224.775       44.573        0.039      343.165       19.081      858.414
09/04/2014  01:37:00     -143.271      211.432      -33.683       69.477       83.054       45.404     4827.054     6898.035     2061.523        4.007        0.689      255.402       47.179        0.034      343.166       19.082      858.418
09/04/2014  01:38:00     -136.857      167.355      -30.172       72.296       80.847       45.937     5226.694     6536.236     2110.233        3.076        0.694      216.188       31.611        0.021      343.203       19.146      858.432
09/04/2014  01:39:00     -107.130      180.703      -26.210       62.794      121.211       41.741     3943.039    14692.107     1742.329        3.259        1.019      210.072       39.229        0.035      343.227       19.188      858.438
09/04/2014  01:40:00     -167.574      195.940      -38.913       81.615       81.351       53.677     6661.069     6618.020     2881.244        4.207        0.808      257.824       52.291        0.041      343.184       19.115      858.433
09/04/2014  01:41:00     -103.794      188.625      -30.454       88.820      100.053       47.020     7889.019    10010.673     2210.926        3.369        1.006      215.297       56.543        0.069      343.167       19.084      858.437
09/04/2014  01:42:00     -113.188      115.462      -12.696       57.212       55.389       41.529     3273.201     3067.911     1724.625        1.718        0.403      161.688       38.964        0.058      343.115       19.000      858.432
09/04/2014  01:43:00     -122.584      113.912      -19.933       52.081       68.458       32.844     2712.454     4686.541     1078.699        1.844        0.424      167.341       34.229        0.042      343.113       18.996      858.435
09/04/2014  01:44:00     -129.111      130.129      -24.651       65.221       79.762       40.722     4253.802     6361.930     1658.250        2.324        0.614      183.312       44.307        0.058      343.067       18.915      858.441
09/04/2014  01:45:00     -138.928      162.267      -35.396       82.405       71.486       38.684     6790.647     5110.224     1496.418        3.014        0.670      213.616       35.784        0.028      343.135       19.031      858.446
09/04/2014  01:46:00     -137.454      171.360      -31.121       59.585       86.552       38.904     3550.365     7491.203     1513.490        3.089        0.628      219.677       40.228        0.034      343.122       19.010      858.457
09/04/2014  01:47:00     -153.961      175.951      -30.806       75.962       72.751       38.538     5770.283     5292.744     1485.199        3.408        0.627      233.801       40.892        0.031      343.153       19.063      858.465
09/04/2014  01:48:00     -133.234      140.307      -15.415       63.232       73.547       46.157     3998.266     5409.136     2130.490        2.460        0.577      193.488       39.451        0.042      343.135       19.031      858.471
09/04/2014  01:49:00     -119.379      179.603      -27.834       62.321       76.863       41.259     3883.938     5907.920     1702.302        2.939        0.575      215.658       44.214        0.042      343.084       18.943      858.475
09/04/2014  01:50:00     -114.244      141.795      -21.854       46.068       62.917       36.132     2122.221     3958.564     1305.535        2.051        0.369      182.092       31.052        0.029      343.046       18.881      858.479
09/04/2014  01:51:00     -111.308      123.129      -20.821       58.693       67.707       36.917     3444.891     4584.268     1362.857        1.869        0.470      165.983       31.618        0.036      343.087       18.950      858.476
09/04/2014  01:52:00     -118.541      197.515      -24.504       58.698       85.586       40.251     3445.439     7325.005     1620.107        3.303        0.620      230.356       23.309        0.010      343.127       19.018      858.484
09/04/2014  01:53:00     -120.032      104.421      -29.306       24.257       41.148       17.542      588.394     1693.163      307.735        1.438        0.129      159.095        7.899        0.002      343.128       19.021      858.489
09/04/2014  01:54:00      -75.963       82.257      -17.103       26.672       31.819       15.841      711.395     1012.432      250.937        0.740        0.099      111.966       16.049        0.021      343.050       18.889      858.483
09/04/2014  01:55:00      -79.506       26.998      -15.753       40.467       35.034       22.438     1637.545     1227.355      503.452        0.533        0.168       83.965       19.564        0.054      343.008       18.817      858.487
09/04/2014  01:56:00      -83.447      -19.746       -7.078       32.709       24.194       20.984     1069.858      585.336      440.337        0.475        0.105       85.752       17.789        0.043      342.929       18.682      858.500
09/04/2014  01:57:00      -13.271        1.965        4.264       24.277       22.056       17.788      589.377      486.476      316.409        0.079        0.070       13.416       20.488        2.332      342.809       18.478      858.499
09/04/2014  01:58:00       15.548        4.313       17.821       40.972       33.496       20.713     1678.699     1121.989      429.047        0.190        0.161       16.135        9.690        0.361      342.636       18.183      858.497
09/04/2014  01:59:00      -86.207       53.491       -2.166       57.750       48.904       50.279     3335.054     2391.593     2528.005        0.927        0.413      101.454       42.626        0.177      342.944       18.708      858.490
09/04/2014  02:00:00      -86.754       57.783      -21.501       43.597       34.420       27.196     1900.678     1184.720      739.642        0.758        0.191      104.236       25.008        0.058      342.933       18.690      858.474
09/04/2014  02:01:00     -138.929      119.319      -30.510       49.002       62.167       38.940     2401.178     3864.797     1516.287        2.112        0.389      183.135       21.979        0.014      342.959       18.733      858.476
09/04/2014  02:02:00      -96.067       75.295      -25.162       47.697       54.933       26.177     2274.982     3017.655      685.261        1.075        0.299      122.058       24.326        0.040      342.893       18.621      858.483
09/04/2014  02:03:00      -84.399       73.219      -21.342       31.102       50.636       24.429      967.305     2563.954      596.774        0.853        0.206      111.732       25.398        0.052      342.838       18.528      858.490
09/04/2014  02:04:00      -70.396       17.391       -3.589       67.154       47.974       26.663     4509.668     2301.473      710.907        0.639        0.376       72.512       29.396        0.164      342.867       18.578      858.484
09/04/2014  02:05:00      -97.208       69.852      -19.693       43.081       55.363       31.280     1855.998     3065.079      978.447        1.031        0.295      119.702       21.752        0.033      342.955       18.727      858.481
09/04/2014  02:06:00      -42.313       61.231       -4.721       31.717       40.435       19.973     1005.965     1634.981      398.931        0.430        0.152       74.428       12.783        0.029      342.767       18.407      858.489
09/04/2014  02:07:00      -86.540       79.019      -26.680       33.438       39.590       25.781     1118.112     1567.375      664.684        0.890        0.168      117.188       25.823        0.049      342.852       18.552      858.496
09/04/2014  02:08:00      -30.450       15.108       -2.219       21.261       22.502       12.814      452.033      506.359      164.194        0.114        0.056       33.992        8.425        0.061      342.696       18.288      858.503
09/04/2014  02:09:00     -106.686      -38.328      -15.139       50.952       34.809       17.364     2596.079     1211.645      301.512        0.859        0.205      113.362       17.081        0.023      342.756       18.387      858.506
09/04/2014  02:10:00     -100.697       39.549      -19.361       38.218       78.679       19.607     1460.619     6190.366      384.417        1.006        0.402      108.185       26.470        0.060      342.826       18.507      858.514
09/04/2014  02:11:00     -145.647      -11.206      -16.923       29.762       32.533       20.639      885.775     1058.417      425.972        1.200        0.119      146.077       17.566        0.014      342.830       18.516      858.521
09/04/2014  02:12:00      -85.457       -7.765       -9.299       30.902       30.371       18.942      954.934      922.381      358.785        0.484        0.112       85.809       14.450        0.028      342.759       18.394      858.512
09/04/2014  02:13:00      -74.138       41.232       -5.044       20.658       22.437       17.673      426.732      503.404      312.319        0.423        0.062       84.832        9.157        0.012      342.683       18.264      858.503
09/04/2014  02:14:00      -49.171       76.551       -6.373       45.999       53.615       33.549     2115.908     2874.558     1125.554        0.722        0.306       90.983       35.039        0.148      342.692       18.278      858.497
09/04/2014  02:15:00      -31.801       42.121       -1.575       28.443       33.874       21.156      808.990     1147.439      447.588        0.260        0.120       52.778       19.165        0.132      342.551       18.040      858.492
09/04/2014  02:16:00      -95.292       25.157      -11.315       41.925       36.148       23.988     1757.711     1306.664      575.431        0.674        0.182       98.557       27.649        0.079      342.720       18.326      858.491
09/04/2014  02:17:00     -113.022       63.136      -27.694       31.498       29.433       21.645      992.093      866.326      468.523        0.993        0.116      129.461       10.605        0.007      342.827       18.510      858.480
09/04/2014  02:18:00     -134.530       68.575      -24.930       61.391       64.987       38.391     3768.845     4223.294     1473.879        1.644        0.473      150.999       42.368        0.079      342.858       18.561      858.486
09/04/2014  02:19:00     -102.918       58.237      -16.630       54.404       45.110       28.573     2959.831     2034.897      816.405        1.003        0.291      118.252       23.971        0.041      342.716       18.320      858.487
09/04/2014  02:20:00     -125.286      124.116      -23.111       75.391       58.306       46.896     5683.752     3399.589     2199.268        2.146        0.564      176.356       42.898        0.059      342.752       18.380      858.488
09/04/2014  02:21:00      -85.489      148.535      -14.026       54.646       66.673       43.264     2986.188     4445.237     1871.743        1.943        0.465      171.379       37.506        0.048      342.762       18.397      858.497
09/04/2014  02:22:00      -65.758      164.040      -20.947       50.315       78.338       33.322     2531.569     6136.797     1110.373        2.072        0.489      176.729       24.339        0.019      342.759       18.391      858.511
09/04/2014  02:23:00     -122.810      223.027      -32.440       75.386       75.810       45.277     5682.985     5747.204     2049.980        3.968        0.674      254.604       45.901        0.033      342.759       18.391      858.523
09/04/2014  02:24:00      -94.339      125.934      -19.262       45.011       59.771       29.588     2026.014     3572.595      875.437        1.580        0.324      157.350       21.713        0.019      342.701       18.294      858.539
09/04/2014  02:25:00     -127.148      151.676      -33.539       46.594       51.297       34.759     2170.975     2631.363     1208.170        2.315        0.301      197.920       31.657        0.026      342.770       18.410      858.539
09/04/2014  02:26:00     -119.498      134.025      -27.782       35.974       50.463       30.792     1294.105     2546.494      948.128        1.890        0.239      179.562       21.138        0.014      342.694       18.281      858.554
09/04/2014  02:27:00     -130.488      125.847      -33.157       54.299       51.542       29.335     2948.344     2656.583      860.516        2.021        0.323      181.286       27.529        0.023      342.752       18.380      858.563
09/04/2014  02:28:00     -104.854      102.641      -18.011       56.246       37.856       31.190     3163.625     1433.040      972.796        1.371        0.278      146.729       26.240        0.032      342.708       18.305      858.570
09/04/2014  02:29:00     -123.006      172.692      -36.348       50.555       82.192       39.648     2555.820     6755.528     1571.969        2.858        0.544      212.022       35.088        0.027      342.771       18.412      858.569
09/04/2014  02:30:00     -154.910      133.587      -36.631       61.714       55.927       34.604     3808.601     3127.774     1197.451        2.566        0.407      204.555       26.658        0.017      342.742       18.362      858.560
09/04/2014  02:31:00     -112.425      149.055      -26.106       59.256       71.374       45.185     3511.274     5094.279     2041.710        2.309        0.532      186.700       49.045        0.069      342.678       18.252      858.557
09/04/2014  02:32:00     -111.392      112.515      -15.748       52.123       74.402       34.242     2716.844     5535.719     1172.486        1.737        0.471      158.328       26.881        0.029      342.693       18.281      858.564
09/04/2014  02:33:00     -110.643      137.061      -14.622       66.463      101.959       40.049     4417.397    10395.614     1603.938        2.383        0.821      176.147       39.542        0.050      342.660       18.222      858.566
09/04/2014  02:34:00     -116.949      128.942      -22.787       72.013       74.399       40.005     5185.858     5535.184     1600.362        2.157        0.616      174.078       46.402        0.071      342.657       18.219      858.567
09/04/2014  02:35:00      -87.614      154.503      -30.734       46.117       58.728       37.142     2126.761     3448.935     1379.540        1.972        0.348      177.616       25.086        0.020      342.704       18.297      858.559
09/04/2014  02:36:00     -106.283      145.920      -22.113       51.332       62.758       39.488     2634.981     3938.591     1559.313        2.060        0.407      180.523       35.854        0.039      342.572       18.074      858.582
09/04/2014  02:37:00     -128.804      158.615      -25.725       53.992      100.479       43.005     2915.157    10096.084     1849.447        2.863        0.743      204.327       37.712        0.034      342.682       18.260      858.580
09/04/2014  02:38:00     -133.933      136.073      -27.751       37.656       51.185       36.634     1417.991     2619.856     1342.018        2.130        0.269      190.929       24.754        0.017      342.662       18.227      858.580
09/04/2014  02:39:00     -149.312      146.721      -38.605       53.427       54.766       28.307     2854.493     2999.260      801.306        2.598        0.333      209.335       29.626        0.020      342.609       18.137      858.585
09/04/2014  02:40:00     -118.366      155.696      -20.852       63.033       91.594       37.765     3973.184     8389.440     1426.232        2.623        0.689      195.581       34.186        0.031      342.645       18.198      858.593
09/04/2014  02:41:00      -93.717       84.304      -17.285       37.314       43.915       28.009     1392.360     1928.505      784.518        1.015        0.205      126.055       27.102        0.046      342.621       18.159      858.601
09/04/2014  02:42:00     -110.790      132.689      -27.936       51.964       48.212       31.834     2700.228     2324.406     1013.385        1.835        0.302      172.861       29.770        0.030      342.581       18.089      858.603
09/04/2014  02:43:00     -116.319      180.687      -28.143       53.149       77.739       37.383     2824.815     6043.300     1397.477        2.862        0.513      214.890       32.128        0.022      342.599       18.118      858.610
09/04/2014  02:44:00     -132.832      167.587      -33.489       45.409       58.550       34.164     2061.945     3428.138     1167.199        2.675        0.333      213.846       30.803        0.021      342.633       18.176      858.623
09/04/2014  02:45:00      -99.892      118.290      -13.631       67.512       46.301       30.303     4557.890     2143.756      918.283        1.589        0.381      154.826       28.857        0.035      342.600       18.121      858.641
09/04/2014  02:46:00     -106.418      113.171      -27.237       55.990       43.920       28.569     3134.916     1928.987      816.208        1.538        0.294      155.346       25.308        0.027      342.579       18.086      858.649
09/04/2014  02:47:00     -105.178      102.650      -25.657       44.706       37.253       22.233     1998.640     1387.785      494.287        1.307        0.194      146.968       19.729        0.018      342.566       18.064      858.656
09/04/2014  02:48:00     -124.360      127.364      -23.774       52.900       54.008       35.216     2798.381     2916.814     1240.164        1.960        0.348      178.008       31.834        0.032      342.544       18.027      858.662
09/04/2014  02:49:00     -110.802      115.134      -20.665       60.877       65.382       34.299     3705.998     4274.828     1176.415        1.756        0.458      159.790       36.630        0.053      342.514       17.976      858.663
09/04/2014  02:50:00     -163.845      132.464      -37.749       59.352       48.739       34.409     3522.608     2375.457     1183.956        2.645        0.354      210.694       31.824        0.023      342.536       18.012      858.655
09/04/2014  02:51:00      -93.671       84.988       -5.078       51.738       49.897       40.334     2676.824     2489.698     1626.797        1.141        0.340      126.480       32.280        0.065      342.399       17.780      858.647
09/04/2014  02:52:00     -139.527      165.566      -30.304       72.539       56.434       38.471     5261.838     3184.791     1480.023        2.886        0.496      216.517       40.216        0.035      342.452       17.868      858.655
09/04/2014  02:53:00      -99.298      186.384      -35.873       50.886       62.723       31.429     2589.408     3934.165      987.797        2.670        0.376      211.185       25.701        0.015      342.503       17.955      858.654
09/04/2014  02:54:00      -82.818      161.223      -21.309       48.002       67.639       29.495     2304.222     4575.060      869.984        2.053        0.387      181.250       22.910        0.016      342.403       17.787      858.658
09/04/2014  02:55:00     -117.370      232.715      -36.387       49.567       72.397       34.720     2456.884     5241.314     1205.477        3.908        0.445      260.638       27.891        0.011      342.429       17.829      858.658
09/04/2014  02:56:00     -125.745      205.319      -34.413       44.428       46.510       35.268     1973.863     2163.164     1243.812        3.227        0.269      240.765       27.400        0.013      342.435       17.838      858.678
09/04/2014  02:57:00      -93.613      220.391      -26.808       60.572       71.120       34.425     3669.001     5058.005     1185.058        3.398        0.496      239.449       33.766        0.020      342.408       17.794      858.681
09/04/2014  02:58:00      -95.888      144.883      -19.574       55.940       77.717       39.328     3129.314     6039.978     1546.675        2.064        0.536      173.740       42.445        0.060      342.355       17.705      858.680
09/04/2014  02:59:00     -136.550      194.644      -37.187       73.479       92.681       43.576     5399.185     8589.836     1898.846        3.690        0.794      237.765       38.881        0.027      342.480       17.917      858.682
09/04/2014  03:00:00      -90.704      206.739      -27.031       70.865       79.627       39.872     5021.804     6340.511     1589.789        3.232        0.648      225.761       43.955        0.038      342.440       17.848      858.701
09/04/2014  03:01:00     -127.276      191.371      -28.900       56.178       70.099       32.303     3155.977     4913.834     1043.463        3.138        0.456      229.831       24.331        0.011      342.446       17.857      858.710
09/04/2014  03:02:00      -96.100      184.882      -26.689       59.898       69.275       29.813     3587.765     4799.041      888.817        2.670        0.464      208.366       31.387        0.023      342.382       17.749      858.702
09/04/2014  03:03:00     -101.558      136.091      -26.443       55.071       45.000       34.088     3032.842     2024.983     1161.975        1.788        0.311      169.808       30.939        0.033      342.322       17.649      858.710
09/04/2014  03:04:00      -64.532      103.929      -11.784       43.030       41.451       27.112     1851.577     1718.210      735.075        0.970        0.215      122.334       24.958        0.042      342.262       17.548      858.727
09/04/2014  03:05:00      -53.726      103.864      -14.782       41.557       48.356       26.165     1726.959     2338.269      684.628        0.932        0.237      116.937       28.501        0.059      342.294       17.602      858.715
09/04/2014  03:06:00      -75.208       93.949      -18.727       49.553       60.767       29.019     2455.527     3692.626      842.118        1.091        0.350      120.344       29.093        0.058      342.336       17.674      858.717
09/04/2014  03:07:00      -48.638      188.983      -22.484       56.220       80.265       45.679     3160.735     6442.437     2086.532        2.514        0.584      195.141       39.509        0.041      342.392       17.766      858.722
09/04/2014  03:08:00      -36.518      104.313      -17.832       42.545       46.298       22.971     1810.053     2143.479      527.644        0.851        0.224      110.520       18.112        0.027      342.332       17.668      858.726
09/04/2014  03:09:00      -73.554      207.914      -27.613       60.001       69.155       33.814     3600.076     4782.426     1143.404        2.946        0.476      220.541       19.931        0.008      342.390       17.763      858.719
09/04/2014  03:10:00      -62.698      151.800      -19.585       57.888       40.193       32.504     3351.077     1615.480     1056.540        1.669        0.301      164.238       26.411        0.026      342.326       17.656      858.724
09/04/2014  03:11:00      -88.932      175.839      -27.062       53.104       60.899       42.357     2820.029     3708.678     1794.092        2.394        0.416      197.049       44.546        0.051      342.282       17.579      858.729
09/04/2014  03:12:00      -83.157      189.425      -25.148       46.907       49.930       32.406     2200.304     2492.987     1050.158        2.459        0.287      206.874       22.977        0.012      342.305       17.619      858.741
09/04/2014  03:13:00     -133.429      162.208      -37.802       69.130       70.059       32.692     4778.991     4908.269     1068.787        2.815        0.538      210.035       32.249        0.024      342.328       17.659      858.743
09/04/2014  03:14:00     -101.543       91.666      -18.030       72.019       53.455       29.073     5186.729     2857.449      845.263        1.396        0.444      136.798       27.098        0.039      342.281       17.580      858.736
09/04/2014  03:15:00     -126.059       66.254      -22.808       42.868       56.667       33.291     1837.707     3211.170     1108.261        1.348        0.308      142.410       28.458        0.040      342.248       17.524      858.740
09/04/2014  03:16:00     -158.419      129.116      -32.715       54.196       58.954       34.794     2937.164     3475.580     1210.629        2.523        0.381      204.372       29.830        0.021      342.291       17.594      858.745
09/04/2014  03:17:00     -120.718      146.917      -28.970       65.560       71.289       41.976     4298.079     5082.114     1762.008        2.407        0.557      190.151       47.616        0.063      342.293       17.599      858.757
09/04/2014  03:18:00      -89.376      198.375      -23.068       71.598      122.904       44.845     5126.333    15105.334     2011.079        3.505        1.112      217.580       55.686        0.066      342.399       17.779      858.762
09/04/2014  03:19:00      -69.814      105.889      -15.134       59.120       89.547       39.672     3495.157     8018.601     1573.834        1.470        0.654      126.832       38.791        0.094      342.319       17.644      858.767
09/04/2014  03:20:00      -69.769       74.459      -11.610       40.703       43.420       37.564     1656.756     1885.268     1411.017        0.775        0.248      102.039       31.413        0.095      342.194       17.431      858.775
09/04/2014  03:21:00     -114.100       98.869      -26.606       48.088       55.583       31.298     2312.468     3089.480      979.564        1.494        0.319      150.977       26.056        0.030      342.146       17.352      858.797
09/04/2014  03:22:00      -84.694       76.158      -15.587       46.992       56.810       30.089     2208.254     3227.355      905.360        0.978        0.317      113.899       33.738        0.088      342.161       17.377      858.809
09/04/2014  03:23:00      -87.464       96.939      -21.104       48.217       57.646       31.549     2324.890     3323.034      995.321        1.207        0.332      130.565       35.702        0.075      342.103       17.278      858.806
09/04/2014  03:24:00      -40.369       33.179       -3.206       45.399       29.026       26.470     2061.087      842.498      700.672        0.317        0.180       52.255       27.595        0.279      342.048       17.184      858.825
09/04/2014  03:25:00       -1.546       40.362        4.665       21.081       40.226       18.750      444.419     1618.133      351.572        0.203        0.121       40.392       24.105        0.356      341.955       17.028      858.838
09/04/2014  03:26:00      -11.726       17.966        3.129       28.920       16.053       14.904      836.357      257.704      222.140        0.089        0.066       21.454       10.703        0.249      341.897       16.929      858.845
09/04/2014  03:27:00       28.639        3.608       11.413       27.660       22.826       19.854      765.086      521.030      394.173        0.132        0.084       28.866       15.628        0.293      341.236       15.809      858.843
09/04/2014  03:28:00       12.167       16.023       32.107       31.990       20.253       17.030     1023.368      410.190      290.033        0.158        0.086       20.119        8.089        0.162      340.955       15.333      858.837
09/04/2014  03:29:00        1.660        1.634       13.975       15.171       13.454       15.161      230.159      180.998      229.867        0.042        0.032        2.329        9.469       16.534      341.110       15.594      858.839
09/04/2014  03:30:00       32.000        8.159       16.093       25.945       16.933       23.236      673.124      286.736      539.889        0.142        0.075       33.023        9.749        0.087      341.008       15.423      858.838
09/04/2014  03:31:00       82.130       36.416       17.267       42.103       39.510       24.117     1772.658     1561.031      581.620        0.614        0.196       89.841       15.905        0.031      341.163       15.684      858.835
09/04/2014  03:32:00      -52.558      132.416      -29.533       33.526       63.856       38.916     1124.004     4077.584     1514.493        1.394        0.336      142.466       31.922        0.050      341.799       16.762      858.840
09/04/2014  03:33:00      -37.503       72.433        1.715       39.798       56.253       21.790     1583.882     3164.365      474.783        0.594        0.261       81.567       19.373        0.056      341.690       16.577      858.843
09/04/2014  03:34:00      -54.262       12.581      -11.540       24.686       15.243       10.508      609.384      232.361      110.414        0.209        0.048       55.701        8.290        0.022      341.766       16.705      858.846
09/04/2014  03:35:00      -62.531       28.349      -10.269       26.817       42.374       21.971      719.147     1795.514      482.738        0.391        0.150       68.657       17.655        0.066      341.668       16.541      858.862
09/04/2014  03:36:00      -68.107       10.838      -14.187       40.211       27.606       20.396     1616.931      762.093      415.991        0.388        0.140       68.964       17.587        0.065      341.951       17.021      858.857
09/04/2014  03:37:00      -76.313       10.126       -8.317       39.884       40.869       24.463     1590.699     1670.266      598.457        0.493        0.193       76.982       19.590        0.065      341.900       16.934      858.839
09/04/2014  03:38:00      -82.917       55.353       -9.252       35.100       67.883       29.424     1232.029     4608.124      865.774        0.836        0.335       99.696       17.801        0.032      341.839       16.831      858.832
09/04/2014  03:39:00      -39.212       21.767        0.688       38.291       38.391       25.442     1466.164     1473.839      647.311        0.280        0.179       44.849       18.408        0.168      341.718       16.626      858.835
09/04/2014  03:40:00      -51.392       37.421        6.060       35.459       31.624       25.983     1257.355     1000.079      675.124        0.350        0.147       63.572       11.090        0.030      341.783       16.737      858.818
09/04/2014  03:41:00      -32.451       73.166       -0.799       47.724       61.612       30.061     2277.568     3796.066      903.652        0.669        0.349       80.040       26.664        0.111      341.748       16.676      858.815
09/04/2014  03:42:00      -27.542       99.530        5.990       64.959       75.368       42.320     4219.649     5680.370     1791.010        1.119        0.585      103.271       42.006        0.165      341.696       16.587      858.818
09/04/2014  03:43:00      -55.144       98.610       -6.618       39.545       56.188       27.130     1563.832     3157.100      736.031        0.913        0.273      112.981       22.597        0.040      341.753       16.684      858.817
09/04/2014  03:44:00      -20.287       -5.743       11.743       20.542       40.260       20.314      421.970     1620.897      412.675        0.152        0.123       21.084       15.064        0.510      341.735       16.655      858.818
09/04/2014  03:45:00      -30.431       28.810        3.147       54.248       39.739       24.212     2942.865     1579.188      586.238        0.344        0.255       41.905       25.262        0.363      341.722       16.633      858.812
09/04/2014  03:46:00      -73.717       62.264        0.440       47.270       36.776       25.223     2234.447     1352.472      636.183        0.677        0.211       96.493       22.943        0.057      341.774       16.721      858.818
09/04/2014  03:47:00      -42.651       28.231        5.821       33.468       41.641       21.832     1120.102     1733.970      476.628        0.299        0.167       51.147       19.460        0.145      341.746       16.672      858.825
09/04/2014  03:48:00       22.252      -14.816       11.604       18.929       28.339       16.688      358.296      803.088      278.473        0.114        0.072       26.733       16.122        0.364      341.290       15.900      858.814
09/04/2014  03:49:00       38.195      -87.239      -16.749       27.836       29.711       23.822      774.843      882.737      567.497        0.579        0.111       95.234       14.927        0.025      341.702       16.598      858.809
09/04/2014  03:50:00       25.396        9.654       13.708       34.441       31.086       31.048     1186.152      966.322      963.975        0.202        0.156       27.169       21.463        0.624      341.065       15.519      858.792
09/04/2014  03:51:00       -0.693      -10.000       12.044       31.202       36.803       31.742      973.580     1354.441     1007.577        0.179        0.167       10.024       26.209        6.836      340.731       14.955      858.801
09/04/2014  03:52:00        5.982      -48.754       10.760       29.682       53.875       31.304      881.034     2902.502      979.966        0.365        0.238       49.120       18.605        0.143      341.190       15.732      858.775
09/04/2014  03:53:00      -26.951       -8.156      -14.016       42.617       87.875       28.400     1816.183     7722.028      806.550        0.566        0.517       28.158       14.893        0.280      341.429       16.134      858.769
09/04/2014  03:54:00      -21.557       -4.105      -14.617       47.064       36.046       32.193     2215.066     1299.312     1036.401        0.262        0.228       21.944       28.299        1.663      341.322       15.954      858.781
09/04/2014  03:55:00      -16.900      -50.309       -5.302       31.949       48.013       11.985     1020.759     2305.221      143.644        0.316        0.173       53.072        8.901        0.028      341.329       15.968      858.789
09/04/2014  03:56:00      -11.096      -32.613        4.406       36.945       27.545       17.902     1364.911      758.752      320.484        0.182        0.122       34.449       17.038        0.245      341.395       16.078      858.783
09/04/2014  03:57:00      -59.347      -23.986        2.888       54.885       32.974       22.325     3012.355     1087.253      498.387        0.435        0.230       64.010       11.743        0.034      341.393       16.074      858.777
09/04/2014  03:58:00      -55.935      -62.291        1.172       42.138       43.816       28.071     1775.609     1919.870      787.979        0.575        0.224       83.719       26.305        0.099      341.503       16.261      858.780
09/04/2014  03:59:00      -18.758       -7.072       15.524       22.963       34.835       18.298      527.298     1213.458      334.829        0.136        0.104       20.047       15.541        0.601      341.309       15.933      858.789
09/04/2014  04:00:00       18.987      -13.346        1.231       19.789       22.856       15.398      391.608      522.397      237.103        0.085        0.058       23.208       13.511        0.339      341.106       15.589      858.789
09/04/2014  04:01:00      -32.269        8.349        5.190       40.808       14.388       13.662     1665.282      207.028      186.658        0.160        0.103       33.332       17.919        0.289      340.841       15.141      858.792
09/04/2014  04:02:00      -54.644        2.817        5.354       21.836       16.659       12.578      476.832      277.528      158.201        0.197        0.046       54.717       11.225        0.042      341.298       15.914      858.789
09/04/2014  04:03:00      -58.232      -13.793        7.245       35.714       28.241       18.755     1275.504      797.543      351.745        0.303        0.121       59.843       17.452        0.085      341.299       15.916      858.797
09/04/2014  04:04:00      -34.448      -40.914       10.072       44.178       37.199       21.844     1951.730     1383.745      477.158        0.339        0.191       53.485       25.445        0.226      341.268       15.862      858.791
09/04/2014  04:05:00       -7.260       22.407       27.698       15.386       16.670       15.861      236.742      277.880      251.568        0.104        0.038       23.554       11.848        0.253      340.630       14.784      858.773
09/04/2014  04:06:00        0.191       22.196       16.016       30.189       24.428       21.888      911.361      596.733      479.092        0.137        0.099       22.197       15.883        0.512      340.949       15.322      858.779
09/04/2014  04:07:00      -21.180       19.351        6.515       22.090       15.972       19.413      487.984      255.098      376.848        0.099        0.056       28.689       16.968        0.350      340.862       15.176      858.787
09/04/2014  04:08:00      -38.338       -5.106      -16.706       14.573       29.057       13.952      212.378      844.293      194.666        0.151        0.063       38.677       14.855        0.148      341.571       16.375      858.788
09/04/2014  04:09:00      -38.643       14.105       10.497       32.712       22.555       13.792     1070.102      508.742      190.216        0.179        0.088       41.137       11.980        0.085      341.300       15.917      858.773
09/04/2014  04:10:00       24.547      -25.750        7.637       19.282       19.678       12.896      371.776      387.229      166.300        0.112        0.046       35.576        8.848        0.062      340.775       15.028      858.769
09/04/2014  04:11:00        7.799       -1.158        1.931        8.321       14.681        8.873       69.243      215.525       78.725        0.021        0.018        7.885        6.869        0.759      340.931       15.292      858.784
09/04/2014  04:12:00        9.431        1.972       12.046       16.103       18.764       12.145      259.320      352.072      147.494        0.050        0.038        9.635        8.179        0.721      340.776       15.032      858.784
09/04/2014  04:13:00        2.475       11.946       15.060       12.631       23.465       11.717      159.552      550.614      137.279        0.061        0.042       12.199        7.234        0.352      340.524       14.603      858.781
09/04/2014  04:14:00       12.004        7.533       10.039       22.774       43.037       18.897      518.678     1852.212      357.110        0.151        0.136       14.172       15.580        1.209      340.786       15.048      858.795
09/04/2014  04:15:00      -21.188       62.519       -2.842       40.490       64.215       30.804     1639.418     4123.599      948.875        0.554        0.336       66.012       41.868        0.402      341.348       16.000      858.785
09/04/2014  04:16:00       26.896        3.699       -1.962       28.973       28.702       25.847      839.439      823.791      668.050        0.154        0.117       27.149       15.574        0.329      340.730       14.951      858.772
09/04/2014  04:17:00      -28.993        5.140        2.660       42.564       37.226       27.619     1811.700     1385.758      762.835        0.242        0.198       29.445       18.801        0.408      341.383       16.057      858.781
09/04/2014  04:18:00        0.712        1.231        1.151       34.157       26.937       18.543     1166.734      725.605      343.834        0.112        0.112        1.422        6.564       21.306      341.061       15.512      858.780
09/04/2014  04:19:00       11.441       -3.717       29.791       44.663       41.405       34.958     1994.763     1714.369     1222.041        0.298        0.247       12.030       32.689        7.383      340.850       15.155      858.780
09/04/2014  04:20:00        1.953        4.350      -15.738       20.665       30.979       24.692      427.054      959.699      609.698        0.113        0.100        4.769       16.844       12.478      340.654       14.824      858.784
09/04/2014  04:21:00       -8.294      -34.857      -16.930       20.227       33.406       14.058      409.121     1115.928      197.626        0.165        0.086       35.831       13.471        0.141      341.051       15.496      858.800
09/04/2014  04:22:00        1.205      -52.091      -11.805       13.610       19.780       14.531      185.243      391.251      211.157        0.182        0.039       52.105        7.754        0.022      341.051       15.495      858.805
09/04/2014  04:23:00       51.410      -78.196      -18.009       40.036       38.595       23.683     1602.881     1489.573      560.900        0.637        0.183       93.582       23.142        0.061      340.807       15.084      858.791
09/04/2014  04:24:00       36.592      -86.313      -13.909       49.685       31.713       28.925     2468.590     1005.725      836.644        0.665        0.216       93.749       20.021        0.046      340.751       14.989      858.794
09/04/2014  04:25:00        1.583      -26.841        3.066       14.676       17.458       17.502      215.377      304.793      306.316        0.078        0.041       26.888       12.026        0.200      340.748       14.983      858.803
09/04/2014  04:26:00       -0.731      -10.708       18.409       14.357       22.125       18.211      206.129      489.518      331.634        0.074        0.051       10.733       15.125        1.986      340.482       14.533      858.807
09/04/2014  04:27:00       -8.697       -7.855       18.718       16.651       22.320       18.112      277.262      498.174      328.059        0.080        0.055       11.719       13.632        1.353      340.270       14.175      858.819
09/04/2014  04:28:00       13.330      -28.437       -0.134       28.398       21.596       22.620      806.451      466.398      511.647        0.139        0.089       31.406       17.529        0.312      340.221       14.090      858.818
09/04/2014  04:29:00       26.065      -42.776        0.011       19.810       31.218       26.134      392.437      974.590      682.989        0.228        0.103       50.092       15.907        0.101      340.301       14.226      858.816
09/04/2014  04:30:00      -24.284      -43.030       -4.972       30.807       22.767       20.559      949.054      518.325      422.654        0.218        0.095       49.409       13.340        0.073      340.823       15.110      858.805
09/04/2014  04:31:00      -64.382      -46.047       -2.191       34.727       29.330       18.401     1205.962      860.251      338.605        0.434        0.120       79.154       18.539        0.055      340.847       15.150      858.812
09/04/2014  04:32:00     -106.980      -32.105       -5.981       42.540       25.295       22.349     1809.622      639.822      499.496        0.773        0.147      111.694       22.136        0.039      340.643       14.805      858.802
09/04/2014  04:33:00      -74.570      -51.416       -0.090       61.237       37.089       25.659     3749.927     1375.592      658.394        0.699        0.289       90.578       16.615        0.034      340.470       14.514      858.796
09/04/2014  04:34:00      -25.387      -41.743        2.498       42.387       28.800       22.799     1796.629      829.425      519.815        0.277        0.157       48.857       17.746        0.132      340.425       14.436      858.791
09/04/2014  04:35:00      -49.931      -44.161        2.610       42.847       34.353       20.781     1835.881     1180.127      431.855        0.395        0.172       66.658       22.917        0.118      340.330       14.277      858.790
09/04/2014  04:36:00      -59.700      -48.646       -2.411       27.396       21.846       17.316      750.530      477.230      299.842        0.373        0.076       77.010       10.009        0.017      340.473       14.517      858.783
09/04/2014  04:37:00      -44.294      -63.084        2.921       25.776       23.111       24.786      664.382      534.135      614.353        0.388        0.091       77.082       19.634        0.065      340.469       14.511      858.798
09/04/2014  04:38:00      -67.746      -53.217       -9.529       19.075       25.759       10.411      363.859      663.533      108.379        0.432        0.057       86.149        6.665        0.006      340.502       14.567      858.809
09/04/2014  04:39:00      -54.544      -41.733       -5.616       29.999       25.772       12.462      899.936      664.175      155.301        0.323        0.086       68.679       10.966        0.025      340.479       14.526      858.808
09/04/2014  04:40:00      -35.866      -20.242        3.579       29.054       17.172       13.949      844.155      294.876      194.567        0.152        0.067       41.184       16.293        0.157      340.401       14.397      858.811
09/04/2014  04:41:00      -29.865      -30.432        1.835       22.474       13.642       10.975      505.061      186.097      120.455        0.132        0.041       42.639       10.400        0.059      340.418       14.425      858.813
09/04/2014  04:42:00      -24.841       -0.378        7.927       35.502       15.712       12.250     1260.390      246.881      150.060        0.117        0.083       24.844       17.088        0.473      340.152       13.975      858.809
09/04/2014  04:43:00      -67.480      -19.027       -4.288       10.156       16.833        7.855      103.138      283.353       61.707        0.269        0.022       70.111        6.587        0.009      340.509       14.577      858.816
09/04/2014  04:44:00      -37.096      -10.865       -1.534       19.220       19.422        6.519      369.425      377.226       42.492        0.114        0.039       38.654        8.184        0.045      340.391       14.378      858.813
09/04/2014  04:45:00      -31.003      -12.225        1.241       17.493       22.551       11.445      306.006      508.553      130.993        0.103        0.047       33.326       10.634        0.102      340.448       14.476      858.808
09/04/2014  04:46:00      -66.927      -22.476       -8.612       17.584       14.438        9.551      309.211      208.455       91.221        0.283        0.030       70.600        5.943        0.007      340.573       14.687      858.796
09/04/2014  04:47:00      -72.471      -18.864      -14.431       16.918       12.790       11.632      286.220      163.587      135.309        0.320        0.029       74.886        9.174        0.015      340.576       14.692      858.793
09/04/2014  04:48:00      -65.598      -37.163       -8.468       21.954       17.852       16.212      481.980      318.687      262.828        0.341        0.053       75.394       11.460        0.023      340.451       14.480      858.792
09/04/2014  04:49:00      -93.722      -22.672       -5.719       24.732       26.981       15.658      611.661      727.987      245.179        0.546        0.079       96.425       10.099        0.011      340.329       14.275      858.785
09/04/2014  04:50:00      -70.890        3.345       -5.906       24.130       16.717       12.534      582.241      279.461      157.104        0.304        0.051       70.969       10.211        0.021      340.275       14.183      858.791
09/04/2014  04:51:00      -75.750      -23.938       -5.171       18.806       11.298       11.795      353.676      127.646      139.125        0.348        0.031       79.443        9.776        0.015      340.458       14.493      858.791
09/04/2014  04:52:00      -60.417      -36.857       -2.894       12.387       14.017        7.711      153.446      196.466       59.465        0.271        0.020       70.772        6.175        0.008      340.444       14.468      858.788
09/04/2014  04:53:00      -39.431      -29.225        4.858       29.324       20.944       10.096      859.888      438.652      101.924        0.192        0.070       49.080       12.824        0.068      340.383       14.365      858.783
09/04/2014  04:54:00       17.123      -21.824       -3.253       20.998       21.974       16.277      440.935      482.864      264.954        0.098        0.059       27.739        7.433        0.072      339.970       13.669      858.792
09/04/2014  04:55:00       -7.344      -13.317      -14.546       16.878       19.725       15.442      284.862      389.080      238.446        0.068        0.046       15.207       12.998        0.730      340.137       13.949      858.791
09/04/2014  04:56:00       -5.439        7.802        4.055        8.919        9.243        6.842       79.553       85.438       46.815        0.016        0.011        9.511        5.615        0.349      340.221       14.092      858.785
09/04/2014  04:57:00      -32.360       -6.518        1.114       16.808       13.295        9.682      282.513      176.756       93.748        0.082        0.028       33.010       11.095        0.113      340.363       14.332      858.790
09/04/2014  04:58:00      -14.161      -10.511       -3.905       32.079       17.616       11.372     1029.049      310.324      129.323        0.090        0.073       17.636       11.376        0.416      340.301       14.227      858.793
09/04/2014  04:59:00        0.439       -9.749        8.051       37.541       12.400       14.693     1409.334      153.771      215.875        0.097        0.089        9.759       12.410        1.617      340.078       13.851      858.784
09/04/2014  05:00:00      -32.574      -27.700        2.653       14.787       16.027        6.309      218.654      256.875       39.797        0.118        0.026       42.760        4.887        0.013      340.191       14.040      858.778
09/04/2014  05:01:00      -47.458      -29.837        0.957       13.429       10.545        8.371      180.346      111.192       70.066        0.175        0.018       56.058        8.649        0.024      340.276       14.184      858.800
09/04/2014  05:02:00        7.089      -34.885       12.010       41.119       19.834       17.075     1690.811      393.406      291.559        0.189        0.119       35.598       21.952        0.380      339.979       13.685      858.805
09/04/2014  05:03:00       48.857      -16.530        8.059       27.332       16.374       19.602      747.019      268.101      384.253        0.206        0.070       51.578        5.308        0.011      339.573       12.999      858.816
09/04/2014  05:04:00        1.496      -12.221        2.443       24.849       13.119       10.821      617.457      172.108      117.095        0.053        0.045       12.312       10.112        0.675      339.972       13.671      858.821
09/04/2014  05:05:00      -39.837      -27.249      -12.710        9.744        9.457        9.211       94.955       89.432       84.841        0.138        0.013       48.265        5.410        0.013      340.420       14.429      858.813
09/04/2014  05:06:00      -42.388      -37.141      -11.655       13.375       12.178       12.532      178.891      148.314      157.059        0.190        0.024       56.358        9.843        0.031      340.635       14.791      858.812
09/04/2014  05:07:00       -8.479       -5.911        5.129       15.990       14.410       12.421      255.679      207.643      154.282        0.038        0.031       10.336        8.407        0.661      340.261       14.160      858.835
09/04/2014  05:08:00       13.792      -27.573        2.239       21.620       17.066       14.057      467.410      291.249      197.598        0.096        0.048       30.830        6.267        0.041      339.927       13.595      858.852
09/04/2014  05:09:00      -20.960      -38.942        5.563       23.924       16.821       11.644      572.365      282.960      135.572        0.149        0.050       44.224       13.013        0.087      340.147       13.966      858.865
09/04/2014  05:10:00       -3.852      -28.171        8.399       14.126       19.274        9.832      199.532      371.498       96.659        0.077        0.033       28.433       10.725        0.142      340.534       14.622      858.866
09/04/2014  05:11:00      -29.753      -20.881       -2.533       17.204       10.269        8.562      295.989      105.457       73.302        0.090        0.024       36.350        5.449        0.022      340.198       14.053      858.864
09/04/2014  05:12:00       -0.830      -33.309       -4.449       15.006       10.511       10.220      225.169      110.487      104.443        0.078        0.022       33.320        2.931        0.008      340.127       13.933      858.865
09/04/2014  05:13:00      -50.631      -39.170        0.334       34.086       13.963       11.800     1161.873      194.967      139.231        0.280        0.075       64.014        8.380        0.017      340.177       14.015      858.856
09/04/2014  05:14:00      -23.799      -24.020        4.786       49.273       23.673       18.986     2427.874      560.409      360.479        0.226        0.167       33.813       13.658        0.163      340.050       13.803      858.866
09/04/2014  05:15:00      -19.177      -28.279        0.817       31.205       17.079       19.033      973.741      291.680      362.244        0.140        0.081       34.168       16.376        0.230      340.024       13.759      858.888
09/04/2014  05:16:00      -32.643      -47.448        3.317       34.014       35.516       19.626     1156.951     1261.396      385.182        0.307        0.140       57.592       22.572        0.154      340.091       13.872      858.892
09/04/2014  05:17:00      -40.075      -61.493       -1.276       37.063       40.932       17.207     1373.698     1675.462      296.082        0.437        0.167       73.399        7.678        0.011      340.047       13.799      858.897
09/04/2014  05:18:00      -77.585      -52.629      -10.533       30.788       43.195       23.717      947.881     1865.813      562.516        0.614        0.169       93.751       14.566        0.024      339.943       13.623      858.901
09/04/2014  05:19:00     -114.330      -43.573      -16.315       23.779       30.387       20.052      565.458      923.394      402.068        0.856        0.095      122.352        8.760        0.005      339.977       13.681      858.899
09/04/2014  05:20:00     -127.053      -71.179      -16.077       30.188       22.655       16.422      911.333      513.230      269.684        1.158        0.085      145.633        9.252        0.004      339.992       13.704      858.896
09/04/2014  05:21:00     -129.222      -83.875      -10.794       31.228       26.156       23.099      975.210      684.124      533.542        1.302        0.110      154.057       16.312        0.011      339.836       13.442      858.886
09/04/2014  05:22:00     -113.534      -29.019      -19.687       18.890       15.831       11.161      356.816      250.616      124.567        0.743        0.037      117.184        8.848        0.006      339.836       13.444      858.885
09/04/2014  05:23:00      -83.223      -18.937      -11.061       16.028       10.765       11.602      256.891      115.894      134.613        0.396        0.025       85.350        8.551        0.010      339.951       13.636      858.885
09/04/2014  05:24:00     -101.716      -21.961      -12.047       18.775       18.000       14.079      352.519      324.003      198.224        0.592        0.044      104.060        9.313        0.008      339.978       13.683      858.875
09/04/2014  05:25:00     -118.125      -25.346       -8.550       21.511       21.688       14.462      462.712      470.353      209.157        0.791        0.057      120.814        9.923        0.007      339.912       13.571      858.871
09/04/2014  05:26:00      -89.374      -38.805      -11.125       38.768       19.412       15.739     1502.922      376.835      247.706        0.587        0.106       97.435       17.443        0.032      339.884       13.523      858.883
09/04/2014  05:27:00      -22.694      -18.350        5.754       30.462       19.593       13.177      927.927      383.875      173.624        0.118        0.074       29.185       11.510        0.156      339.759       13.314      858.896
09/04/2014  05:28:00       12.689      -29.679       -6.320       14.380       12.425       16.328      206.776      154.391      266.600        0.085        0.031       32.277        7.979        0.061      339.945       13.627      858.903
09/04/2014  05:29:00       17.014      -15.383        8.765       13.674       13.173       11.402      186.981      173.520      130.006        0.055        0.025       22.937        7.696        0.113      339.630       13.095      858.914
09/04/2014  05:30:00        8.705       -4.346       19.228       14.561       11.530       14.030      212.032      132.950      196.832        0.050        0.027        9.730        8.435        0.752      339.553       12.966      858.931
09/04/2014  05:31:00      -28.671       -8.409        0.551       18.406       11.006       11.099      338.769      121.141      123.192        0.074        0.029       29.879        8.626        0.083      339.780       13.350      858.939
09/04/2014  05:32:00      -32.735      -10.400        0.373       11.281       12.867        7.539      127.250      165.551       56.835        0.076        0.017       34.347        1.093        0.001      339.969       13.668      858.942
09/04/2014  05:33:00      -46.395      -16.946       -4.307        8.467       10.037        6.373       71.693      100.746       40.613        0.134        0.011       49.393        4.328        0.008      339.960       13.653      858.949
09/04/2014  05:34:00      -66.538      -25.235       -3.739       12.454       11.119       10.396      155.107      123.637      108.068        0.273        0.019       71.163        7.935        0.012      339.867       13.495      858.963
09/04/2014  05:35:00      -41.690      -25.118      -13.733       10.472       13.098       10.854      109.652      171.546      117.814        0.148        0.020       48.672        7.226        0.022      339.967       13.665      858.962
09/04/2014  05:36:00      -34.552      -28.564       -7.724       12.273        8.747       11.174      150.635       76.508      124.848        0.121        0.018       44.831        7.175        0.026      340.142       13.958      858.962
09/04/2014  05:37:00      -76.278      -26.657       -4.255       21.294       11.039       10.070      453.428      121.867      101.408        0.361        0.034       80.801        6.771        0.007      339.987       13.696      858.967
09/04/2014  05:38:00      -86.352      -35.561      -16.777       11.727       12.537        9.031      137.527      157.175       81.562        0.469        0.019       93.388        3.452        0.001      339.888       13.530      858.972
09/04/2014  05:39:00     -102.702      -31.290      -24.774       12.918       10.886       10.026      166.868      118.515      100.522        0.626        0.019      107.363        7.857        0.005      339.878       13.513      858.975
09/04/2014  05:40:00     -101.567      -19.230       -9.141       21.349       14.058       13.761      455.769      197.617      189.371        0.581        0.042      103.371       12.040        0.014      339.776       13.341      858.990
09/04/2014  05:41:00      -71.146      -34.618       -5.564       14.257        9.746        7.776      203.254       94.977       60.469        0.332        0.018       79.121        4.378        0.003      339.761       13.317      859.008
09/04/2014  05:42:00      -62.191      -16.456       -8.037       17.800       15.528       10.230      316.841      241.109      104.654        0.243        0.033       64.331       10.002        0.024      339.807       13.392      859.023
09/04/2014  05:43:00      -71.540      -27.527       -5.016       19.136       15.050       11.813      366.195      226.514      139.540        0.332        0.037       76.654       10.658        0.019      339.808       13.394      859.019
09/04/2014  05:44:00      -94.796      -33.763      -20.971       12.697       10.729        8.173      161.221      115.118       66.805        0.545        0.017      100.629        1.995        0.000      339.759       13.310      859.008
09/04/2014  05:45:00     -103.389      -23.631      -14.887       11.787       10.335        8.658      138.933      106.813       74.953        0.589        0.016      106.055        3.533        0.001      339.789       13.363      858.992
09/04/2014  05:46:00      -89.907      -24.195      -11.872        7.759        7.230        8.435       60.199       52.273       71.143        0.450        0.009       93.106        2.959        0.001      339.729       13.263      858.996
09/04/2014  05:47:00      -85.354      -28.125      -10.403       14.411       13.348        7.327      207.677      178.161       53.687        0.431        0.022       89.869        4.481        0.002      339.671       13.162      859.007
09/04/2014  05:48:00      -88.181      -31.022      -10.634        9.254       10.045        7.188       85.639      100.893       51.670        0.454        0.012       93.479        3.636        0.002      339.755       13.306      859.012
09/04/2014  05:49:00      -65.084      -40.646       -3.366       18.190       11.483       10.696      330.879      131.848      114.396        0.324        0.029       76.734        6.846        0.008      339.765       13.324      859.012
09/04/2014  05:50:00      -66.741      -35.352      -10.713       11.756        9.582        8.365      138.199       91.821       69.977        0.306        0.015       75.526        3.153        0.002      339.841       13.451      859.005
09/04/2014  05:51:00      -59.724      -26.583       -9.833        8.688        7.395        7.374       75.474       54.682       54.376        0.228        0.009       65.373        5.749        0.008      339.833       13.436      859.007
09/04/2014  05:52:00      -72.188      -22.356      -11.660        7.487        8.489        7.507       56.048       72.065       56.348        0.302        0.009       75.570        1.415        0.000      339.723       13.254      858.993
09/04/2014  05:53:00      -85.713      -31.038       -9.964       12.752       10.864        9.842      162.610      118.030       96.865        0.439        0.019       91.160        4.017        0.002      339.632       13.099      858.990
09/04/2014  05:54:00      -87.559      -36.954      -15.994       13.232        8.851        7.413      175.089       78.347       54.950        0.480        0.015       95.037        3.301        0.001      339.554       12.967      858.992
09/04/2014  05:55:00      -75.008      -49.890       -9.307       13.574       12.200        9.649      184.250      148.851       93.101        0.431        0.021       90.084        6.601        0.005      339.567       12.989      859.005
09/04/2014  05:56:00      -98.664      -39.734      -13.639       10.807       11.674        7.690      116.796      136.282       59.131        0.591        0.016      106.365        5.252        0.002      339.635       13.103      859.008
09/04/2014  05:57:00      -55.889      -47.900       -3.524       24.951       23.572       19.404      622.576      555.619      376.513        0.349        0.078       73.607       16.288        0.049      339.591       13.029      859.001
09/04/2014  05:58:00      -69.057      -32.852       -7.278       35.673       30.826       16.750     1272.597      950.266      280.550        0.420        0.125       76.473       17.050        0.050      339.625       13.087      858.990
09/04/2014  05:59:00       11.168      -11.643       -7.753       18.649       13.234       13.884      347.789      175.145      192.759        0.052        0.036       16.133        7.066        0.192      340.015       13.745      858.992
09/04/2014  06:00:00       -4.994      -20.845       -8.447       18.560       26.734       13.954      344.492      714.708      194.709        0.089        0.063       21.435       10.941        0.261      339.896       13.543      858.993
09/04/2014  06:01:00      -42.322      -45.506       -3.998       36.122       23.138       17.688     1304.826      535.363      312.859        0.302        0.108       62.145        5.060        0.007      339.732       13.267      858.993
09/04/2014  06:02:00      -43.702      -36.682       -3.780       31.066       18.180       19.243      965.115      330.521      370.284        0.247        0.083       57.056       16.183        0.080      339.609       13.061      858.997
09/04/2014  06:03:00      -13.796      -27.804        5.322       29.722       18.388       21.271      883.373      338.129      452.468        0.133        0.084       31.038       16.162        0.271      339.522       12.913      858.998
09/04/2014  06:04:00      -80.374      -47.133       -8.125       23.632       15.950       14.784      558.475      254.410      218.575        0.489        0.052       93.175       14.083        0.023      339.470       12.824      859.005
09/04/2014  06:05:00      -79.053      -58.303      -11.729       14.858       16.945       11.995      220.751      287.139      143.869        0.522        0.033       98.227        7.563        0.006      339.488       12.855      859.021
09/04/2014  06:06:00     -106.535      -48.201       -7.639       20.774       15.719       15.962      431.554      247.084      254.772        0.733        0.047      116.932       10.437        0.008      339.571       12.996      859.021
09/04/2014  06:07:00      -86.552      -41.122       -7.163       32.072       20.338       15.768     1028.596      413.647      248.622        0.546        0.085       95.824       16.325        0.029      339.583       13.016      859.028
09/04/2014  06:08:00      -72.872      -47.222       -2.191       20.975       14.529       10.974      439.956      211.102      120.440        0.416        0.039       86.835        9.085        0.011      339.632       13.098      859.025
09/04/2014  06:09:00      -68.566      -34.653      -11.325       38.113       20.556       15.325     1452.609      422.554      234.848        0.407        0.106       76.825       11.994        0.024      339.685       13.188      859.038
09/04/2014  06:10:00      -40.191      -16.298       -9.804       26.200       31.514       17.836      686.421      993.117      318.134        0.199        0.100       43.370       13.317        0.094      339.663       13.151      859.046
09/04/2014  06:11:00      -48.118      -23.035      -15.477       31.944       27.036       16.240     1020.421      730.938      263.747        0.255        0.101       53.347       10.121        0.036      339.545       12.951      859.054
09/04/2014  06:12:00      -69.181      -42.651       -7.406       33.044       22.391       15.681     1091.915      501.340      245.883        0.425        0.092       81.272       14.459        0.032      339.475       12.835      859.066
09/04/2014  06:13:00      -37.425      -29.182        0.759       28.962       26.547       20.061      838.810      704.737      402.430        0.210        0.097       47.458       14.190        0.089      339.491       12.862      859.079
09/04/2014  06:14:00      -89.064      -42.965       -9.602       25.490       20.133       17.187      649.736      405.344      295.380        0.561        0.068       98.885       12.860        0.017      339.535       12.934      859.082
09/04/2014  06:15:00     -101.241      -42.871      -12.893       22.672       21.707       14.019      514.005      471.199      196.539        0.672        0.059      109.944       12.253        0.012      339.517       12.905      859.090
09/04/2014  06:16:00      -98.282      -30.083      -14.180       28.609       22.872       15.766      818.488      523.143      248.555        0.618        0.080      102.783       14.499        0.020      339.585       13.019      859.091
09/04/2014  06:17:00     -103.260      -35.605       -8.793       20.845       17.027       14.911      434.500      289.921      222.338        0.648        0.047      109.226       13.150        0.014      339.368       12.652      859.093
09/04/2014  06:18:00     -105.279      -42.610      -11.591       17.039       14.298        8.428      290.330      204.432       71.026        0.680        0.028      113.575        3.248        0.001      339.407       12.718      859.098
09/04/2014  06:19:00      -96.567      -41.546      -11.639       22.062       15.753       16.975      486.736      248.168      288.147        0.610        0.051      105.124       13.477        0.016      339.559       12.975      859.121
09/04/2014  06:20:00      -48.941       -7.954      -10.533       34.643       26.621       18.510     1200.144      708.660      342.635        0.241        0.113       49.583       10.706        0.047      339.656       13.139      859.141
09/04/2014  06:21:00      -33.625       -2.845       -4.269       43.292       27.874       20.052     1874.202      776.956      402.076        0.210        0.153       33.745       22.603        0.449      339.763       13.319      859.140
09/04/2014  06:22:00      -13.589       -1.846      -10.776       29.026       28.344       19.059      842.501      803.401      363.260        0.116        0.100       13.714        9.611        0.491      339.891       13.534      859.140
09/04/2014  06:23:00      -34.695      -14.580      -10.883       45.619       22.667       18.390     2081.081      513.796      338.185        0.223        0.147       37.634       14.310        0.145      339.637       13.106      859.153
09/04/2014  06:24:00      -55.104      -24.264       -4.915       36.318       36.207       15.454     1318.968     1310.919      238.833        0.326        0.143       60.209       14.527        0.058      339.650       13.128      859.165
09/04/2014  06:25:00      -87.027      -57.145       -2.480       15.114       24.109       15.066      228.444      581.228      226.999        0.594        0.052      104.112        4.988        0.002      339.532       12.929      859.182
09/04/2014  06:26:00      -80.604      -56.461      -12.762       23.759       25.768       14.707      564.485      664.015      216.287        0.565        0.072       98.412        3.586        0.001      339.468       12.821      859.200
09/04/2014  06:27:00      -61.775      -49.427       -6.138       35.826       21.363       17.841     1283.523      456.387      318.315        0.418        0.103       79.115       12.724        0.026      339.481       12.844      859.212
09/04/2014  06:28:00      -25.156      -34.403        2.910       23.514       19.241       16.001      552.931      370.197      256.033        0.150        0.059       42.619       14.329        0.113      339.491       12.860      859.217
09/04/2014  06:29:00      -60.384      -33.354       -2.279       24.989       23.801       16.760      624.461      566.484      280.911        0.312        0.074       68.984        9.647        0.020      339.709       13.228      859.218
09/04/2014  06:30:00      -54.151      -33.101       -7.659       30.378       22.472       11.558      922.839      504.969      133.592        0.282        0.078       63.467        8.026        0.016      339.732       13.268      859.222
09/04/2014  06:31:00      -24.355      -16.951       -5.587       24.834       25.278       14.656      616.723      638.965      214.793        0.119        0.074       29.673        9.025        0.093      339.687       13.191      859.222
09/04/2014  06:32:00      -20.019      -10.062       -2.450       25.212       22.252       18.730      635.646      495.146      350.798        0.099        0.074       22.405       10.854        0.235      339.822       13.419      859.230
09/04/2014  06:33:00      -21.647      -21.914       -8.994       24.314       16.123       14.199      591.162      259.957      201.610        0.104        0.053       30.803        7.018        0.052      339.721       13.248      859.243
09/04/2014  06:34:00      -24.885      -19.702      -11.810       23.021       13.247       11.199      529.948      175.493      125.415        0.099        0.042       31.740        5.838        0.034      340.001       13.721      859.249
09/04/2014  06:35:00      -63.483      -36.217       -1.522       20.173       20.131       16.888      406.957      405.268      285.193        0.322        0.055       73.087       13.710        0.035      339.669       13.162      859.255
09/04/2014  06:36:00      -62.596      -22.161       -6.265       26.540       26.448       15.688      704.373      699.522      246.115        0.305        0.083       66.403        8.894        0.018      339.655       13.137      859.266
09/04/2014  06:37:00      -72.105      -40.274       -1.805       19.504       21.387       12.132      380.408      457.418      147.173        0.390        0.049       82.590       11.865        0.021      339.614       13.069      859.274
09/04/2014  06:38:00      -61.128      -53.642        1.329       21.198       19.381       15.928      449.358      375.635      253.711        0.385        0.054       81.327       10.841        0.018      339.673       13.167      859.289
09/04/2014  06:39:00      -55.934      -45.859        7.687       27.570       14.780       15.003      760.105      218.442      225.090        0.325        0.060       72.331       16.073        0.049      339.559       12.975      859.300
09/04/2014  06:40:00      -66.535      -48.317       -5.490       14.403       11.584       13.119      207.452      134.182      172.105        0.365        0.026       82.228        4.564        0.003      339.625       13.086      859.308
09/04/2014  06:41:00      -26.636      -36.535       -2.211       25.785       19.106       19.015      664.889      365.029      361.575        0.172        0.070       45.214       14.751        0.106      339.505       12.885      859.312
09/04/2014  06:42:00      -52.486      -40.949       -2.468       37.164       21.000       19.040     1381.195      441.017      362.539        0.331        0.109       66.570       24.509        0.136      339.444       12.780      859.314
09/04/2014  06:43:00      -87.862      -58.677      -15.132        8.134        7.156        8.980       66.155       51.205       80.642        0.579        0.010      105.654        4.318        0.002      339.399       12.704      859.325
09/04/2014  06:44:00      -47.376      -43.588       -0.530       28.481       16.798       14.485      811.191      282.173      209.824        0.272        0.065       64.377       18.012        0.078      339.384       12.680      859.341
09/04/2014  06:45:00      -55.692      -44.849       -5.736       12.092        9.065        7.657      146.220       82.166       58.628        0.272        0.014       71.506        4.974        0.005      339.413       12.731      859.351
09/04/2014  06:46:00      -70.864      -38.982       -4.295        9.681       10.130        7.861       93.729      102.625       61.796        0.341        0.013       80.879        3.535        0.002      339.442       12.779      859.372
09/04/2014  06:47:00      -80.875      -48.020       -1.681       18.210       13.404       12.848      331.618      179.669      165.080        0.476        0.034       94.057        5.502        0.003      339.319       12.571      859.374
09/04/2014  06:48:00      -61.461      -44.163       -3.624       23.836       20.088       16.693      568.154      403.525      278.671        0.350        0.063       75.683        8.310        0.012      339.294       12.529      859.377
09/04/2014  06:49:00      -98.063      -60.290       -4.022       36.194       20.516       20.376     1310.009      420.911      415.181        0.771        0.107      115.114       13.475        0.014      339.164       12.308      859.387
09/04/2014  06:50:00      -58.671      -62.669       -3.910       31.713       28.699       16.372     1005.693      823.643      268.030        0.474        0.105       85.847       11.043        0.017      339.189       12.352      859.396
09/04/2014  06:51:00      -56.765      -84.371       -8.368       28.485       36.092       24.301      811.410     1302.635      590.551        0.656        0.135      101.689       12.861        0.016      339.227       12.416      859.410
09/04/2014  06:52:00      -66.983      -69.333        3.814       52.560       42.587       26.419     2762.570     1813.691      697.970        0.729        0.264       96.405       30.343        0.099      339.130       12.252      859.413
09/04/2014  06:53:00      -99.678      -83.664       -1.604       43.576       43.883       19.862     1898.877     1925.731      394.511        1.058        0.211      130.136       18.783        0.021      339.069       12.149      859.426
09/04/2014  06:54:00      -84.061      -51.488       -0.671       49.473       39.746       20.656     2447.569     1579.730      426.685        0.708        0.223       98.576       22.781        0.053      339.071       12.153      859.421
09/04/2014  06:55:00     -103.001      -71.564       -0.259       45.343       26.415       22.317     2055.982      697.740      498.064        0.949        0.163      125.422       27.357        0.048      339.096       12.197      859.439
09/04/2014  06:56:00      -92.313      -61.585        1.936       34.927       22.729       17.049     1219.924      516.603      290.659        0.717        0.101      110.970       16.542        0.022      339.130       12.251      859.445
09/04/2014  06:57:00      -97.423      -50.037       -4.776       34.965       21.504       17.853     1222.542      462.440      318.744        0.701        0.100      109.522       13.756        0.016      339.159       12.301      859.449
09/04/2014  06:58:00      -73.973      -49.943        0.875       31.499       21.141       20.978      992.217      446.934      440.076        0.492        0.094       89.254       17.203        0.037      339.079       12.168      859.445
09/04/2014  06:59:00      -91.508      -82.183       -3.218       35.271       24.074       18.715     1244.017      579.561      350.265        0.866        0.109      122.995       16.754        0.019      339.075       12.160      859.452
09/04/2014  07:00:00      -91.967      -67.684       -2.442       27.876       28.406       18.046      777.078      806.908      325.646        0.748        0.095      114.188       11.417        0.010      339.010       12.050      859.456
09/04/2014  07:01:00      -84.008      -61.026       -6.460       23.262       17.270       12.355      541.116      298.237      152.648        0.591        0.050      103.834        8.368        0.006      339.108       12.215      859.468
09/04/2014  07:02:00      -78.630      -42.325       -4.877       37.502       17.785       12.853     1406.399      316.291      165.201        0.494        0.094       89.298        3.146        0.001      339.169       12.319      859.475
09/04/2014  07:03:00      -96.836      -38.879       -4.465       17.937       18.518       13.232      321.751      342.929      175.095        0.587        0.042      104.349        8.409        0.006      339.085       12.175      859.478
09/04/2014  07:04:00      -65.817      -37.272       -0.213       19.736       16.621       13.472      389.518      276.244      181.489        0.328        0.042       75.638       10.530        0.019      339.139       12.267      859.488
09/04/2014  07:05:00      -55.554      -34.064       -8.076       23.839       17.536       12.969      568.306      307.527      168.196        0.268        0.052       65.166        8.532        0.017      339.159       12.300      859.498
09/04/2014  07:06:00      -48.557      -36.348       -6.251       26.213       15.013       13.801      687.105      225.404      190.457        0.241        0.055       60.654        6.488        0.011      339.225       12.413      859.501
09/04/2014  07:07:00      -68.991      -39.485       -5.394       21.873       10.115       17.034      478.413      102.318      290.146        0.361        0.044       79.491       12.081        0.023      339.223       12.408      859.515
09/04/2014  07:08:00      -53.340      -44.958       -4.427       27.765       20.381       15.679      770.878      415.372      245.822        0.316        0.072       69.759       11.775        0.028      339.233       12.427      859.532
09/04/2014  07:09:00      -32.574      -25.965       -4.759       26.940       17.086       13.816      725.778      291.937      190.879        0.148        0.060       41.657       10.395        0.062      339.287       12.515      859.530
09/04/2014  07:10:00      -64.037      -41.386       -6.177       17.288       15.477        9.897      298.871      239.529       97.950        0.324        0.032       76.247        6.381        0.007      339.215       12.397      859.537
09/04/2014  07:11:00      -39.906      -32.875        5.591       20.613       12.019       17.929      424.911      144.460      321.438        0.180        0.045       51.704       13.487        0.068      339.249       12.453      859.545
09/04/2014  07:12:00      -43.927      -37.570       -3.963       17.803       12.251        9.388      316.954      150.094       88.143        0.196        0.028       57.802        5.875        0.010      339.267       12.482      859.547
09/04/2014  07:13:00      -50.787      -29.164      -11.143       13.369       12.392        9.838      178.733      153.557       96.785        0.199        0.021       58.565        8.343        0.020      339.340       12.606      859.560
09/04/2014  07:14:00      -54.401      -31.555       -7.605        9.069       12.813        6.513       82.248      164.180       42.419        0.215        0.014       62.890        2.813        0.002      339.400       12.709      859.560
09/04/2014  07:15:00      -15.033      -20.446        3.087       21.217       19.718       15.201      450.144      388.801      231.085        0.086        0.054       25.378       12.160        0.230      339.570       12.993      859.563
09/04/2014  07:16:00      -22.946      -38.005        3.287       25.655       17.398       15.866      658.176      302.696      251.737        0.160        0.061       44.394        9.218        0.043      339.521       12.911      859.558
09/04/2014  07:17:00      -37.804      -27.347       -3.584       17.764       12.591        9.471      315.555      158.534       89.709        0.138        0.028       46.659        7.576        0.026      339.609       13.061      859.569
09/04/2014  07:18:00      -17.624      -20.763       -5.238       10.306       11.366        8.229      106.219      129.184       67.711        0.054        0.015       27.235        6.337        0.054      339.679       13.177      859.571
09/04/2014  07:19:00       24.563      -31.791       -2.915       26.233       24.171       22.489      688.186      584.229      505.756        0.170        0.089       40.175       15.085        0.141      339.437       12.769      859.580
09/04/2014  07:20:00        4.694      -29.321        2.247       23.975       30.268       25.476      574.822      916.159      649.013        0.151        0.107       29.695       19.240        0.420      339.551       12.961      859.568
09/04/2014  07:21:00       61.815      -20.502        4.117       34.183       23.943       26.962     1168.492      573.266      726.967        0.336        0.123       65.126       22.143        0.116      339.212       12.391      859.578
09/04/2014  07:22:00       -6.736      -28.045       13.691       22.056       20.007       21.358      486.451      400.267      456.151        0.118        0.067       28.843       11.490        0.159      339.464       12.815      859.581
09/04/2014  07:23:00       -4.550      -14.116       17.415       14.722       17.008       12.464      216.742      289.276      155.341        0.059        0.033       14.831        9.888        0.445      339.657       13.141      859.596
09/04/2014  07:24:00      -35.692      -15.101       -3.631       15.567       11.053        7.358      242.326      122.159       54.141        0.097        0.021       38.755        3.656        0.009      339.724       13.255      859.602
09/04/2014  07:25:00      -31.901      -15.787       -1.056       12.311       12.731        8.528      151.564      162.084       72.734        0.083        0.019       35.594        5.503        0.024      339.683       13.185      859.615
09/04/2014  07:26:00      -17.257      -11.260        1.207       19.277       12.508       12.167      371.618      156.439      148.034        0.055        0.034       20.606       11.533        0.313      339.798       13.377      859.628
09/04/2014  07:27:00      -31.128       -9.321       -2.247       11.081        7.401        9.368      122.796       54.777       87.763        0.066        0.013       32.493        4.741        0.021      339.684       13.187      859.639
09/04/2014  07:28:00      -38.927       -6.940        1.524       11.238        9.199        7.045      126.289       84.629       49.637        0.091        0.013       39.541        4.329        0.012      339.710       13.231      859.653
09/04/2014  07:29:00       -7.512      -13.212       10.974       14.319       13.143        8.938      205.042      172.743       79.893        0.040        0.023       15.198        4.778        0.099      339.865       13.491      859.659
09/04/2014  07:30:00       -5.471      -10.111       -1.322        8.028        8.789       10.235       64.453       77.255      104.757        0.019        0.012       11.496        7.696        0.448      339.941       13.620      859.662
09/04/2014  07:31:00        9.443       -5.331       -0.792        9.086       11.041       13.693       82.557      121.910      187.511        0.026        0.020       10.844        8.294        0.585      339.940       13.618      859.679
09/04/2014  07:32:00        8.267      -13.153       -7.349       25.953       13.433       12.642      673.569      180.444      159.829        0.065        0.051       15.535        8.316        0.287      339.820       13.415      859.686
09/04/2014  07:33:00       14.282        2.208       -2.205       12.564       10.533       12.820      157.864      110.954      164.363        0.032        0.022       14.451        6.077        0.177      339.868       13.498      859.702
09/04/2014  07:34:00        3.213       -4.820       -2.372       12.084       12.437       11.483      146.018      154.673      131.852        0.024        0.022        5.793        8.130        1.970      340.035       13.778      859.718
09/04/2014  07:35:00        9.472       -0.559        1.224        6.918        4.771       10.263       47.862       22.758      105.334        0.013        0.009        9.488        3.085        0.106      340.207       14.069      859.732
09/04/2014  07:36:00       21.819        2.909        4.985       15.804       12.694       11.338      249.775      161.136      128.548        0.052        0.027       22.012        3.884        0.031      340.086       13.864      859.747
09/04/2014  07:37:00       32.380       -5.099        7.592       16.282       19.808       17.282      265.108      392.367      298.671        0.104        0.048       32.779        9.307        0.081      339.894       13.540      859.754
09/04/2014  07:38:00       43.713       -3.401        9.219       23.655       18.432       16.778      559.556      339.746      281.496        0.159        0.059       43.846       14.330        0.107      339.968       13.666      859.771
09/04/2014  07:39:00       24.571       14.938       11.044       13.600        9.486       12.563      184.963       89.981      157.819        0.069        0.022       28.755        8.347        0.084      340.267       14.169      859.786
09/04/2014  07:40:00       33.056       21.672       12.361       24.616       14.967       12.055      605.936      224.003      145.332        0.135        0.049       39.527        9.203        0.054      340.287       14.204      859.800
09/04/2014  07:41:00       52.003       46.868        7.503       19.060       16.831       18.070      363.303      283.275      326.530        0.296        0.049       70.007       10.180        0.021      340.326       14.270      859.809
09/04/2014  07:42:00       55.672       44.478       16.468       17.113       14.689       14.157      292.854      215.767      200.431        0.303        0.035       71.257        5.809        0.007      340.274       14.181      859.807
09/04/2014  07:43:00       71.694       35.291       12.844       27.263       18.905       20.441      743.288      357.402      417.849        0.403        0.076       79.909       18.032        0.051      340.339       14.291      859.816
09/04/2014  07:44:00       63.134       52.274       15.674       23.425       21.995       20.978      548.740      483.776      440.083        0.422        0.074       81.966       13.464        0.027      340.375       14.353      859.825
09/04/2014  07:45:00       62.924       30.092       19.373       42.211       32.156       28.867     1781.778     1034.034      833.288        0.444        0.182       69.749       22.919        0.108      340.455       14.487      859.833
09/04/2014  07:46:00       78.070       41.590       12.070       30.130       22.369       26.392      907.804      500.363      696.525        0.504        0.105       88.457       19.848        0.050      340.521       14.598      859.834
09/04/2014  07:47:00       67.311       49.602        5.762       33.386       27.830       24.285     1114.599      774.517      589.740        0.475        0.124       83.613       18.307        0.048      340.472       14.517      859.840
09/04/2014  07:48:00       56.076       50.104       -0.408       35.843       35.690       30.425     1284.711     1273.775      925.665        0.457        0.174       75.199       18.373        0.060      340.397       14.389      859.825
09/04/2014  07:49:00       82.681       62.242        6.705       40.931       29.583       31.066     1675.343      875.148      965.100        0.713        0.176      103.490       18.057        0.030      340.304       14.230      859.816
09/04/2014  07:50:00       58.959       13.371        5.000       49.439       25.202       28.028     2444.176      635.142      785.592        0.377        0.193       60.456       23.175        0.147      340.447       14.475      859.814
09/04/2014  07:51:00       63.657       62.006        7.652       31.834       35.249       23.453     1013.399     1242.503      550.048        0.538        0.140       88.865       19.060        0.046      340.455       14.487      859.806
09/04/2014  07:52:00       54.303       42.047        7.361       24.815       20.224       22.479      615.780      409.010      505.299        0.315        0.077       68.679       10.466        0.023      340.472       14.515      859.811
09/04/2014  07:53:00       53.566       47.807       14.161       27.655       22.552       26.646      764.815      508.614      710.029        0.367        0.099       71.797       15.794        0.048      340.440       14.463      859.808
09/04/2014  07:54:00       50.472       44.038        3.133       30.849       23.483       22.274      951.681      551.457      496.151        0.325        0.100       66.983       14.638        0.048      340.478       14.525      859.813
09/04/2014  07:55:00       56.449       38.506        5.516       36.002       23.767       19.663     1296.120      564.885      386.652        0.347        0.112       68.332       12.880        0.036      340.543       14.636      859.815
09/04/2014  07:56:00       75.986       67.131       13.208       30.895       21.199       21.469      954.520      449.379      460.935        0.616        0.093      101.393       18.046        0.032      340.486       14.539      859.822
09/04/2014  07:57:00       49.208       60.684       10.195       39.504       31.627       28.153     1560.556     1000.275      792.590        0.478        0.168       78.128       20.395        0.068      340.575       14.689      859.817
09/04/2014  07:58:00       58.079       43.373        4.999       35.260       16.151       23.334     1243.260      260.853      544.481        0.366        0.102       72.488       12.550        0.030      340.558       14.661      859.820
09/04/2014  07:59:00       32.724       25.461       21.978       36.529       21.925       28.937     1334.378      480.724      837.341        0.243        0.133       41.463       22.232        0.288      340.926       15.284      859.842
09/04/2014  08:00:00       21.719       18.342       25.027       32.138       32.386       21.994     1032.878     1048.831      483.753        0.200        0.128       28.428        8.578        0.091      341.029       15.459      859.856
09/04/2014  08:01:00       16.725       -1.211       16.936       25.282       39.780       25.290      639.195     1582.416      639.573        0.171        0.143       16.769       21.405        1.629      340.493       14.552      859.860
09/04/2014  08:02:00       25.555      -13.722       18.000       35.109       42.339       27.844     1232.621     1792.604      775.308        0.248        0.190       29.006       28.295        0.952      340.508       14.578      859.865
09/04/2014  08:03:00       42.733      -48.611        9.482       28.322       23.518       22.669      802.139      553.107      513.901        0.307        0.093       64.723       10.323        0.025      340.239       14.120      859.875
09/04/2014  08:04:00       10.954       -5.635       23.925       22.606       28.028       21.877      511.033      785.591      478.596        0.125        0.089       12.319       16.447        1.783      340.562       14.668      859.883
09/04/2014  08:05:00       16.813       -0.169       -6.281       23.729       23.495       15.730      563.054      552.031      247.423        0.084        0.068       16.814       12.538        0.556      340.548       14.644      859.887
09/04/2014  08:06:00       25.651       19.768       11.312       22.605       19.110       19.226      510.999      365.194      369.652        0.121        0.062       32.384       16.069        0.246      340.776       15.030      859.896
09/04/2014  08:07:00       19.822       19.626       29.582       24.027       29.641       12.989      577.291      878.573      168.708        0.164        0.081       27.894        7.812        0.078      340.911       15.259      859.908
09/04/2014  08:08:00       31.498       29.322       52.682       27.487       19.083       15.238      755.516      364.161      232.205        0.299        0.068       43.034       10.184        0.056      340.786       15.048      859.907
09/04/2014  08:09:00       15.986       20.000       15.191       20.985       26.013       21.343      440.363      676.700      455.508        0.123        0.079       25.604       21.426        0.700      340.652       14.821      859.914
09/04/2014  08:10:00       10.984      -12.436        7.468       25.049       17.418       17.505      627.468      303.374      306.424        0.078        0.062       16.592       12.592        0.576      340.835       15.131      859.899
09/04/2014  08:11:00        7.715      -10.099        0.006       32.937       25.237       13.407     1084.813      636.888      179.749        0.103        0.095       12.709        8.087        0.405      340.625       14.775      859.890
09/04/2014  08:12:00      -33.268        7.921       -6.661       17.572       30.782       20.232      308.759      947.505      409.330        0.144        0.083       34.198       14.697        0.185      340.719       14.934      859.891
09/04/2014  08:13:00       11.291      -11.671       12.296       40.218       31.987       21.468     1617.516     1023.138      460.859        0.176        0.155       16.239       12.597        0.602      340.891       15.225      859.890
09/04/2014  08:14:00       37.942       22.507       27.903       27.473       57.473       28.600      754.757     3303.139      817.987        0.380        0.244       44.115       18.491        0.176      340.670       14.852      859.892
09/04/2014  08:15:00       58.510       47.471        8.304       28.804       17.278       20.914      829.696      298.529      437.380        0.366        0.078       75.346       14.661        0.038      340.850       15.154      859.905
09/04/2014  08:16:00       41.813       25.224       19.025       24.110       18.010       24.332      581.295      324.376      592.024        0.212        0.075       48.832       13.139        0.072      340.950       15.325      859.911
09/04/2014  08:17:00       35.045        3.465       18.469       23.843       41.832       24.920      568.492     1749.874      621.007        0.226        0.147       35.216       20.392        0.335      340.876       15.200      859.920
09/04/2014  08:18:00       14.086       -9.403       21.290       36.114       43.560       30.797     1304.193     1897.449      948.486        0.244        0.208       16.936       28.342        2.801      340.939       15.306      859.927
09/04/2014  08:19:00      105.885       47.545       21.431       30.382       19.510       24.110      923.065      380.629      581.308        0.791        0.094      116.070       14.807        0.016      340.985       15.386      859.940
09/04/2014  08:20:00       28.479       -7.665       16.149       29.512       41.192       23.321      870.958     1696.748      543.889        0.212        0.156       29.493       16.111        0.298      341.031       15.462      859.950
09/04/2014  08:21:00       15.121       13.061       32.671       28.271       43.618       35.630      799.249     1902.499     1269.483        0.272        0.199       19.981       30.364        2.309      341.139       15.643      859.953
09/04/2014  08:22:00       63.977       57.973       32.471       35.372       20.433       23.577     1251.178      417.504      555.890        0.537        0.111       86.336       11.013        0.016      340.970       15.361      859.935
09/04/2014  08:23:00       56.370       58.132       30.226       28.631       36.989       41.797      819.717     1368.157     1747.030        0.570        0.197       80.975       33.908        0.175      340.824       15.112      859.944
09/04/2014  08:24:00       49.416       23.923       10.756       49.664       35.711       25.042     2466.522     1275.300      627.108        0.375        0.218       54.902       21.052        0.147      341.086       15.556      859.940
09/04/2014  08:25:00       66.541       48.173       27.129       39.235       29.781       31.569     1539.350      886.927      996.603        0.545        0.171       82.149       22.062        0.072      341.272       15.869      859.922
09/04/2014  08:26:00       70.889       58.459       26.754       22.642       23.396       31.671      512.662      547.386     1003.082        0.561        0.103       91.885       13.363        0.021      340.963       15.346      859.920
09/04/2014  08:27:00       56.144       43.900        1.290       32.162       29.439       24.869     1034.419      866.648      618.463        0.380        0.126       71.270       16.875        0.056      341.346       15.995      859.925
09/04/2014  08:28:00       18.223       22.824       33.578       41.858       51.226       25.071     1752.120     2624.115      628.556        0.349        0.250       29.207       13.557        0.215      341.401       16.088      859.931
09/04/2014  08:29:00       19.838       -7.323       13.157       20.813       38.957       21.675      433.198     1517.645      469.819        0.152        0.121       21.147       22.538        1.136      341.225       15.789      859.938
09/04/2014  08:30:00       31.272      -54.311       -6.722       27.620       22.913       20.806      762.858      525.025      432.875        0.285        0.086       62.671       10.628        0.029      340.756       14.996      859.946
09/04/2014  08:31:00        8.033      -29.539       18.527       21.018       24.740       28.460      441.770      612.090      809.960        0.157        0.093       30.612       16.454        0.289      341.142       15.650      859.952
09/04/2014  08:32:00       28.210      -34.350        1.204       28.725       38.109       30.643      825.100     1452.271      938.963        0.260        0.161       44.449       23.000        0.268      340.968       15.355      859.957
09/04/2014  08:33:00       12.724      -36.493       -8.433       28.165       42.295       25.881      793.284     1788.848      669.834        0.241        0.163       38.647       20.244        0.274      341.046       15.488      859.947
09/04/2014  08:34:00      -12.422        6.922       39.267       16.068       40.039       22.339      258.176     1603.130      499.035        0.205        0.118       14.220       23.321        2.689      341.773       16.719      859.945
09/04/2014  08:35:00        2.192       18.585       43.069       16.092       25.054       14.985      258.955      627.689      224.540        0.166        0.056       18.714       12.386        0.438      341.970       17.052      859.946
09/04/2014  08:36:00       52.593       36.562       25.848       29.678       21.536       22.294      880.770      463.781      497.036        0.331        0.092       64.054        9.465        0.022      341.472       16.209      859.945
09/04/2014  08:37:00       42.384       34.583       32.664       37.318       36.811       36.126     1392.644     1355.063     1305.103        0.406        0.203       54.703       16.672        0.093      341.485       16.230      859.942
09/04/2014  08:38:00       72.038       23.237       20.042       51.045       47.665       42.166     2605.586     2271.918     1777.958        0.639        0.333       75.693       32.278        0.182      341.368       16.032      859.938
09/04/2014  08:39:00       57.308       37.996       46.961       49.755       30.274       37.450     2475.521      916.544     1402.508        0.586        0.240       68.760       27.696        0.162      341.531       16.309      859.936
09/04/2014  08:40:00       75.162       44.027       -0.581       35.573       17.829       27.938     1265.445      317.859      780.524        0.498        0.118       87.108        9.406        0.012      341.401       16.087      859.947
09/04/2014  08:41:00       35.570       12.534       -9.972       19.561       19.862       12.315      382.624      394.491      151.661        0.123        0.046       37.714        7.747        0.042      341.406       16.095      859.937
09/04/2014  08:42:00       42.518       13.929        7.641       44.708       20.929       30.898     1998.828      438.006      954.670        0.273        0.170       44.742       20.538        0.211      341.467       16.200      859.947
09/04/2014  08:43:00       33.422       30.554       32.826       35.492       30.588       28.535     1259.691      935.654      814.256        0.307        0.150       45.284       24.812        0.300      341.633       16.482      859.943
09/04/2014  08:44:00       79.223       39.162       16.134       30.639       21.860       24.171      938.745      477.845      584.215        0.504        0.100       88.374       13.826        0.024      341.401       16.088      859.943
09/04/2014  08:45:00       36.207       18.215        1.003       24.913       30.423       28.139      620.642      925.557      791.790        0.199        0.117       40.531       12.882        0.101      341.595       16.417      859.939
09/04/2014  08:46:00       28.804      -15.296       35.194       32.740       38.189       27.024     1071.880     1458.418      730.276        0.278        0.163       32.613       24.135        0.548      341.797       16.760      859.941
09/04/2014  08:47:00       40.694      -22.058        9.274       32.339       24.038       21.221     1045.822      577.823      450.337        0.215        0.104       46.288       14.358        0.096      341.668       16.539      859.947
09/04/2014  08:48:00       40.866       28.634       28.403       32.536       32.254       35.122     1058.624     1040.340     1233.573        0.331        0.167       49.899       24.258        0.236      342.061       17.208      859.933
09/04/2014  08:49:00       61.098       59.609        9.355       33.056       17.633       31.371     1092.689      310.929      984.146        0.488        0.119       85.359        9.856        0.013      341.972       17.057      859.923
09/04/2014  08:50:00       64.393       49.637       10.582       40.487       33.768       24.932     1639.203     1140.269      621.592        0.506        0.170       81.303       14.575        0.032      342.243       17.516      859.921
09/04/2014  08:51:00      127.508       62.169       22.770       48.061       37.145       31.568     2309.820     1379.732      996.518        1.266        0.234      141.857       24.289        0.029      342.116       17.301      859.923
09/04/2014  08:52:00      107.216       67.048        8.462       62.812       44.757       33.507     3945.328     2003.181     1122.704        1.157        0.354      126.454       28.401        0.050      341.970       17.053      859.931
09/04/2014  08:53:00       43.621       37.643       41.875       50.132       50.728       36.511     2513.184     2573.368     1333.059        0.575        0.321       57.618       23.178        0.162      342.261       17.547      859.939
09/04/2014  08:54:00       31.609       42.454       29.071       54.329       32.780       28.695     2951.692     1074.532      823.391        0.425        0.242       52.929       23.747        0.201      342.142       17.345      859.944
09/04/2014  08:55:00      117.137       75.211       16.182       43.645       26.314       27.253     1904.864      692.430      742.743        1.149        0.167      139.204        6.509        0.002      341.934       16.992      859.951
09/04/2014  08:56:00      117.543       58.098       26.360       54.011       43.135       29.889     2917.171     1860.610      893.355        1.178        0.284      131.117       19.151        0.021      342.002       17.107      859.957
09/04/2014  08:57:00       24.197       45.910       55.717       52.531       40.964       38.194     2759.535     1678.064     1458.760        0.585        0.295       51.897       37.647        0.526      342.203       17.447      859.952
09/04/2014  08:58:00      120.653       92.563       32.139       36.625       25.475       34.745     1341.380      648.990     1207.240        1.368        0.160      152.070       19.587        0.017      342.001       17.105      859.957
09/04/2014  08:59:00       44.723       73.163        5.257       31.321       47.487       33.848      980.989     2255.041     1145.678        0.588        0.219       85.749       26.647        0.097      342.291       17.598      859.960
09/04/2014  09:00:00       22.451       17.428       20.432       36.009       27.667       21.645     1296.668      765.466      468.486        0.188        0.127       28.421       17.563        0.382      342.807       18.475      859.948
09/04/2014  09:01:00       63.302       58.389        8.230       41.791       41.015       33.597     1746.468     1682.264     1128.775        0.602        0.228       86.119       20.180        0.055      342.362       17.720      859.943
09/04/2014  09:02:00       77.873       58.580       23.211       67.079       44.134       33.498     4499.575     1947.831     1122.127        0.880        0.378       97.446       25.116        0.066      342.522       17.990      859.934
09/04/2014  09:03:00       87.710       69.263       11.572       61.309       40.098       30.331     3758.847     1607.884      919.982        0.945        0.314      111.760       11.094        0.010      342.415       17.809      859.928
09/04/2014  09:04:00       65.775       49.647       12.834       43.801       38.263       35.785     1918.523     1464.034     1280.591        0.581        0.233       82.409       22.728        0.076      342.508       17.967      859.927
09/04/2014  09:05:00      140.949       89.753       26.185       58.610       38.524       40.589     3435.139     1484.071     1647.496        1.759        0.328      167.099       25.300        0.023      342.462       17.888      859.926
09/04/2014  09:06:00      152.581       82.127       16.063       44.545       39.878       30.895     1984.252     1590.233      954.510        1.741        0.226      173.280        5.204        0.001      342.119       17.306      859.922
09/04/2014  09:07:00       63.112       46.335       30.617       43.458       40.288       29.701     1888.618     1623.154      882.153        0.573        0.220       78.294       23.127        0.087      342.420       17.818      859.919
09/04/2014  09:08:00      134.718       93.776       22.286       40.905       27.162       42.556     1673.184      737.748     1811.018        1.583        0.211      164.143       24.794        0.023      342.126       17.316      859.916
09/04/2014  09:09:00       35.553       49.360       31.890       56.479       41.223       29.774     3189.857     1699.303      886.507        0.525        0.289       60.831       23.700        0.152      342.501       17.955      859.919
09/04/2014  09:10:00       32.037      -16.306       10.090       44.438       28.558       31.080     1974.731      815.559      965.980        0.257        0.188       35.948       17.308        0.232      342.028       17.150      859.920
09/04/2014  09:11:00       78.364       43.768       18.836       67.640       47.240       45.294     4575.147     2231.642     2051.585        0.863        0.443       89.758       18.560        0.043      342.218       17.475      859.917
09/04/2014  09:12:00      119.162      114.555       10.403       59.667       59.952       40.845     3560.149     3594.234     1668.283        1.812        0.441      165.295       27.019        0.027      342.365       17.723      859.923
09/04/2014  09:13:00       77.512       59.948       30.891       53.877       53.379       43.071     2902.713     2849.269     1855.117        0.908        0.380       97.989       34.843        0.126      342.667       18.237      859.919
09/04/2014  09:14:00      144.678       91.018       31.289       53.555       43.087       43.429     2868.150     1856.525     1886.074        1.840        0.331      170.927       26.400        0.024      342.558       18.050      859.935
09/04/2014  09:15:00      105.880       70.028       23.854       74.182       42.298       42.901     5503.037     1789.084     1840.524        1.291        0.457      126.943       30.254        0.057      342.685       18.267      859.921
09/04/2014  09:16:00       98.788       84.583       28.258       74.145       61.296       40.310     5497.476     3757.149     1624.894        1.429        0.544      130.051       33.225        0.065      342.702       18.296      859.924
09/04/2014  09:17:00      169.923       99.550       12.283       77.196       49.090       44.691     5959.207     2409.813     1997.248        2.465        0.518      196.936       32.906        0.028      342.660       18.222      859.923
09/04/2014  09:18:00      110.220       97.828       25.803       60.803       43.793       38.664     3696.971     1917.845     1494.934        1.475        0.355      147.373       21.051        0.020      342.592       18.109      859.913
09/04/2014  09:19:00       24.490       83.395        2.944       45.396       48.141       25.274     2060.823     2317.523      638.779        0.629        0.251       86.917       26.586        0.094      342.688       18.274      859.913
09/04/2014  09:20:00       89.812       37.879        9.905       53.468       33.021       26.891     2858.876     1090.418      723.125        0.713        0.234       97.473       11.907        0.015      342.822       18.500      859.924
09/04/2014  09:21:00       71.948       80.038       58.356       65.077       63.121       59.007     4235.065     3984.322     3481.863        1.334        0.585      107.622       41.193        0.147      342.965       18.744      859.925
09/04/2014  09:22:00      123.254       96.737       53.158      100.708       82.464       80.051    10142.162     6800.376     6408.166        2.536        1.168      156.683       57.225        0.133      342.585       18.095      859.937
09/04/2014  09:23:00       51.060       43.374       51.554       56.038       42.379       40.609     3140.292     1795.951     1649.063        0.686        0.329       66.996       27.828        0.173      342.773       18.419      859.933
09/04/2014  09:24:00       72.468       16.282       29.406       64.314       66.739       40.798     4136.342     4454.054     1664.467        0.832        0.513       74.275       35.719        0.231      342.542       18.026      859.933
09/04/2014  09:25:00      171.876       89.075       35.761       80.821       65.173       50.168     6532.113     4247.578     2516.796        2.602        0.665      193.586       43.376        0.050      342.708       18.304      859.937
09/04/2014  09:26:00      154.340      107.453       27.971       75.228       55.257       50.481     5659.183     3053.321     2548.329        2.370        0.563      188.061       42.855        0.052      342.610       18.138      859.954
09/04/2014  09:27:00      136.971      103.815       12.783       51.645       42.928       40.483     2667.177     1842.794     1638.867        1.792        0.307      171.868       22.126        0.017      342.750       18.378      859.973
09/04/2014  09:28:00      118.971       92.148        7.723       62.386       57.845       44.357     3892.059     3346.082     1967.526        1.595        0.460      150.484       33.802        0.050      342.861       18.567      859.983
09/04/2014  09:29:00       89.334       71.855       23.093       41.354       34.256       30.608     1710.127     1173.488      936.854        0.875        0.191      114.646       18.306        0.025      342.955       18.728      859.992
09/04/2014  09:30:00      146.900      108.556       18.800       75.641       47.971       41.077     5721.487     2301.171     1687.281        2.171        0.485      182.658       19.979        0.012      342.803       18.465      859.991
09/04/2014  09:31:00       97.229       61.628       21.299       86.919       48.705       46.267     7554.999     2372.138     2140.597        1.288        0.603      115.115       17.370        0.023      343.037       18.865      860.006
09/04/2014  09:32:00      149.580       81.240       32.053       97.514       48.882       48.880     9508.937     2389.469     2389.284        2.214        0.714      170.218       32.504        0.036      343.040       18.869      859.993
09/04/2014  09:33:00      256.809      156.510       54.144       82.595       71.847       63.996     6821.943     5161.959     4095.462        5.473        0.804      300.743       46.450        0.024      342.742       18.359      860.007
09/04/2014  09:34:00       99.082       41.076       44.880       94.624       60.967       47.995     8953.745     3716.923     2303.479        1.424        0.749      107.259       39.505        0.136      342.675       18.249      860.003
09/04/2014  09:35:00       27.534       34.897       59.739       52.391       63.255       50.524     2744.778     4001.212     2552.662        0.742        0.465       44.451       51.976        1.367      343.013       18.827      860.003
09/04/2014  09:36:00       34.396       21.056       41.544       46.132       50.758       29.466     2128.198     2576.358      868.275        0.446        0.279       40.329       16.773        0.173      343.058       18.902      859.994
09/04/2014  09:37:00       92.707       59.140       12.275       66.861       45.422       37.017     4470.365     2063.181     1370.275        1.007        0.395      109.964       24.504        0.050      343.125       19.016      860.000
09/04/2014  09:38:00      110.547       63.143       17.193       64.237       60.304       46.848     4126.334     3636.542     2194.763        1.323        0.498      127.310       32.394        0.065      343.216       19.173      860.001
09/04/2014  09:39:00      124.118       81.620       46.924       82.860       62.034       54.246     6865.743     3848.185     2942.637        1.896        0.683      148.550       29.030        0.038      343.186       19.120      860.012
09/04/2014  09:40:00      107.733       80.838       17.818       70.143       48.652       33.328     4919.981     2367.034     1110.743        1.343        0.420      134.690       34.280        0.065      343.051       18.890      860.019
09/04/2014  09:41:00       65.289       42.637       47.101       75.087       55.378       41.110     5638.010     3066.692     1690.064        0.934        0.520       77.978       43.081        0.305      343.212       19.165      860.024
09/04/2014  09:42:00       74.316       38.452       19.177       69.456       40.669       41.962     4824.153     1654.000     1760.823        0.780        0.412       83.675       11.312        0.018      343.506       19.667      860.032
09/04/2014  09:43:00      131.809       96.399       21.327       49.908       45.278       42.165     2490.855     2050.097     1777.894        1.672        0.316      163.299       18.993        0.014      343.191       19.127      860.021
09/04/2014  09:44:00      254.994      160.240       34.309       98.269       90.671       66.051     9656.806     8221.178     4362.801        5.705        1.112      301.163       32.802        0.012      343.015       18.826      860.015
09/04/2014  09:45:00      206.159      130.601        7.898      102.871       61.174       67.564    10582.540     3742.264     4564.951        3.925        0.944      244.046       52.827        0.047      342.903       18.638      860.026
09/04/2014  09:46:00      116.649       75.526       17.019       61.803       39.481       38.944     3819.620     1558.739     1516.651        1.325        0.345      138.965       22.449        0.026      343.117       19.002      860.020
09/04/2014  09:47:00       56.889       67.288       54.616       72.893       46.882       42.082     5313.341     2197.942     1770.915        1.001        0.464       88.114       37.808        0.184      343.417       19.514      860.015
09/04/2014  09:48:00       57.927       54.814       25.332       58.113       55.263       35.843     3377.129     3054.030     1284.689        0.736        0.386       79.751       15.981        0.040      343.691       19.981      860.031
09/04/2014  09:49:00      182.839      106.556        9.010       69.902       64.557       54.952     4886.258     4167.664     3019.685        2.847        0.604      211.623       30.594        0.021      343.340       19.380      860.029
09/04/2014  09:50:00      115.278      110.368        5.467       66.111       55.469       44.795     4370.657     3076.806     2006.625        1.748        0.473      159.593       32.080        0.040      343.306       19.323      860.024
09/04/2014  09:51:00      130.028      101.816       17.526       83.496       58.099       54.084     6971.641     3375.512     2925.050        2.042        0.664      165.148       37.700        0.052      343.325       19.356      860.028
09/04/2014  09:52:00      167.902      122.122       26.067       85.038       58.204       51.618     7231.527     3387.734     2664.417        2.853        0.664      207.617       44.319        0.046      343.321       19.346      860.016
09/04/2014  09:53:00      184.453      133.318       44.161      118.868       72.300       84.487    14129.535     5227.303     7138.115        4.012        1.325      227.589       45.412        0.040      343.362       19.418      860.005
09/04/2014  09:54:00      188.182      138.821      116.286      130.262       75.250       69.427    16968.201     5662.629     4820.084        4.782        1.373      233.846       75.498        0.104      343.286       19.286      859.996
09/04/2014  09:55:00      163.043       25.741       84.544      100.849       76.796       54.755    10170.534     5897.579     2998.112        2.673        0.953      165.062       50.012        0.092      343.225       19.184      859.999
09/04/2014  09:56:00       94.780       97.485      117.265       96.609       89.947       78.994     9333.354     8090.401     6240.016        2.795        1.183      135.966       75.889        0.312      343.322       19.350      859.981
09/04/2014  09:57:00      127.979      130.491       94.296      123.038       88.401       69.471    15138.264     7814.775     4826.214        3.503        1.389      182.774       46.881        0.066      343.503       19.658      859.984
09/04/2014  09:58:00      160.780       64.057       73.137      142.222      100.401       68.220    20227.089    10080.393     4653.938        3.512        1.748      173.071       30.900        0.032      343.397       19.478      859.986
09/04/2014  09:59:00      142.545       79.416       35.071       96.425       76.238       68.560     9297.708     5812.303     4700.522        2.383        0.991      163.175       60.768        0.139      343.441       19.551      859.989
09/04/2014  10:00:00      115.594       82.726      113.131       96.000       88.593       70.528     9216.062     7848.775     4974.187        2.752        1.102      142.147       61.828        0.189      343.419       19.515      859.988
09/04/2014  10:01:00      223.392      135.351       33.131      107.820       76.583       75.807    11625.134     5864.965     5746.727        4.627        1.162      261.197       49.810        0.036      343.411       19.500      859.999
09/04/2014  10:02:00      288.175      128.042       70.794      107.315      102.488       72.515    11516.560    10503.869     5258.366        6.586        1.364      315.341       49.493        0.025      343.449       19.566      859.981
09/04/2014  10:03:00      170.444       65.810       45.368      125.599       83.594       77.636    15775.039     6987.945     6027.344        3.211        1.440      182.708       63.989        0.123      343.447       19.563      860.009
09/04/2014  10:04:00      162.631      131.197      118.280      120.946      103.952       74.132    14627.973    10805.916     5495.562        4.428        1.546      208.953       71.490        0.117      343.427       19.528      859.989
09/04/2014  10:05:00      173.088      109.669       65.769      134.474       90.696       80.622    18083.388     8225.743     6499.983        3.955        1.640      204.907       85.750        0.175      343.294       19.302      860.011
09/04/2014  10:06:00      127.383       56.921       53.810       92.127      110.292       52.952     8487.375    12164.298     2803.890        2.290        1.173      139.522       42.483        0.093      343.628       19.871      859.989
09/04/2014  10:07:00       64.427       61.098       91.915      111.653      105.406       60.771    12466.286    11110.326     3693.112        2.180        1.363       88.791       49.019        0.305      343.997       20.502      859.984
09/04/2014  10:08:00      109.831      -41.812       59.353      104.889      146.822       83.402    11001.749    21556.820     6955.913        2.842        1.976      117.521      102.550        0.761      343.764       20.104      860.005
09/04/2014  10:09:00       69.922       51.422      102.492       87.723       82.947       60.325     7695.377     6880.184     3639.079        1.812        0.911       86.795       58.442        0.453      343.924       20.377      859.994
09/04/2014  10:10:00      100.368       83.508      124.396      113.566      145.933       92.619    12897.278    21296.297     8578.242        3.764        2.139      130.565       90.186        0.477      343.660       19.926      859.996
09/04/2014  10:11:00       57.990      -67.542       19.313       64.728      116.093       50.156     4189.732    13477.686     2515.574        1.424        1.009       89.021       53.078        0.356      343.951       20.424      860.012
09/04/2014  10:12:00       36.648       15.801       48.887       63.025       60.114       43.423     3972.098     3613.653     1885.515        0.673        0.474       39.909       33.534        0.706      344.061       20.613      860.015
09/04/2014  10:13:00       45.660       36.867       68.101       53.801       97.460       57.233     2894.539     9498.477     3275.585        1.187        0.783       58.686       62.237        1.125      343.938       20.402      860.010
09/04/2014  10:14:00      135.394      -11.304       28.281       63.087       87.695       57.254     3979.920     7690.423     3278.002        1.710        0.747      135.866       58.092        0.183      343.662       19.931      860.008
09/04/2014  10:15:00      151.691      127.457       99.708      127.824       85.720       69.116    16339.073     7347.949     4777.033        3.882        1.423      198.130       66.818        0.114      343.800       20.164      860.001
09/04/2014  10:16:00      198.694      119.301      180.227      150.691      144.223      111.702    22707.800    20800.182    12477.305        7.108        2.799      231.759      119.369        0.265      343.629       19.873      859.966
09/04/2014  10:17:00      168.230       28.650       86.506      127.078      115.789       76.450    16148.918    13407.028     5844.632        3.600        1.770      170.652       77.802        0.208      343.628       19.872      859.971
09/04/2014  10:18:00      225.089      120.260      112.431      119.235      129.344      106.135    14217.057    16729.969    11264.705        5.998        2.111      255.201       70.764        0.077      343.652       19.911      859.977
09/04/2014  10:19:00      103.055       99.510       75.959      120.799       98.292       72.746    14592.419     9661.256     5291.931        2.791        1.477      143.257       45.985        0.103      343.975       20.462      859.976
09/04/2014  10:20:00       82.491       57.374       35.016       45.459       44.852       50.019     2066.520     2011.711     2501.897        0.895        0.329      100.481       14.106        0.020      344.337       21.084      859.982
09/04/2014  10:21:00      206.912      177.744      117.648      139.303      114.307      101.392    19405.433    13066.162    10280.238        6.549        2.138      272.774       88.175        0.104      343.803       20.169      859.971
09/04/2014  10:22:00      130.913       82.337       89.810      115.676      113.292       68.096    13380.843    12835.077     4637.050        3.141        1.543      154.653       61.444        0.158      344.100       20.677      859.967
09/04/2014  10:23:00      131.818       43.260       59.379      108.670       86.551       60.307    11809.248     7491.096     3636.926        2.285        1.147      138.736       49.215        0.126      344.031       20.560      859.960
09/04/2014  10:24:00      158.383       93.393       67.632       83.114       76.790       69.115     6907.909     5896.704     4776.848        2.798        0.879      183.868       44.489        0.059      343.866       20.277      859.958
09/04/2014  10:25:00       36.884      -51.609       11.362       86.595      112.938       46.107     7498.645    12754.988     2125.886        1.326        1.119       63.435       33.416        0.277      343.862       20.273      859.936
09/04/2014  10:26:00       88.301      -45.856       29.447       54.049       53.422       50.033     2921.329     2853.962     2503.252        0.952        0.414       99.498       42.518        0.183      343.628       19.875      859.918
09/04/2014  10:27:00       79.070       54.131       30.650       61.981       53.860       48.494     3841.682     2900.855     2351.684        0.961        0.455       95.824       30.699        0.103      343.785       20.142      859.896
09/04/2014  10:28:00      117.798       86.619       56.087       71.998       50.713       45.337     5183.706     2571.857     2055.474        1.717        0.491      146.216       37.775        0.067      343.798       20.162      859.874
09/04/2014  10:29:00      179.438      160.593       28.872      118.280       80.896       80.172    13990.193     6544.209     6427.629        4.289        1.348      240.807       46.591        0.037      343.987       20.484      859.870
09/04/2014  10:30:00      177.794       79.543       34.862       75.428       67.013       53.013     5689.433     4490.787     2810.362        2.607        0.650      194.776       15.338        0.006      344.153       20.766      859.869
09/04/2014  10:31:00      123.159       75.256       31.926       86.044       65.298       42.005     7403.617     4263.769     1764.449        1.764        0.672      144.332       38.365        0.071      344.217       20.876      859.865
09/04/2014  10:32:00       40.046       33.473        9.911       58.411       42.077       39.433     3411.847     1770.505     1554.962        0.478        0.337       52.193       18.893        0.131      344.523       21.402      859.856
09/04/2014  10:33:00       37.143       -3.957       19.472       33.522       36.580       34.374     1123.737     1338.122     1181.567        0.271        0.182       37.353       20.316        0.296      344.590       21.517      859.846
09/04/2014  10:34:00       47.513       38.203       27.437       95.986       70.494       40.554     9213.292     4969.465     1644.657        1.015        0.791       60.966       28.952        0.226      344.443       21.265      859.842
09/04/2014  10:35:00      162.356       77.254       32.640       91.663       79.304       60.664     8402.017     6289.091     3680.148        2.588        0.919      179.799       39.009        0.047      344.221       20.884      859.831
09/04/2014  10:36:00      174.481      121.808       24.121       93.404       63.823       58.909     8724.370     4073.436     3470.326        3.106        0.813      212.793       22.983        0.012      344.082       20.644      859.814
09/04/2014  10:37:00      153.898      106.691       41.508       88.622       70.273       58.592     7853.808     4938.322     3433.024        2.650        0.811      187.263       38.575        0.042      344.096       20.670      859.810
09/04/2014  10:38:00      101.974       75.572       30.112       69.838       54.786       45.328     4877.358     3001.475     2054.656        1.347        0.497      126.924       26.408        0.043      344.291       21.006      859.795
09/04/2014  10:39:00      102.001       77.757       62.409      112.031       83.160       66.178    12550.856     6915.582     4379.577        2.209        1.192      128.259       61.715        0.232      344.225       20.893      859.800
09/04/2014  10:40:00      202.301       92.001       40.685      111.773       80.781       81.710    12493.314     6525.526     6676.506        3.837        1.285      222.239       64.561        0.084      344.093       20.664      859.806
09/04/2014  10:41:00      126.420      125.175      136.955      120.446       97.324       74.581    14507.263     9471.989     5562.284        3.997        1.477      177.907       76.996        0.187      343.817       20.193      859.792
09/04/2014  10:42:00      109.145       86.502       79.786       83.520       93.278       72.211     6975.623     8700.797     5214.411        2.332        1.045      139.267       70.950        0.260      343.748       20.077      859.793
09/04/2014  10:43:00      125.045      137.483      104.722      110.791       77.925       69.178    12274.605     6072.293     4785.581        3.431        1.157      185.843       58.991        0.101      344.319       21.051      859.778
09/04/2014  10:44:00      217.825      171.624       51.438       70.477       60.980       68.472     4967.052     3718.504     4688.403        4.646        0.669      277.313       40.402        0.021      344.247       20.927      859.801
09/04/2014  10:45:00      158.003      117.799       28.535      106.111       68.527       52.777    11259.585     4695.973     2785.390        2.919        0.937      197.083       51.749        0.069      343.972       20.458      859.813
09/04/2014  10:46:00       81.911       60.407       48.762       94.457       83.565       56.717     8922.123     6983.131     3216.797        1.593        0.956      101.777       45.685        0.201      344.299       21.020      859.813
09/04/2014  10:47:00      127.187      123.414       65.598      118.277       61.451       60.530    13989.413     3776.282     3663.897        2.857        1.071      177.222       39.559        0.050      344.071       20.627      859.806
09/04/2014  10:48:00       84.058       69.811       91.919       77.249       96.451       60.434     5967.450     9302.829     3652.211        1.965        0.946      109.267       48.364        0.196      344.035       20.567      859.799
09/04/2014  10:49:00      182.523      111.937       61.320       94.759       66.561       62.272     8979.258     4430.330     3877.825        3.344        0.864      214.114       38.612        0.033      343.965       20.446      859.792
09/04/2014  10:50:00       22.458       54.860       60.992       88.431       60.970       55.885     7819.972     3717.390     3123.109        1.094        0.733       59.279       44.541        0.565      344.244       20.924      859.789
09/04/2014  10:51:00       92.548       31.079       70.902       93.452       91.396       66.499     8733.273     8353.154     4422.130        1.803        1.075       97.627       59.086        0.366      344.125       20.720      859.780
09/04/2014  10:52:00      176.981      154.125      124.587      118.205      113.293       98.456    13972.331    12835.315     9693.663        5.354        1.825      234.684       79.679        0.115      344.247       20.928      859.769
09/04/2014  10:53:00      226.987      143.397      113.089      168.770      121.442      104.342    28483.147    14748.160    10887.254        6.949        2.706      268.487      103.372        0.148      344.028       20.553      859.780
09/04/2014  10:54:00      152.169      145.182      131.779      110.409       97.184       94.596    12190.147     9444.783     8948.425        4.608        1.529      210.316       77.926        0.137      343.842       20.237      859.795
09/04/2014  10:55:00       89.899      116.785      123.483      124.239      131.960       88.188    15435.299    17413.325     7777.105        3.879        2.031      147.379       90.475        0.377      343.908       20.349      859.776
09/04/2014  10:56:00       83.537      120.419      143.379       84.004       82.259       64.122     7056.670     6766.553     4111.671        2.998        0.897      146.558       53.017        0.131      344.012       20.526      859.772
09/04/2014  10:57:00      114.728      103.593       83.420       90.017       90.977       79.857     8103.069     8276.896     6377.151        2.680        1.138      154.577       65.192        0.178      343.903       20.340      859.765
09/04/2014  10:58:00      153.173      103.540       55.864       83.504       53.859       59.465     6972.932     2900.785     3536.082        2.535        0.670      184.885       49.468        0.072      344.186       20.822      859.746
09/04/2014  10:59:00       90.449       83.799       40.747       81.723       64.264       64.699     6678.616     4129.874     4185.925        1.593        0.750      123.302       42.485        0.119      344.791       21.859      859.741
09/04/2014  11:00:00      245.857      133.145      109.744      165.106      105.184       84.718    27259.855    11063.677     7177.204        6.785        2.275      279.595       58.306        0.043      344.381       21.156      859.754
09/04/2014  11:01:00       89.047       44.690       39.788      111.339       62.580       41.306    12396.392     3916.205     1706.146        1.476        0.901       99.633       47.678        0.229      344.239       20.915      859.763
09/04/2014  11:02:00       82.994       87.767       76.927       76.438       82.962       75.623     5842.800     6882.684     5718.897        1.947        0.922      120.794       66.142        0.300      344.463       21.298      859.738
09/04/2014  11:03:00      151.178       74.763       24.393       73.437       67.896       51.209     5392.943     4609.906     2622.356        2.083        0.631      168.654       19.184        0.013      344.347       21.098      859.742
09/04/2014  11:04:00       62.967       24.503       34.583       78.899       92.156       53.423     6224.985     8492.753     2854.015        1.166        0.879       67.567       48.255        0.510      344.689       21.686      859.736
09/04/2014  11:05:00       81.589       65.580       53.710       60.637       56.751       48.086     3676.886     3220.637     2312.311        1.152        0.460      104.678       17.155        0.027      344.376       21.151      859.712
09/04/2014  11:06:00      135.662      108.959       19.227       72.010       58.361       51.293     5185.497     3406.060     2630.992        2.093        0.561      174.001       31.910        0.034      344.526       21.405      859.698
09/04/2014  11:07:00      221.131      129.551       22.441       91.466       70.670       61.208     8366.043     4994.311     3746.454        4.164        0.855      256.285       35.001        0.019      344.278       20.980      859.685
09/04/2014  11:08:00      199.844      120.603       40.339      100.704       66.570       63.218    10141.267     4431.520     3996.526        3.734        0.928      233.415       34.944        0.022      344.079       20.639      859.686
09/04/2014  11:09:00      143.714      118.643       47.400      112.770      102.109       74.371    12717.164    10426.341     5531.019        3.282        1.434      186.360       48.205        0.067      344.455       21.286      859.653
09/04/2014  11:10:00      229.681      161.688       18.779      165.489      105.203       81.441    27386.730    11067.590     6632.605        6.216        2.254      280.885       52.271        0.035      344.549       21.444      859.616
09/04/2014  11:11:00      252.786      181.104      154.361      167.877      145.605      134.123    28182.750    21200.927    17988.935        9.394        3.369      310.966      127.853        0.169      344.193       20.837      859.599
09/04/2014  11:12:00      137.582      175.662      173.500      146.848      126.305       99.256    21564.307    15953.058     9851.672        6.362        2.368      223.128       92.251        0.171      343.875       20.292      859.625
09/04/2014  11:13:00       72.525       67.377       85.347       77.890       81.655       77.076     6066.847     6667.566     5940.669        1.788        0.934       98.993       68.878        0.484      344.309       21.036      859.619
09/04/2014  11:14:00      117.702       71.284       53.385       99.655       77.236       61.624     9931.171     5965.409     3797.459        2.074        0.985      137.605       45.741        0.110      344.505       21.369      859.608
09/04/2014  11:15:00      155.441      158.846        8.684      106.531       94.609       89.635    11348.760     8950.853     8034.377        3.890        1.417      222.247       69.884        0.099      344.569       21.478      859.615
09/04/2014  11:16:00       38.213      106.300       12.758       78.537       83.730       54.518     6168.059     7010.701     2972.220        1.453        0.808      112.959       50.685        0.201      344.683       21.675      859.619
09/04/2014  11:17:00       44.825       89.820       20.342       57.430       73.420       47.259     3298.173     5390.479     2233.411        1.070        0.546      100.384       35.285        0.124      344.760       21.808      859.607
09/04/2014  11:18:00       10.392       34.657        9.929       54.988       52.872       42.143     3023.727     2795.491     1775.998        0.450        0.380       36.182       29.495        0.665      344.970       22.166      859.597
09/04/2014  11:19:00      130.424       54.289       10.844       47.916       46.325       41.076     2295.906     2145.974     1687.243        1.310        0.306      141.272       17.212        0.015      344.220       20.884      859.582
09/04/2014  11:20:00       88.716       99.106        5.650       48.725       42.169       34.540     2374.121     1778.240     1192.997        1.153        0.267      133.014       23.558        0.031      344.103       20.686      859.568
09/04/2014  11:21:00      252.794      190.680       44.122      152.601      100.706       77.090    23287.125    10141.691     5942.836        7.078        1.969      316.644       46.400        0.021      344.603       21.535      859.554
09/04/2014  11:22:00      193.203       40.370       79.037      164.827      130.595       90.749    27167.823    17055.118     8235.309        4.882        2.623      197.375       96.535        0.239      344.659       21.632      859.527
09/04/2014  11:23:00      106.992      -63.460       17.224      107.213      135.753       58.850    11494.551    18428.820     3463.289        2.457        1.669      124.397       82.745        0.442      344.761       21.809      859.544
09/04/2014  11:24:00       92.407       52.729       68.115       94.155       86.548       65.560     8865.157     7490.588     4298.138        1.830        1.033      106.393       53.300        0.251      344.838       21.940      859.557
09/04/2014  11:25:00      171.657       60.208       66.049       91.729       94.776       74.371     8414.129     8982.401     5531.057        3.019        1.146      181.910       58.748        0.104      344.627       21.579      859.566
09/04/2014  11:26:00       94.304      116.565      120.272       92.139       96.566       86.396     8489.651     9325.010     7464.201        3.111        1.264      149.936       72.687        0.235      344.407       21.201      859.547
09/04/2014  11:27:00       74.402      106.516      137.987       90.475      106.414       75.450     8185.776    11324.019     5692.679        3.056        1.260      129.928       76.326        0.345      344.108       20.692      859.557
09/04/2014  11:28:00      105.669      139.984      114.185      101.405       68.899       64.973    10282.994     4747.077     4221.455        3.152        0.963      175.389       57.484        0.107      344.240       20.916      859.545
09/04/2014  11:29:00       39.977       40.017       55.909       61.176       72.837       68.223     3742.479     5305.200     4654.366        1.001        0.685       56.564       53.793        0.904      344.406       21.202      859.534
09/04/2014  11:30:00       30.514       17.017       12.831       37.492       37.963       31.331     1405.685     1441.188      981.634        0.261        0.191       34.939       22.824        0.427      344.512       21.383      859.532
09/04/2014  11:31:00      130.578       91.149       56.003      113.772       82.682       77.706    12944.160     6836.271     6038.229        2.715        1.291      159.244       63.376        0.158      344.853       21.964      859.503
09/04/2014  11:32:00      105.575       68.021       86.977       79.646       79.971       70.173     6343.491     6395.355     4924.212        2.050        0.883      125.590       55.189        0.193      344.487       21.339      859.483
09/04/2014  11:33:00       70.554       96.448       72.795       68.874       60.272       49.681     4743.622     3632.756     2468.226        1.521        0.542      119.500       44.335        0.138      344.769       21.822      859.476
09/04/2014  11:34:00      130.095      -40.536       42.560       96.075      171.449       85.742     9230.323    29394.711     7351.746        3.317        2.299      136.264      105.672        0.601      344.671       21.652      859.473
09/04/2014  11:35:00      198.130     -203.935       -3.473       92.217      103.987       51.217     8503.976    10813.258     2623.216        5.139        1.097      284.332       57.308        0.041      344.502       21.363      859.461
09/04/2014  11:36:00       79.151      -93.825       -6.363       67.470       96.953       64.816     4552.142     9399.974     4201.076        1.663        0.908      122.752       70.146        0.327      344.847       21.957      859.443
09/04/2014  11:37:00       47.306       -1.340       46.967       59.455       81.038       50.344     3534.921     6567.169     2534.557        0.854        0.632       47.325       48.713        1.060      344.963       22.155      859.442
09/04/2014  11:38:00      110.227       11.961       42.319       91.611      169.104       64.661     8392.667    28596.159     4181.053        2.762        2.058      110.874       80.983        0.533      344.783       21.845      859.419
09/04/2014  11:39:00       78.404      104.048       89.049       88.462       68.239       58.427     7825.483     4656.538     3413.726        2.040        0.795      130.280       43.304        0.110      344.704       21.711      859.438
09/04/2014  11:40:00       84.895       81.825       66.359       76.887       64.909       57.051     5911.619     4213.182     3254.872        1.584        0.669      117.909       47.437        0.162      344.801       21.877      859.440
09/04/2014  11:41:00      163.658       90.435       39.728      125.780      111.226       71.083    15820.522    12371.273     5052.760        3.489        1.662      186.982       48.547        0.067      344.904       22.051      859.432
09/04/2014  11:42:00      284.056      168.910       33.129      101.885       89.872       70.168    10380.570     8076.997     4923.531        6.684        1.169      330.482       44.740        0.018      344.614       21.555      859.441
09/04/2014  11:43:00      100.679       86.465       20.730       86.175       75.170       80.473     7426.047     5650.538     6475.842        1.879        0.978      132.712       57.169        0.186      344.747       21.783      859.450
09/04/2014  11:44:00      113.672      101.046        0.860      128.669       82.638       57.378    16555.748     6829.113     3292.281        2.490        1.334      152.091       44.062        0.084      344.844       21.950      859.429
09/04/2014  11:45:00      311.147      215.753       69.517      120.092       97.680       76.054    14421.983     9541.313     5784.162        8.896        1.487      378.631       53.650        0.020      344.610       21.549      859.426
09/04/2014  11:46:00      173.447       97.592       37.994      110.230       82.952       70.981    12150.679     6881.019     5038.353        3.256        1.204      199.018       40.058        0.041      345.193       22.547      859.426
09/04/2014  11:47:00      272.262      158.215       44.631       91.916       85.821       76.885     8448.555     7365.321     5911.377        6.143        1.086      314.895       45.184        0.021      344.646       21.609      859.439
09/04/2014  11:48:00      146.751       80.586       46.115      116.860       78.380       48.467    13656.278     6143.373     2349.004        2.615        1.107      167.421       30.701        0.034      344.878       22.006      859.434
09/04/2014  11:49:00      108.949      107.348       11.817       97.767       70.786       49.378     9558.416     5010.657     2438.169        2.027        0.850      152.949       39.774        0.068      344.902       22.050      859.418
09/04/2014  11:50:00      163.161      111.357       47.354      120.815       85.479       70.157    14596.298     7306.735     4922.002        3.404        1.341      197.540       37.229        0.036      345.195       22.549      859.395
09/04/2014  11:51:00      102.640       98.975       29.964       81.229       47.399       41.967     6598.115     2246.670     1761.219        1.592        0.530      142.586       31.721        0.049      344.970       22.165      859.386
09/04/2014  11:52:00      189.784      165.999       61.820       83.620       64.297       69.485     6992.225     4134.083     4828.195        4.167        0.798      252.138       35.657        0.020      344.846       21.952      859.379
09/04/2014  11:53:00      272.294      145.167       45.971      132.025       95.518       75.393    17430.469     9123.688     5684.097        6.478        1.612      308.573       56.994        0.034      344.794       21.864      859.330
09/04/2014  11:54:00      184.026       76.624       61.165      145.242       95.256       76.337    21095.170     9073.668     5827.295        3.973        1.800      199.340       67.852        0.116      345.101       22.388      859.329
09/04/2014  11:55:00      158.552      123.300      124.704      104.524      100.422       81.570    10925.340    10084.673     6653.634        4.177        1.383      200.852       70.018        0.122      344.978       22.178      859.347
09/04/2014  11:56:00      130.491      141.920      158.715      104.378      112.438       86.050    10894.721    12642.206     7404.543        4.664        1.547      192.793       72.835        0.143      344.693       21.690      859.337
09/04/2014  11:57:00      141.223      138.096      120.935      165.550      110.888      115.386    27406.954    12296.106    13313.883        5.332        2.651      197.521      103.253        0.273      344.999       22.214      859.323
09/04/2014  11:58:00      292.778      165.082       32.382      117.164       84.744       66.957    13727.468     7181.476     4483.197        6.970        1.270      336.112       33.753        0.010      344.804       21.879      859.341
09/04/2014  11:59:00      262.016      155.243       10.098      120.583       91.238       69.140    14540.339     8324.297     4780.277        6.024        1.382      304.554       34.193        0.013      344.948       22.124      859.337
09/04/2014  12:00:00      277.735      195.207       57.237      132.993       97.383       81.121    17687.233     9483.536     6580.567        7.613        1.688      339.474       41.844        0.015      344.821       21.908      859.340
09/04/2014  12:01:00      266.522      179.453       34.242      111.004       94.928       61.497    12321.920     9011.362     3781.846        6.476        1.256      321.306       20.395        0.004      344.744       21.775      859.335
09/04/2014  12:02:00       92.031       79.052       13.994      100.141       72.040       57.270    10028.157     5189.818     3279.837        1.670        0.925      121.322       42.346        0.122      345.011       22.236      859.314
09/04/2014  12:03:00      107.038       67.904       53.519       87.412       58.348       49.216     7640.828     3404.484     2422.169        1.620        0.673      126.760       37.134        0.086      344.956       22.141      859.327
09/04/2014  12:04:00       72.851       36.280       57.966       71.060      109.256       60.330     5049.456    11936.819     3639.753        1.530        1.031       81.384       46.486        0.326      344.851       21.962      859.302
09/04/2014  12:05:00      121.670       70.788      116.712      120.485      127.590      100.156    14516.570    16279.284    10031.314        3.712        2.041      140.764       90.101        0.410      345.023       22.255      859.286
09/04/2014  12:06:00      100.584       50.695      138.304      124.236      176.077      105.037    15434.485    31003.075    11032.808        4.463        2.874      112.637      131.909        1.371      344.904       22.053      859.291
09/04/2014  12:07:00      151.301     -285.404      -31.510      113.068       93.666       67.463    12784.343     8773.227     4551.280        6.572        1.305      323.028       71.696        0.049      344.844       21.948      859.266
09/04/2014  12:08:00       65.132     -194.301       -9.411       80.103       80.318       50.477     6416.520     6450.939     2547.951        2.875        0.771      204.927       42.795        0.044      344.862       21.978      859.266
09/04/2014  12:09:00       34.604       61.782      118.993       72.606      103.850       70.457     5271.567    10784.920     4964.138        2.009        1.051       70.813       68.120        0.925      345.299       22.731      859.266
09/04/2014  12:10:00       89.028      -85.419       26.601       76.144       88.218       53.553     5797.879     7782.500     2867.881        1.619        0.822      123.379       57.160        0.215      344.921       22.081      859.279
09/04/2014  12:11:00      109.185       57.624       52.970       95.114      113.119       67.009     9046.617    12795.924     4490.229        2.218        1.317      123.458       62.488        0.256      344.787       21.851      859.268
09/04/2014  12:12:00       56.950       52.914       23.131       90.581       60.727       48.984     8204.840     3687.736     2399.426        1.043        0.715       77.738       36.601        0.222      345.273       22.685      859.246
09/04/2014  12:13:00       67.801      112.538        8.826       81.362       83.716       48.582     6619.699     7008.396     2360.175        1.666        0.799      131.384       40.016        0.093      345.147       22.468      859.203
09/04/2014  12:14:00       73.159       75.449        7.526       78.258       62.984       48.974     6124.255     3966.983     2398.414        1.179        0.624      105.094       23.104        0.048      345.415       22.929      859.181
09/04/2014  12:15:00      264.669      167.372       72.984      129.864       85.732       82.413    16864.650     7349.920     6791.886        6.719        1.550      313.151       66.250        0.045      345.235       22.618      859.161
09/04/2014  12:16:00      323.528      210.794       29.391      122.032       95.714       72.653    14891.898     9161.074     5278.453        8.964        1.467      386.141       47.899        0.015      344.899       22.043      859.147
09/04/2014  12:17:00      194.717      190.553      175.821      145.238      127.810      123.576    21093.952    16335.491    15271.004        7.891        2.635      272.443       85.739        0.099      345.039       22.282      859.153
09/04/2014  12:18:00      126.088      120.928      111.115      130.408      116.251      117.018    17006.362    13514.300    13693.312        4.353        2.211      174.705      101.750        0.339      345.058       22.316      859.143
09/04/2014  12:19:00       66.031       44.196      110.646      121.128      145.774       88.500    14671.927    21250.196     7832.283        3.115        2.188       79.456       94.035        1.401      345.264       22.669      859.129
09/04/2014  12:20:00      243.989      -92.632       73.998      174.422      153.460      102.923    30422.863    23549.925    10593.223        6.906        3.228      260.982      106.431        0.166      345.151       22.475      859.098
09/04/2014  12:21:00      137.081       17.586       86.451      152.009      124.856       83.451    23106.816    15589.085     6964.131        3.611        2.283      138.204       96.142        0.484      345.333       22.787      859.145
09/04/2014  12:22:00      106.788      -84.611       28.400       60.755      145.478       79.935     3691.142    21163.744     6389.549        2.530        1.562      136.245       98.662        0.524      344.948       22.127      859.150
09/04/2014  12:23:00      122.258       87.729       33.661       59.023       40.034       50.155     3483.761     1602.683     2515.474        1.569        0.380      150.477       19.312        0.016      344.862       21.982      859.131
09/04/2014  12:24:00      183.907      103.105       20.038       57.739       52.951       40.182     3333.776     2803.816     1614.620        2.630        0.388      210.837       16.438        0.006      345.084       22.360      859.130
09/04/2014  12:25:00       96.709       61.087       57.106       71.320       70.942       50.714     5086.579     5032.814     2571.959        1.452        0.635      114.386       20.300        0.031      345.303       22.736      859.137
09/04/2014  12:26:00       47.036      -18.569       20.693       43.983       69.627       41.103     1934.491     4847.854     1689.462        0.573        0.424       50.569       41.637        0.678      345.071       22.341      859.117
09/04/2014  12:27:00       68.690       50.565       96.990       89.501      104.082       81.301     8010.442    10833.026     6609.901        2.106        1.273       85.295       81.141        0.905      345.358       22.830      859.084
09/04/2014  12:28:00       66.940       62.522       78.815       89.560      113.972       82.528     8021.059    12989.568     6810.869        2.121        1.391       91.597       82.740        0.816      345.271       22.680      859.071
09/04/2014  12:29:00      155.538       52.266       69.429       81.064      112.845       69.610     6571.452    12734.054     4845.562        2.794        1.208      164.085       65.413        0.159      345.228       22.605      859.053
09/04/2014  12:30:00      101.271       33.147       17.421       57.291       74.357       51.402     3282.204     5529.025     2642.215        1.155        0.573      106.558       47.781        0.201      345.399       22.900      859.022
09/04/2014  12:31:00      111.101     -128.955        1.308      104.173      157.492       70.319    10852.024    24803.604     4944.736        3.478        2.030      170.214       87.417        0.264      345.645       23.321      859.008
09/04/2014  12:32:00       75.167      -24.477       57.076       87.352      116.698       72.606     7630.398    13618.391     5271.681        1.801        1.326       79.052       79.774        1.018      345.570       23.193      859.007
09/04/2014  12:33:00       71.652       56.768       31.397       56.873       64.068       45.107     3234.489     4104.768     2034.609        0.936        0.469       91.415       22.279        0.059      345.666       23.360      858.999
09/04/2014  12:34:00      234.384      115.224       53.279      199.443      127.058       95.897    39777.642    16143.745     9196.140        6.807        3.256      261.175       65.804        0.063      345.512       23.094      858.988
09/04/2014  12:35:00      334.455      168.077       41.996      188.880      113.049       77.949    35675.778    12780.143     6076.065        9.819        2.727      374.312       54.552        0.021      345.044       22.290      858.982
09/04/2014  12:36:00      157.438       94.419       57.034      140.345       88.900       72.198    19696.837     7903.275     5212.493        3.488        1.641      183.580       57.183        0.097      345.437       22.963      858.990
09/04/2014  12:37:00      213.482      123.233       41.830      105.020       83.353       52.292    11029.149     6947.769     2734.404        4.161        1.036      246.498       27.321        0.012      344.966       22.157      858.957
09/04/2014  12:38:00      258.854      153.071      116.107      170.631      112.898      101.053    29114.930    12745.850    10211.719        7.798        2.604      300.726       78.403        0.068      345.605       23.251      858.895
09/04/2014  12:39:00      253.834      195.881       53.340       98.041       58.565       76.538     9612.043     3429.893     5858.065        6.227        0.945      320.626       52.091        0.026      345.853       23.676      858.930
09/04/2014  12:40:00      155.488      116.705       71.702      170.001       88.137       71.362    28900.189     7768.150     5092.499        4.234        2.088      194.414       85.132        0.192      346.123       24.141      858.941
09/04/2014  12:41:00       51.659       88.618       67.699      113.074       64.641       50.340    12785.776     4178.475     2534.130        1.730        0.975      102.576       35.054        0.117      346.077       24.064      858.932
09/04/2014  12:42:00      302.157      195.141       33.861      118.537       77.497       73.893    14050.989     6005.831     5460.167        7.802        1.276      359.693       44.549        0.015      345.310       22.744      858.916
09/04/2014  12:43:00      144.039      107.671       21.064      117.370       96.951       71.736    13775.615     9399.457     5146.059        3.055        1.416      179.834       41.220        0.053      345.557       23.169      858.899
09/04/2014  12:44:00      263.607      151.373       33.979      126.502      103.755       77.460    16002.778    10765.001     6000.116        6.316        1.638      303.978       51.305        0.028      345.367       22.843      858.893
09/04/2014  12:45:00      160.751      104.387       35.655      139.801       86.092       98.446    19544.198     7411.775     9691.610        3.732        1.832      191.670       56.109        0.086      345.572       23.195      858.886
09/04/2014  12:46:00       77.031      132.041      122.393      136.643      121.153      123.439    18671.309    14678.058    15237.107        4.346        2.429      152.868      105.149        0.473      345.760       23.519      858.874
09/04/2014  12:47:00      235.550      151.423       74.273      113.620       94.636       82.714    12909.571     8955.891     6841.573        5.631        1.435      280.023       34.515        0.015      345.481       23.040      858.880
09/04/2014  12:48:00      154.091       84.239       57.620      112.220       72.001       71.833    12593.316     5184.147     5160.034        2.854        1.147      175.614       51.213        0.085      345.799       23.584      858.849
09/04/2014  12:49:00        2.367      -85.606        7.748       55.949      100.135       43.078     3130.309    10027.058     1855.675        1.120        0.751       85.639       50.683        0.350      346.056       24.028      858.844
09/04/2014  12:50:00       74.732      -35.175       53.164       61.486      139.403       64.777     3780.537    19433.079     4196.036        1.852        1.370       82.597       74.532        0.814      345.838       23.654      858.816
09/04/2014  12:51:00       68.745       78.953       86.652       81.454       77.169       61.658     6634.712     5955.094     3801.730        1.743        0.820      104.687       46.487        0.197      346.032       23.985      858.803
09/04/2014  12:52:00      128.613       95.543       44.940       76.104       56.337       53.699     5791.876     3173.855     2883.597        1.977        0.592      160.218       48.393        0.091      345.181       22.526      858.785
09/04/2014  12:53:00       20.899      -13.710        0.345       34.360       73.974       28.622     1180.629     5472.116      819.226        0.405        0.374       24.995       23.034        0.849      345.784       23.563      858.766
09/04/2014  12:54:00       48.993      -44.680       14.138       45.991       89.886       39.039     2115.195     8079.579     1524.051        0.816        0.586       66.307       41.975        0.401      346.041       24.003      858.749
09/04/2014  12:55:00       37.622        7.314       31.922       59.509       65.082       59.482     3541.321     4235.662     3538.101        0.690        0.566       38.326       42.672        1.240      346.228       24.326      858.749
09/04/2014  12:56:00       64.338      -45.920       44.848       85.620      105.105       70.873     7330.769    11047.081     5023.018        1.583        1.170       79.044       77.723        0.967      345.846       23.669      858.737
09/04/2014  12:57:00      126.641     -127.100       14.887      117.021      136.914       85.147    13693.805    18745.482     7249.981        3.604        1.984      179.422       87.414        0.237      346.008       23.946      858.704
09/04/2014  12:58:00      133.130      133.554       87.570      146.312      100.524       72.310    21407.326    10105.068     5228.668        3.998        1.837      188.575       67.067        0.126      346.429       24.667      858.688
09/04/2014  12:59:00       94.832       96.185      110.696      115.656      117.055      102.208    13376.287    13701.911    10446.374        3.400        1.876      135.073       94.395        0.488      345.804       23.594      858.724
09/04/2014  13:00:00      134.876       86.926       27.763      126.008      111.712       74.961    15878.089    12479.628     5619.154        3.024        1.699      160.461       43.118        0.072      345.669       23.364      858.714
09/04/2014  13:01:00       68.594      222.722      -12.647       80.901      125.654       60.404     6544.933    15789.013     3648.681        4.022        1.299      233.045       67.419        0.084      345.361       22.833      858.706
09/04/2014  13:02:00      139.347       93.898       22.273       59.566       48.332       45.256     3548.084     2335.954     2048.082        1.833        0.397      168.031       16.458        0.010      345.291       22.713      858.698
09/04/2014  13:03:00       88.088       97.322       19.494       60.464       48.562       53.627     3655.912     2358.255     2875.839        1.325        0.445      131.267       28.460        0.047      345.524       23.116      858.674
09/04/2014  13:04:00      118.759       84.191       48.405       74.901       80.756       86.773     5610.197     6521.485     7529.594        2.159        0.983      145.574       66.950        0.212      345.668       23.361      858.697
09/04/2014  13:05:00      192.234      193.606      180.187      134.171      151.641      109.227    18001.780    22994.921    11930.583        7.991        2.646      272.831      106.486        0.152      345.486       23.047      858.701
09/04/2014  13:06:00      221.750      151.066       95.080      125.452      132.016      119.402    15738.172    17428.208    14256.721        6.422        2.371      268.317       98.638        0.135      345.467       23.015      858.726
09/04/2014  13:07:00      113.722      133.496       85.453      101.742       59.944       65.973    10351.504     3593.288     4352.429        2.817        0.915      175.368       66.231        0.143      345.660       23.347      858.716
09/04/2014  13:08:00      158.534      106.426       31.976       60.960       47.758       52.353     3716.135     2280.865     2740.884        2.311        0.437      190.944       28.608        0.022      345.502       23.076      858.716
09/04/2014  13:09:00       75.168       23.379       98.578      109.627      163.511       86.096    12017.994    26735.902     7412.525        3.103        2.308       78.720      106.064        1.815      345.763       23.525      858.704
09/04/2014  13:10:00       71.334      -84.552       34.959       64.284       76.121       59.934     4132.461     5794.375     3592.101        1.349        0.676      110.624       58.788        0.282      345.494       23.065      858.700
09/04/2014  13:11:00      -31.852        4.731      -20.545       31.302       73.511       16.352      979.834     5403.797      267.395        0.405        0.333       32.201       12.416        0.149      345.255       22.656      858.660
09/04/2014  13:12:00       26.762       31.196       29.812       78.668       23.982       30.776     6188.617      575.158      947.148        0.514        0.386       41.102       28.807        0.491      345.740       23.487      858.639
09/04/2014  13:13:00       58.601       15.921       11.711       36.655       38.672       23.610     1343.624     1495.552      557.409        0.361        0.170       60.726       13.225        0.047      345.828       23.637      858.627
09/04/2014  13:14:00       97.948       82.331       15.090       73.452       44.144       44.181     5395.183     1948.687     1951.932        1.295        0.465      127.955       20.294        0.025      346.063       24.041      858.615
09/04/2014  13:15:00      126.062       95.750       10.416       51.437       24.888       34.314     2645.727      619.431     1177.427        1.480        0.222      158.303       26.438        0.028      345.377       22.864      858.629
09/04/2014  13:16:00       71.808       61.692        9.676       68.984       54.648       31.746     4758.750     2986.427     1007.799        0.890        0.438       94.669       16.855        0.032      345.588       23.226      858.624
09/04/2014  13:17:00      329.221      234.283       33.288      171.785      124.830       88.735    29510.196    15582.410     7873.914       10.866        2.648      404.073       75.027        0.034      345.655       23.337      858.599
09/04/2014  13:18:00      367.706      220.745       50.383      153.546      130.248       87.377    23576.515    16964.613     7634.794       11.732        2.409      428.878       56.937        0.018      345.557       23.170      858.573
09/04/2014  13:19:00      182.681      110.174       54.906      123.530       76.069       65.045    15259.666     5786.559     4230.853        3.690        1.264      213.333       42.919        0.040      345.850       23.673      858.599
09/04/2014  13:20:00      202.736      132.036       86.659      132.559      107.717       82.017    17571.878    11602.912     6726.869        5.097        1.795      241.941       61.232        0.064      346.293       24.432      858.585
09/04/2014  13:21:00      288.293      163.867       77.735      139.059      120.972      122.233    19337.525    14634.108    14940.922        8.245        2.446      331.610       89.812        0.073      345.710       23.432      858.590
09/04/2014  13:22:00      209.337      127.933       17.041       87.008       69.159       62.070     7570.435     4783.007     3852.640        3.834        0.810      245.335       28.428        0.013      345.444       22.975      858.605
09/04/2014  13:23:00       92.237       70.762       15.887       94.738       54.702       42.144     8975.270     2992.303     1776.110        1.375        0.687      116.254       26.412        0.052      345.915       23.786      858.598
09/04/2014  13:24:00        9.341       52.790       26.902       48.745       58.266       32.108     2376.080     3394.870     1030.956        0.520        0.340       53.610       34.436        0.413      345.874       23.717      858.566
09/04/2014  13:25:00      121.743       83.949       56.794       70.261       73.409       45.609     4936.660     5388.810     2080.152        1.875        0.620      147.881       22.785        0.024      345.743       23.492      858.552
09/04/2014  13:26:00       59.502       15.555       79.934       91.343      103.707       67.613     8343.539    10755.115     4571.555        1.692        1.184       61.502       65.499        1.134      346.384       24.592      858.534
09/04/2014  13:27:00       92.462       58.036       29.159       74.310       66.574       71.086     5521.997     4432.157     5053.250        1.388        0.750      109.167       49.541        0.206      346.220       24.311      858.543
09/04/2014  13:28:00      117.998      -19.986       47.412      101.611      123.040       79.982    10324.705    15138.870     6397.062        2.421        1.593      119.679       81.393        0.463      345.997       23.927      858.528
09/04/2014  13:29:00      228.901      141.088       80.599      192.525      131.037      103.292    37065.891    17170.603    10669.281        7.184        3.245      268.889       87.885        0.107      345.887       23.736      858.481
09/04/2014  13:30:00      229.764      175.774       16.444      106.224       78.100       76.944    11283.447     6099.674     5920.424        5.363        1.165      289.289       52.575        0.033      345.597       23.236      858.512
09/04/2014  13:31:00       88.952      107.299        6.033       95.531       73.158       47.724     9126.169     5352.070     2277.614        1.811        0.838      139.375       37.495        0.072      345.831       23.641      858.520
09/04/2014  13:32:00      207.174      118.158       44.834       91.583       76.108       50.890     8387.388     5792.489     2589.803        3.783        0.838      238.500       32.606        0.019      345.813       23.608      858.510
09/04/2014  13:33:00      227.352      177.038       17.209       81.327       64.516       55.909     6614.113     4162.306     3125.857        4.861        0.695      288.152       29.589        0.011      345.823       23.625      858.507
09/04/2014  13:34:00      104.121      187.289      -16.047       73.955      130.650       64.645     5469.365    17069.435     4179.005        3.644        1.336      214.286       73.729        0.118      345.699       23.415      858.494
09/04/2014  13:35:00       78.072      133.236       14.738       91.354      113.580       68.552     8345.588    12900.347     4699.357        2.500        1.297      154.425       64.855        0.176      346.037       23.994      858.472
09/04/2014  13:36:00       67.052      108.116       15.187       83.820       72.130       68.864     7025.864     5202.681     4742.230        1.669        0.849      127.221       45.496        0.128      345.983       23.903      858.455
09/04/2014  13:37:00       54.140      189.293      -12.677       64.004       85.910       60.129     4096.476     7380.465     3615.540        2.701        0.755      196.883       55.084        0.078      345.777       23.547      858.445
09/04/2014  13:38:00       94.301      102.329       17.119       98.854       92.481       55.405     9772.111     8552.710     3069.730        2.052        1.070      139.155       44.846        0.104      346.030       23.983      858.451
09/04/2014  13:39:00      148.058      112.352       75.459       85.385       55.897       71.768     7290.613     3124.491     5150.653        2.790        0.778      185.861       63.542        0.117      346.021       23.965      858.447
09/04/2014  13:40:00      188.189      176.129       28.692      205.448      121.153       61.673    42208.786    14678.140     3803.605        6.396        3.035      257.753       45.783        0.032      346.028       23.980      858.442
09/04/2014  13:41:00      316.034      204.221        4.392      148.617      106.356       79.389    22087.043    11311.667     6302.643        9.064        1.985      376.276       57.753        0.024      345.597       23.237      858.437
09/04/2014  13:42:00      101.582      127.329        1.459       86.965       76.509       55.536     7562.879     5853.686     3084.209        2.151        0.825      162.885       50.010        0.094      345.900       23.760      858.445
09/04/2014  13:43:00        4.082       91.595       -7.361       78.455       74.384       36.243     6155.115     5532.984     1313.576        1.073        0.650       91.685       38.331        0.175      346.067       24.048      858.403
09/04/2014  13:44:00      -26.450      130.708        1.826       53.074       95.958       46.138     2816.797     9207.895     2128.751        1.597        0.708      133.357       45.235        0.115      346.055       24.028      858.379
09/04/2014  13:45:00       60.958       49.341       16.301       59.310       38.511       41.222     3517.632     1483.116     1699.260        0.656        0.335       78.424       27.671        0.124      346.346       24.528      858.369
09/04/2014  13:46:00      215.016      166.816       27.918      149.858      100.927       76.189    22457.486    10186.171     5804.778        5.664        1.922      272.139       37.316        0.019      346.112       24.122      858.359
09/04/2014  13:47:00      203.976      119.252       20.780       87.429       84.867       57.922     7643.823     7202.417     3355.003        3.723        0.910      236.277       43.013        0.033      345.937       23.821      858.350
09/04/2014  13:48:00      112.051      100.320       47.100       47.655       39.910       54.234     2270.982     1592.839     2941.303        1.582        0.340      150.398       34.661        0.053      346.199       24.274      858.366
09/04/2014  13:49:00      132.465      121.313        6.109       99.185       97.106       57.304     9837.710     9429.642     3283.742        2.742        1.128      179.622       46.252        0.066      346.336       24.507      858.353
09/04/2014  13:50:00      165.563       84.910       26.177       90.902       80.785       57.576     8263.109     6526.137     3314.962        2.670        0.905      186.067       45.118        0.059      346.185       24.250      858.321
09/04/2014  13:51:00      115.655       85.329       80.821      126.044       75.670       83.117    15887.017     5725.911     6908.365        2.785        1.426      143.726       77.645        0.292      346.556       24.887      858.302
09/04/2014  13:52:00      283.492      168.911      111.312      130.447      104.699       94.089    17016.299    10961.852     8852.761        7.905        1.842      329.998       69.137        0.044      346.123       24.140      858.284
09/04/2014  13:53:00      164.768       97.108       53.476      128.977       80.682       66.593    16635.137     6509.566     4434.647        3.350        1.379      191.255       63.283        0.109      346.448       24.700      858.275
09/04/2014  13:54:00      126.764      151.693      116.516      108.527       92.898       79.614    11778.128     8630.082     6338.451        3.970        1.337      197.686       73.203        0.137      346.797       25.298      858.278
09/04/2014  13:55:00      115.539       94.043       87.266      121.846      111.739       66.650    14846.351    12485.528     4442.234        3.079        1.589      148.974       45.565        0.094      346.716       25.161      858.290
09/04/2014  13:56:00       66.803       22.040       12.496       57.504       71.073       37.128     3306.747     5051.317     1378.483        0.742        0.487       70.345       17.531        0.062      346.803       25.314      858.308
09/04/2014  13:57:00       60.381       37.481       27.317       49.986       46.615       40.096     2498.642     2172.957     1607.709        0.604        0.314       71.068       21.840        0.094      346.756       25.232      858.287
09/04/2014  13:58:00       46.360       17.567       13.720       63.404       71.595       30.347     4020.081     5125.822      920.913        0.635        0.503       49.576       23.030        0.216      346.531       24.846      858.268
09/04/2014  13:59:00       46.260      -30.919       21.279       62.291       75.380       40.018     3880.140     5682.163     1601.410        0.735        0.558       55.641       28.737        0.267      346.641       25.035      858.257
09/04/2014  14:00:00      107.053      140.590      133.833      100.336      120.212       99.782    10067.318    14450.870     9956.542        4.180        1.724      176.708       89.394        0.256      346.599       24.959      858.262
09/04/2014  14:01:00      319.612      207.778      102.721      155.021      106.921      107.223    24031.419    11432.009    11496.819       10.141        2.348      381.213       92.763        0.059      346.028       23.978      858.244
09/04/2014  14:02:00      313.715      161.901       82.925      123.754      106.281       93.295    15314.953    11295.564     8703.979        8.340        1.766      353.029       67.940        0.037      345.961       23.863      858.259
09/04/2014  14:03:00      217.340       79.148       48.065      124.799      108.558       77.858    15574.912    11784.792     6061.834        4.461        1.671      231.302       40.074        0.030      346.209       24.290      858.284
09/04/2014  14:04:00      216.680      187.149      161.972      138.450      109.684       98.923    19168.346    12030.548     9785.749        7.459        2.049      286.312       85.631        0.089      346.109       24.116      858.268
09/04/2014  14:05:00      218.040      118.648      113.207      128.760      114.731       91.207    16579.229    13163.175     8318.627        5.624        1.903      248.231       77.746        0.098      346.086       24.077      858.255
09/04/2014  14:06:00      264.431      175.840       60.480      145.101       98.759       73.119    21054.283     9753.350     5346.353        7.032        1.808      317.559       39.936        0.016      346.042       24.002      858.270
09/04/2014  14:07:00      144.727      130.583       17.907      130.166       97.866       82.684    16943.252     9577.804     6836.595        3.583        1.668      194.930       66.034        0.115      345.982       23.899      858.274
09/04/2014  14:08:00       53.228      181.131      -15.161       77.636       87.725       51.307     6027.276     7695.762     2632.378        2.611        0.818      188.790       53.005        0.079      345.908       23.773      858.265
09/04/2014  14:09:00       39.986      120.896        6.830       73.133      162.558       55.521     5348.429    26425.079     3082.590        2.555        1.743      127.338       34.651        0.074      346.154       24.196      858.239
09/04/2014  14:10:00      242.290       46.103       62.141      143.176      216.512       89.802    20499.482    46877.639     8064.472        7.005        3.772      246.637       84.013        0.116      346.241       24.344      858.193
09/04/2014  14:11:00      282.771      175.880       24.163      133.626       83.623       63.951    17855.843     6992.766     4089.779        7.020        1.447      333.007       40.801        0.015      345.785       23.561      858.226
09/04/2014  14:12:00       63.660       77.702       10.580       81.406       53.412       40.368     6627.018     2852.833     1629.547        1.065        0.555      100.450       34.886        0.121      345.990       23.915      858.216
09/04/2014  14:13:00      178.817      158.085       94.626      128.661      115.689      114.295    16553.541    13383.961    13063.354        5.445        2.150      238.676       91.234        0.146      345.937       23.822      858.200
09/04/2014  14:14:00       86.401      108.849        2.157       89.197       77.954       53.477     7956.180     6076.866     2859.773        1.810        0.845      138.972       49.172        0.125      346.058       24.032      858.204
09/04/2014  14:15:00       26.285       93.652       -3.256       30.759       78.456       34.061      946.095     6155.420     1160.179        0.887        0.413       97.271       36.612        0.142      346.229       24.326      858.193
09/04/2014  14:16:00      175.475      105.899       38.112       91.242       78.090       53.384     8325.086     6098.011     2849.843        3.036        0.864      204.954       36.391        0.032      346.372       24.570      858.192
09/04/2014  14:17:00      187.759      144.640        8.084      110.909       90.633       65.874    12300.744     8214.262     4339.433        4.054        1.243      237.010       56.621        0.057      346.240       24.343      858.182
09/04/2014  14:18:00       65.862      221.275      -17.050       74.251      104.297       63.969     5513.146    10877.762     4091.992        3.703        1.024      230.869       52.502        0.052      346.119       24.134      858.144
09/04/2014  14:19:00      205.019      144.973       42.866      125.001       86.682       63.129    15625.148     7513.749     3985.328        4.600        1.356      251.097       42.142        0.028      346.261       24.379      858.134
09/04/2014  14:20:00      211.325      118.978       28.499      112.653       82.329       65.438    12690.647     6778.014     4282.150        4.168        1.188      242.516       45.881        0.036      346.594       24.950      858.098
09/04/2014  14:21:00      160.707       97.203        7.231       81.717       66.256       60.178     6677.706     4389.863     3621.416        2.501        0.734      187.817       23.646        0.016      346.695       25.127      858.095
09/04/2014  14:22:00      200.037      159.408       25.725      106.900       82.850       77.152    11427.660     6864.176     5952.412        4.516        1.212      255.785       48.189        0.035      346.482       24.757      858.106
09/04/2014  14:23:00       75.959      106.210      116.464      106.944       72.954       63.546    11437.030     5322.316     4038.082        2.570        1.040      130.577       61.054        0.219      346.952       25.568      858.082
09/04/2014  14:24:00      128.457      131.896      102.961      183.518      102.212       86.022    33678.964    10447.235     7399.826        4.800        2.576      184.114       75.037        0.166      346.503       24.797      858.063
09/04/2014  14:25:00      220.017      144.644       85.501       98.870       97.999      100.783     9775.183     9603.853    10157.201        5.308        1.477      263.305       69.465        0.070      346.264       24.382      858.062
09/04/2014  14:26:00      134.785       31.048       85.703       89.116      120.668       77.745     7941.662    14560.792     6044.274        2.751        1.427      138.314       84.094        0.370      346.388       24.596      858.058
09/04/2014  14:27:00      146.866     -243.851      -24.049       84.099       74.923       51.324     7072.715     5613.456     2634.159        4.846        0.766      284.663       39.874        0.020      346.401       24.617      858.027
09/04/2014  14:28:00      144.453      -32.323       64.697       88.898      105.975       73.074     7902.885    11230.787     5339.784        2.528        1.224      148.026       53.899        0.133      346.803       25.312      858.026
09/04/2014  14:29:00      226.151      123.091       74.320      152.981      100.996      102.387    23403.267    10200.182    10483.125        5.794        2.204      257.480       81.391        0.100      346.516       24.818      858.044
09/04/2014  14:30:00       58.032       66.247       39.437       73.664       68.726       63.190     5426.439     4723.303     3992.945        1.172        0.707       88.070       43.090        0.239      346.608       24.978      858.059
09/04/2014  14:31:00      197.290      153.723       19.588       82.609       64.058       64.336     6824.217     4103.482     4139.083        3.900        0.753      250.108       45.322        0.033      346.290       24.427      858.058
09/04/2014  14:32:00       77.222      149.489       -5.820       70.812       84.456       65.771     5014.350     7132.745     4325.856        2.241        0.824      168.256       52.926        0.099      346.265       24.385      858.038
09/04/2014  14:33:00       58.454      182.196        9.576      110.698      115.285       72.268    12254.052    13290.697     5222.716        3.373        1.538      191.343       69.559        0.132      346.290       24.428      858.026
09/04/2014  14:34:00       30.160      185.921       -7.286       79.471      130.968       56.543     6315.704    17152.541     3197.072        3.109        1.333      188.351       72.177        0.147      346.355       24.542      857.989
09/04/2014  14:35:00      -19.913       72.352       -7.865       66.501       58.683       40.019     4422.365     3443.738     1601.504        0.758        0.473       75.042       39.989        0.284      346.465       24.731      857.963
09/04/2014  14:36:00       68.636      136.797       10.861      120.007      133.895       60.405    14401.724    17927.790     3648.809        2.975        1.799      153.050       51.610        0.114      346.977       25.611      857.939
09/04/2014  14:37:00      106.428      134.712       43.402       98.994       71.121       89.084     9799.814     5058.189     7935.983        2.707        1.140      171.681       62.835        0.134      347.076       25.780      857.939
09/04/2014  14:38:00       72.435       38.844       65.283      113.315       89.485       60.629    12840.242     8007.623     3675.888        1.777        1.226       82.192       60.424        0.540      346.974       25.608      857.910
09/04/2014  14:39:00       85.716       54.039       36.168       89.446       66.734       53.693     8000.600     4453.397     2882.958        1.345        0.767      101.328       36.572        0.130      346.785       25.280      857.908
09/04/2014  14:40:00      114.891       74.654       65.018      113.669       75.322       67.604    12920.581     5673.360     4570.348        2.308        1.158      137.015       62.546        0.208      346.589       24.943      857.895
09/04/2014  14:41:00      217.965      137.297       44.173      117.699       64.607       65.541    13853.067     4174.126     4295.658        4.531        1.116      257.603       38.068        0.022      346.446       24.697      857.899
09/04/2014  14:42:00      199.210      171.788       41.311      163.070      110.080       96.907    26591.816    12117.525     9390.881        5.949        2.405      263.051       58.631        0.050      346.496       24.783      857.884
09/04/2014  14:43:00      397.695      232.857       50.887      167.869      112.474       97.390    28180.075    12650.313     9484.858       13.263        2.516      460.851       45.459        0.010      346.417       24.645      857.863
09/04/2014  14:44:00      375.935      223.868       48.615      135.255      120.455       91.753    18293.896    14509.460     8418.679       11.751        2.061      437.543       77.378        0.031      346.303       24.450      857.867
09/04/2014  14:45:00      341.275      175.711       56.753       96.852       90.697       75.904     9380.281     8226.012     5761.486        8.696        1.168      383.852       54.987        0.021      346.363       24.552      857.887
09/04/2014  14:46:00      225.218      122.075       44.994      100.054       86.504       81.270    10010.892     7482.886     6604.734        4.587        1.205      256.174       32.364        0.016      346.560       24.892      857.908
09/04/2014  14:47:00       83.724      116.899       -2.602      117.030       80.790       54.728    13695.936     6527.003     2995.189        2.195        1.161      143.788       44.690        0.097      346.715       25.161      857.907
09/04/2014  14:48:00        8.730      185.622      -26.921       47.350       65.609       34.257     2242.015     4304.549     1173.523        2.149        0.386      185.828       34.002        0.033      346.338       24.512      857.865
09/04/2014  14:49:00       55.611      117.343      -19.448       49.843       63.882       29.047     2484.338     4080.847      843.711        1.232        0.370      129.854       27.970        0.046      346.228       24.324      857.859
09/04/2014  14:50:00      134.520       79.095       52.807       81.317       50.090       48.753     6612.437     2509.055     2376.831        1.932        0.575      156.050       34.410        0.049      346.610       24.981      857.862
09/04/2014  14:51:00      169.459      104.692       32.466      143.684       73.830       50.149    20645.195     5450.923     2514.962        3.467        1.431      199.190       38.723        0.038      346.650       25.048      857.867
09/04/2014  14:52:00      210.147      114.032       15.270      151.500       92.580       77.373    22952.357     8571.149     5986.625        4.745        1.876      239.092       49.689        0.043      346.550       24.874      857.846
09/04/2014  14:53:00      143.734       98.487       42.543       85.333       71.624       52.579     7281.671     5129.927     2764.592        2.367        0.759      174.239       33.497        0.037      346.779       25.268      857.834
09/04/2014  14:54:00      128.520      112.033       69.763       96.090       70.733       62.161     9233.373     5003.161     3863.949        2.601        0.905      170.496       50.892        0.089      346.810       25.324      857.819
09/04/2014  14:55:00      170.912       58.692       53.110       99.077       79.152       58.826     9816.314     6265.111     3460.448        2.751        0.977      180.709       51.920        0.083      346.807       25.318      857.787
09/04/2014  14:56:00      121.370       70.903       38.410       69.925       61.448       49.324     4889.574     3775.810     2432.858        1.616        0.555      140.563       27.707        0.039      347.142       25.896      857.791
09/04/2014  14:57:00      213.553      129.376       46.816      113.555       79.054       68.064    12894.702     6249.586     4632.711        4.415        1.189      249.686       42.708        0.029      346.861       25.408      857.790
09/04/2014  14:58:00      114.881       59.090       48.740       76.135       68.385       42.524     5796.532     4676.486     1808.326        1.567        0.614      129.187       35.388        0.075      346.986       25.626      857.782
09/04/2014  14:59:00      103.560      101.771       18.540      100.645       79.961       59.123    10129.510     6393.834     3495.528        2.072        1.001      145.196       43.989        0.092      346.748       25.217      857.769
09/04/2014  15:00:00      173.784       79.606       25.716      107.791       72.342       62.731    11618.901     5233.318     3935.164        2.899        1.039      191.149       33.314        0.030      346.726       25.179      857.750
09/04/2014  15:01:00      181.010      129.098       19.282       69.671       64.956       60.896     4854.041     4219.254     3708.374        3.129        0.639      222.330       36.839        0.027      346.623       25.000      857.742
09/04/2014  15:02:00      114.747       77.653       32.955       80.254       53.272       41.296     6440.710     2837.913     1705.388        1.563        0.549      138.552       23.960        0.030      346.517       24.820      857.744
09/04/2014  15:03:00       76.678       78.852       76.018       80.875       55.859       42.874     6540.761     3120.221     1838.151        1.469        0.575      109.987       48.673        0.196      346.728       25.183      857.746
09/04/2014  15:04:00       96.199       94.801       46.374       57.246       30.583       40.347     3277.103      935.296     1627.917        1.311        0.292      135.060       23.432        0.030      346.605       24.972      857.745
09/04/2014  15:05:00      163.657       93.977       21.595       97.428       55.970       46.784     9492.144     3132.628     2188.769        2.544        0.741      188.720       28.588        0.023      346.805       25.314      857.756
09/04/2014  15:06:00      173.751      123.679       29.208       68.891       82.691       68.584     4745.913     6837.797     4703.733        3.131        0.814      213.275       42.764        0.040      347.028       25.697      857.744
09/04/2014  15:07:00      165.658      103.905       83.539      132.310      103.793       79.540    17505.914    10773.056     6326.631        3.990        1.730      195.548       74.734        0.146      346.855       25.399      857.728
09/04/2014  15:08:00      246.925      128.504       39.232      134.744      116.526       64.816    18155.820    13578.342     4201.142        5.747        1.797      278.361       45.392        0.027      346.549       24.875      857.740
09/04/2014  15:09:00      235.668      144.755       82.343      135.723      112.938       87.695    18420.676    12755.021     7690.358        6.106        1.943      276.574       66.131        0.057      346.608       24.974      857.738
09/04/2014  15:10:00      227.055      127.336       61.806      151.485      113.681       97.494    22947.655    12923.477     9504.996        5.847        2.269      260.323       97.891        0.141      346.508       24.801      857.735
09/04/2014  15:11:00      245.604      161.232       24.414       83.153       64.536       63.546     6914.479     4164.837     4038.150        5.101        0.756      293.798       38.980        0.018      346.429       24.665      857.742
09/04/2014  15:12:00      158.808      136.406       35.968       89.433       65.420       63.562     7998.309     4279.800     4040.073        3.072        0.816      209.348       22.694        0.012      346.539       24.856      857.745
09/04/2014  15:13:00       82.646      145.815        4.782       84.908       68.779       50.134     7209.336     4730.537     2513.454        2.128        0.723      167.608       34.936        0.043      346.579       24.926      857.729
09/04/2014  15:14:00       84.071       76.185       24.773       92.398       61.124       39.788     8537.418     3736.175     1583.050        1.367        0.693      113.456       23.807        0.044      346.719       25.167      857.701
09/04/2014  15:15:00       56.171       69.275       58.826       58.785       55.466       54.847     3455.663     3076.483     3008.217        1.048        0.477       89.187       43.511        0.238      346.861       25.412      857.671
09/04/2014  15:16:00      234.913      124.104       49.051      110.549       80.147       76.455    12221.039     6423.475     5845.402        4.874        1.224      265.680       52.282        0.039      346.863       25.412      857.680
09/04/2014  15:17:00      274.027      166.291       42.622      114.264      127.934       65.146    13056.181    16367.006     4244.047        6.911        1.683      320.536       57.174        0.032      346.686       25.109      857.668
09/04/2014  15:18:00      130.253       86.257       32.219       97.340       63.654       51.398     9475.079     4051.847     2641.781        2.080        0.808      156.225       27.690        0.031      346.676       25.092      857.656
09/04/2014  15:19:00      118.687       64.599       47.821       92.037       76.929       56.951     8470.733     5918.136     3243.425        1.909        0.882      135.129       39.510        0.085      346.811       25.325      857.622
09/04/2014  15:20:00      264.032      173.991       58.796       97.766       68.893       43.524     9558.095     4746.237     1894.373        5.982        0.810      316.205       34.049        0.012      346.626       25.006      857.585
09/04/2014  15:21:00      118.934       77.467       20.923       49.980       57.079       44.900     2497.962     3257.989     2016.041        1.418        0.389      141.939        7.893        0.003      346.565       24.904      857.583
09/04/2014  15:22:00      168.152      130.337        4.511      116.367       74.510       62.892    13541.377     5551.774     3955.355        3.416        1.152      212.751       39.502        0.034      346.803       25.309      857.570
09/04/2014  15:23:00      182.463      193.418       -3.644      146.263       85.050       65.998    21392.893     7233.484     4355.676        5.184        1.649      265.901       44.669        0.028      346.942       25.549      857.559
09/04/2014  15:24:00       74.080      109.587        9.741       78.181       80.729       49.646     6112.311     6517.243     2464.754        1.634        0.755      132.277       36.363        0.076      347.150       25.911      857.567
09/04/2014  15:25:00       91.584      105.550       68.734       73.237       69.296       68.090     5363.640     4801.948     4636.186        1.952        0.740      139.744       44.188        0.100      347.230       26.047      857.560
09/04/2014  15:26:00      154.360      106.981       50.243      124.815       96.349       71.074    15578.835     9283.113     5051.506        3.385        1.496      187.809       57.092        0.092      346.816       25.333      857.565
09/04/2014  15:27:00      104.045       51.994       17.190       80.744       58.413       47.341     6519.561     3412.102     2241.125        1.300        0.609      116.313       38.760        0.111      346.648       25.049      857.546
09/04/2014  15:28:00      111.137       83.853       19.738      100.004       66.170       47.022    10000.817     4378.485     2211.029        1.818        0.830      139.222       32.910        0.056      346.916       25.506      857.535
09/04/2014  15:29:00      181.796      111.059       15.000      106.703       85.908       63.541    11385.546     7380.134     4037.477        3.420        1.140      213.035       29.282        0.019      346.889       25.460      857.547
09/04/2014  15:30:00      124.783       92.444       20.602       57.472       48.710       42.435     3303.086     2372.638     1800.735        1.601        0.374      155.296       24.139        0.024      346.659       25.064      857.544
09/04/2014  15:31:00       36.270      146.444       -4.552       64.896       89.871       40.472     4211.456     8076.746     1638.001        1.835        0.696      150.869       37.942        0.063      346.759       25.237      857.534
09/04/2014  15:32:00       76.584       54.910      -11.424       39.827       32.071       32.845     1586.188     1028.568     1078.811        0.635        0.185       94.235       23.247        0.061      346.687       25.112      857.501
09/04/2014  15:33:00       67.364       84.541       -0.429       59.177       49.738       37.871     3501.963     2473.864     1434.209        0.955        0.371      108.098       27.852        0.066      346.943       25.554      857.465
09/04/2014  15:34:00      143.879       83.842       13.402       92.258       69.125       54.612     8511.515     4778.302     2982.458        2.209        0.814      166.525       32.671        0.038      346.970       25.598      857.454
09/04/2014  15:35:00      288.238      174.193       35.918      152.469      125.945       76.951    23246.739    15862.032     5921.448        7.986        2.252      336.785       45.262        0.018      346.991       25.635      857.463
09/04/2014  15:36:00      332.167      209.490       50.690      132.265      103.981      100.947    17493.910    10812.041    10190.279        9.764        1.925      392.710       54.056        0.019      346.827       25.351      857.472
09/04/2014  15:37:00      240.590      201.076       26.852      143.897       95.194       79.995    20706.448     9061.849     6399.214        6.759        1.808      313.553       61.126        0.038      346.604       24.969      857.487
09/04/2014  15:38:00       98.344      100.328       18.377      104.446       80.300       56.572    10909.051     6448.113     3200.394        2.031        1.028      140.489       42.526        0.092      346.889       25.460      857.487
09/04/2014  15:39:00       80.179      113.466        1.846       81.444       72.182       61.737     6633.171     5210.220     3811.424        1.748        0.783      138.936       45.662        0.108      346.856       25.405      857.474
09/04/2014  15:40:00      193.086      122.031       17.290       85.325       70.512       44.270     7280.358     4971.974     1959.843        3.334        0.711      228.416        8.697        0.001      346.853       25.395      857.468
09/04/2014  15:41:00      168.030      139.374       18.333      123.547      109.687       76.685    15263.768    12031.333     5880.539        4.058        1.659      218.310       61.694        0.080      346.993       25.638      857.461
09/04/2014  15:42:00      217.834      142.665       43.182      138.560      104.244       68.065    19198.830    10866.829     4632.899        5.218        1.735      260.394       64.197        0.061      346.960       25.581      857.456
09/04/2014  15:43:00      115.438      137.283        9.140       99.132      107.192       80.958     9827.197    11490.106     6554.147        3.006        1.394      179.367       71.398        0.158      346.879       25.442      857.478
09/04/2014  15:44:00       91.141      136.976        6.901       95.076       88.854       63.079     9039.427     7894.945     3978.982        2.401        1.046      164.527       59.528        0.131      346.778       25.269      857.483
09/04/2014  15:45:00       20.848      146.700       -7.807       58.602       89.596       47.100     3434.170     8027.362     2218.408        1.785        0.684      148.174       35.307        0.057      346.848       25.390      857.472
09/04/2014  15:46:00      -24.847      187.399      -32.430       52.669       51.832       32.162     2774.064     2686.577     1034.380        2.164        0.325      189.039       21.323        0.013      346.623       25.003      857.458
09/04/2014  15:47:00      -24.275      141.710      -23.504       33.359       35.299       16.865     1112.790     1245.997      284.429        1.193        0.132      143.774       11.185        0.006      346.614       24.989      857.437
09/04/2014  15:48:00       51.946      117.003       -8.882       52.632       82.426       41.278     2770.098     6793.964     1703.905        1.387        0.563      128.016       50.081        0.153      346.778       25.270      857.448
09/04/2014  15:49:00      -20.518      117.577       -9.505       31.338       68.668       26.630      982.067     4715.281      709.165        1.037        0.320      119.353       17.143        0.021      346.965       25.590      857.431
09/04/2014  15:50:00       10.452       58.164       12.096       35.123       50.987       28.854     1233.660     2599.725      832.544        0.415        0.233       59.095       28.150        0.227      347.063       25.761      857.419
09/04/2014  15:51:00      117.782       33.820       31.706       71.018       43.669       35.632     5043.568     1906.985     1269.628        1.212        0.411      122.542       23.509        0.037      347.061       25.759      857.433
09/04/2014  15:52:00       13.360       77.334       -4.876       53.579       63.146       26.720     2870.728     3987.475      713.942        0.688        0.379       78.480       34.511        0.193      346.946       25.561      857.450
09/04/2014  15:53:00       42.675       61.067        3.857       42.800       30.346       45.862     1831.836      920.855     2103.293        0.521        0.243       74.500       16.643        0.050      346.983       25.624      857.436
09/04/2014  15:54:00      118.073       98.580       45.007       85.266       48.639       48.152     7270.375     2365.741     2318.616        1.882        0.598      153.816       44.924        0.085      347.320       26.201      857.432
09/04/2014  15:55:00      102.652       94.018        5.340       57.424       71.637       48.263     3297.571     5131.908     2329.292        1.508        0.538      139.200       33.046        0.056      347.099       25.821      857.447
09/04/2014  15:56:00       66.699      120.086       -3.457       84.920       78.316       56.885     7211.410     6133.447     3235.875        1.773        0.829      137.366       44.713        0.106      347.006       25.662      857.451
09/04/2014  15:57:00       63.149      169.000       -1.820      101.885       66.077       55.502    10380.642     4366.170     3080.443        2.519        0.891      180.413       42.641        0.056      346.785       25.281      857.461
09/04/2014  15:58:00       85.170      100.220        6.952       63.777       54.792       41.328     4067.562     3002.176     1707.973        1.306        0.439      131.522       31.628        0.058      346.854       25.400      857.471
09/04/2014  15:59:00       72.466       61.283       23.784       71.475       34.149       26.246     5108.651     1166.127      688.850        0.827        0.348       94.904       14.593        0.024      347.003       25.658      857.450
09/04/2014  16:00:00       34.878       30.921        2.666       51.831       40.864       25.825     2686.434     1669.854      666.923        0.360        0.251       46.611       10.193        0.048      346.907       25.491      857.442
09/04/2014  16:01:00      146.396      104.497        3.725       90.668       62.225       48.494     8220.756     3871.907     2351.677        2.340        0.722      179.865       35.394        0.039      346.904       25.486      857.455
09/04/2014  16:02:00       90.195       76.672        8.383       59.533       60.326       44.016     3544.120     3639.249     1937.386        1.160        0.456      118.380       24.627        0.043      346.844       25.382      857.461
09/04/2014  16:03:00       78.151       39.020       14.080       62.307       36.130       30.570     3882.190     1305.374      934.551        0.697        0.306       87.350       27.200        0.097      347.091       25.809      857.460
09/04/2014  16:04:00      190.288      115.627        3.607       89.517       67.394       51.366     8013.274     4542.009     2638.501        3.239        0.760      222.664       33.137        0.022      346.915       25.504      857.446
09/04/2014  16:05:00       55.412       46.540       -6.159       44.577       38.814       32.264     1987.106     1506.554     1040.972        0.490        0.227       72.363       26.407        0.133      347.108       25.839      857.435
09/04/2014  16:06:00       -6.940       87.004      -17.795       24.412       23.063       14.861      595.922      531.923      220.840        0.464        0.067       87.280        8.433        0.009      347.131       25.879      857.429
09/04/2014  16:07:00      -39.957      162.361      -28.020       31.159       61.834       24.947      970.891     3823.430      622.346        1.708        0.271      167.206       24.523        0.022      346.884       25.452      857.429
09/04/2014  16:08:00      -34.606       76.792       -1.380       36.457       36.022       31.122     1329.105     1297.620      968.569        0.535        0.180       84.229       29.260        0.121      347.092       25.810      857.427
09/04/2014  16:09:00       54.410      -41.843       -9.324       48.071      104.127       27.899     2310.823    10842.496      778.373        0.936        0.697       68.639       29.605        0.186      347.136       25.886      857.418
09/04/2014  16:10:00       27.335     -106.972       -3.665       44.216       68.144       30.190     1955.051     4643.617      911.420        0.986        0.376      110.410       32.735        0.088      347.336       26.231      857.407
09/04/2014  16:11:00        5.760      -63.561       40.127       61.661       75.045       55.921     3802.060     5631.733     3127.164        0.912        0.628       63.822       46.767        0.537      347.494       26.505      857.399
09/04/2014  16:12:00       -5.753       22.389       62.235       25.227       59.558       40.185      636.391     3547.136     1614.804        0.510        0.290       23.116       41.162        3.171      347.770       26.981      857.382
09/04/2014  16:13:00       58.060      -16.907       23.221       72.417      112.891       63.335     5244.279    12744.402     4011.284        1.309        1.100       60.471       44.831        0.550      347.349       26.254      857.391
09/04/2014  16:14:00      182.091       94.499       42.348       84.924       84.531       63.142     7212.150     7145.530     3986.872        3.111        0.917      205.152       40.485        0.039      347.267       26.110      857.402
09/04/2014  16:15:00      118.339       62.818       24.168       65.971       52.468       38.633     4352.198     2752.916     1492.503        1.356        0.430      133.979       30.648        0.052      347.071       25.775      857.404
09/04/2014  16:16:00       -5.920       24.808       33.672       37.831       33.216       37.992     1431.211     1103.291     1443.403        0.288        0.199       25.505       30.650        1.444      347.469       26.461      857.395
09/04/2014  16:17:00        9.637       25.263        8.926       22.866       68.112       21.567      522.834     4639.304      465.136        0.322        0.281       27.039       20.048        0.550      347.339       26.236      857.399
09/04/2014  16:18:00      -22.709       99.329      -21.978       18.867       21.637       17.267      355.949      468.139      298.150        0.599        0.056      101.892       13.462        0.017      346.818       25.339      857.397
09/04/2014  16:19:00        0.289       43.144       -1.992       15.805       28.134       32.278      249.787      791.548     1041.838        0.197        0.104       43.145       13.098        0.092      347.049       25.736      857.405
09/04/2014  16:20:00       14.429       22.806       12.970       14.000       22.141       13.831      195.998      490.243      191.308        0.089        0.044       26.987        5.586        0.043      347.134       25.882      857.403
09/04/2014  16:21:00       19.492       45.182       15.173       36.490       41.456       25.942     1331.498     1718.579      673.011        0.319        0.186       49.207       21.245        0.186      347.162       25.932      857.410
09/04/2014  16:22:00       18.061      -72.785      -11.673       42.287       42.258       30.701     1788.186     1785.707      942.542        0.514        0.226       74.992       22.403        0.089      347.057       25.751      857.412
09/04/2014  16:23:00       55.249       33.797        2.710       26.374       33.466       39.952      695.611     1119.975     1596.172        0.381        0.171       64.767       21.350        0.109      346.987       25.629      857.413
09/04/2014  16:24:00        7.302       34.552       -1.025       23.876       35.376       21.063      570.069     1251.496      443.646        0.176        0.113       35.315       10.169        0.083      347.108       25.837      857.425
09/04/2014  16:25:00       10.794       72.349      -18.521       48.310       70.012       33.264     2333.902     4901.632     1106.501        0.702        0.417       73.149       32.860        0.202      347.205       26.006      857.420
09/04/2014  16:26:00       49.651       44.465        2.837       30.405       66.161       36.303      924.453     4377.252     1317.898        0.553        0.331       66.651       25.857        0.151      347.055       25.746      857.397
09/04/2014  16:27:00       44.602      175.388      -13.178       75.941      112.219       60.956     5767.049    12593.078     3715.679        2.750        1.104      180.970       60.191        0.111      347.347       26.248      857.374
09/04/2014  16:28:00       63.679       54.188       39.945       75.548       93.236       52.968     5707.449     8693.016     2805.624        1.289        0.860       83.615       27.903        0.111      347.465       26.452      857.392
09/04/2014  16:29:00       68.720       60.857       59.253       76.598       66.437       53.618     5867.276     4413.843     2874.843        1.254        0.658       91.793       38.097        0.172      347.534       26.573      857.404
09/04/2014  16:30:00      271.573      163.513       40.376       79.745       81.086       62.383     6359.303     6574.903     3891.618        5.947        0.841      316.999       39.374        0.015      347.095       25.814      857.405
09/04/2014  16:31:00      275.915      212.038       29.205      128.651       87.434       82.749    16551.198     7644.739     6847.422        7.649        1.552      347.978       60.528        0.030      347.142       25.893      857.391
09/04/2014  16:32:00      158.863      117.147       62.876      105.919       79.537       69.095    11218.733     6326.157     4774.169        3.261        1.116      197.385       66.610        0.114      347.184       25.966      857.412
09/04/2014  16:33:00       56.164       20.661       11.925       69.234       49.225       36.905     4793.297     2423.056     1362.005        0.615        0.429       59.844       35.209        0.346      347.521       26.551      857.428
09/04/2014  16:34:00       38.286       36.302       31.211       42.896       49.166       42.130     1840.093     2417.307     1774.933        0.489        0.302       52.761       34.025        0.416      347.466       26.455      857.411
09/04/2014  16:35:00      116.471       41.666        9.517       86.534       64.066       53.217     7488.198     4104.453     2832.001        1.491        0.721      123.699       31.966        0.067      347.107       25.836      857.408
09/04/2014  16:36:00      153.896       82.654       14.824      100.484       62.614       34.983    10096.989     3920.512     1223.842        2.299        0.762      174.687       14.163        0.007      347.202       25.997      857.404
09/04/2014  16:37:00      224.605      128.516       28.576       84.427       74.740       61.479     7127.931     5586.024     3779.658        4.213        0.825      258.774       30.237        0.014      347.145       25.899      857.387
09/04/2014  16:38:00      172.185      136.018       42.861      110.121       78.181       82.103    12126.599     6112.332     6740.945        3.748        1.249      219.428       38.171        0.030      347.194       25.983      857.373
09/04/2014  16:39:00      225.070      126.693       14.350       92.165       70.024       64.901     8494.366     4903.299     4212.189        4.226        0.880      258.278       41.765        0.026      347.088       25.799      857.375
09/04/2014  16:40:00      103.409      102.004      119.319      102.825      107.996       69.476    10573.047    11663.196     4826.947        3.119        1.353      145.252       62.089        0.183      347.360       26.270      857.372
09/04/2014  16:41:00      159.762      -31.184       54.190       94.143      104.896       68.373     8862.933    11003.200     4674.859        2.698        1.227      162.777       54.889        0.114      347.353       26.258      857.366
09/04/2014  16:42:00       46.826       55.739       76.174       83.104       88.928       51.086     6906.309     7908.100     2609.757        1.426        0.871       72.797       42.297        0.338      347.453       26.432      857.350
09/04/2014  16:43:00       81.110      -58.797       41.894       84.721      107.910       64.309     7177.702    11644.609     4135.694        1.737        1.148      100.179       79.918        0.636      347.245       26.072      857.342
09/04/2014  16:44:00       93.320     -148.353        7.459       63.889       76.209       41.049     4081.796     5807.816     1685.031        2.117        0.579      175.263       51.564        0.087      347.069       25.769      857.342
09/04/2014  16:45:00       82.335     -172.639      -13.698       48.248       71.994       24.844     2327.849     5183.202      617.229        2.245        0.406      191.267       16.661        0.008      347.130       25.874      857.338
09/04/2014  16:46:00       63.599     -133.612      -10.084       30.093       55.052       25.476      905.559     3030.700      649.008        1.329        0.229      147.977       26.128        0.031      347.022       25.690      857.327
09/04/2014  16:47:00       56.251      -27.974       24.235       40.944       33.284       23.292     1676.444     1107.853      542.497        0.393        0.166       62.823       19.645        0.098      347.167       25.941      857.325
09/04/2014  16:48:00       35.858       51.920       24.474       59.293       50.945       36.853     3515.690     2595.353     1358.167        0.602        0.373       63.100       33.363        0.280      347.243       26.070      857.319
09/04/2014  16:49:00       39.618       50.555       10.243       52.553       40.611       29.662     2761.803     1649.253      879.817        0.476        0.265       64.230       28.518        0.197      347.248       26.080      857.302
09/04/2014  16:50:00       90.542       59.384        8.406      102.625       58.993       46.624    10531.869     3480.135     2173.797        1.399        0.809      108.279       33.002        0.093      347.151       25.911      857.292
09/04/2014  16:51:00      207.600      148.950       16.426       60.641       54.466       52.224     3677.340     2966.578     2727.311        3.746        0.469      255.508       35.685        0.020      347.022       25.686      857.286
09/04/2014  16:52:00       77.189      128.309        6.795       72.523       71.003       51.484     5259.655     5041.431     2650.609        1.771        0.648      149.738       43.973        0.086      347.132       25.878      857.275
09/04/2014  16:53:00       19.119       95.463       -7.150       44.516       63.727       39.009     1981.681     4061.128     1521.698        0.855        0.378       97.359       36.269        0.139      347.128       25.874      857.267
09/04/2014  16:54:00       52.371       71.704        3.014       41.620       42.496       33.094     1732.199     1805.938     1095.180        0.626        0.232       88.793       30.437        0.118      347.087       25.803      857.267
09/04/2014  16:55:00       66.638       70.248       23.373       30.479       24.297       36.896      928.965      590.354     1361.340        0.640        0.144       96.827        6.520        0.005      347.120       25.859      857.273
09/04/2014  16:56:00       80.852       69.428        3.616       57.576       51.367       51.741     3314.939     2638.541     2677.103        1.000        0.432      106.571       28.393        0.071      347.232       26.051      857.268
09/04/2014  16:57:00      148.684       82.434       30.918       96.552       71.110       49.578     9322.288     5056.569     2457.933        2.334        0.842      170.007       34.561        0.041      347.371       26.289      857.251
09/04/2014  16:58:00      131.478       91.341       55.055       93.762       84.941       85.947     8791.302     7214.986     7386.885        2.602        1.170      160.093       57.473        0.129      347.316       26.195      857.257
09/04/2014  16:59:00       30.493      -66.614       18.176       47.294       69.741       41.421     2236.739     4863.875     1715.711        0.726        0.441       73.261       23.525        0.103      347.303       26.175      857.242
09/04/2014  17:00:00       31.370       79.423       77.455       61.382       65.106       47.663     3767.778     4238.747     2271.758        1.178        0.514       85.394       38.825        0.207      347.405       26.351      857.228
09/04/2014  17:01:00      219.121      101.437       31.826      110.269       67.248       70.062    12159.219     4522.254     4908.695        4.045        1.080      241.461       31.865        0.017      347.283       26.137      857.259
09/04/2014  17:02:00      195.015      121.685       14.951      120.816       77.505       62.160    14596.531     6007.084     3863.873        3.876        1.223      229.865       41.195        0.032      347.233       26.052      857.261
09/04/2014  17:03:00       94.156       60.904       40.874       60.809       42.785       45.492     3697.795     1830.517     2069.560        1.092        0.380      112.136       27.027        0.058      347.365       26.282      857.281
09/04/2014  17:04:00       56.241       50.222       56.124       47.146       32.989       26.064     2222.739     1088.291      679.323        0.641        0.200       75.401       16.258        0.046      347.147       25.905      857.264
09/04/2014  17:05:00       61.869       48.975       34.070       39.256       29.666       33.645     1541.005      880.063     1131.953        0.547        0.178       78.907       27.377        0.120      347.116       25.853      857.259
09/04/2014  17:06:00       55.722       38.539       28.789       42.699       42.465       36.153     1823.243     1803.299     1307.011        0.518        0.247       67.751       32.897        0.236      347.195       25.990      857.245
09/04/2014  17:07:00       36.146       41.981        9.139       27.699       19.801       29.469      767.214      392.075      868.450        0.259        0.101       55.398       20.319        0.135      347.316       26.197      857.240
09/04/2014  17:08:00       53.677       38.963        1.546       28.056       41.839       18.798      787.124     1750.478      353.371        0.365        0.145       66.327       15.403        0.054      347.357       26.267      857.240
09/04/2014  17:09:00      126.206       57.276       19.220       95.806       62.014       34.275     9178.838     3845.751     1174.783        1.689        0.710      138.594       19.066        0.019      347.414       26.364      857.243
09/04/2014  17:10:00       56.265       40.634        6.082       69.224       52.951       37.791     4791.967     2803.829     1428.150        0.694        0.451       69.404       32.278        0.216      347.410       26.358      857.249
09/04/2014  17:11:00      157.822      158.899        8.362      108.554       76.656       66.181    11783.986     5876.186     4379.867        3.613        1.102      223.957       53.525        0.057      347.105       25.830      857.257
09/04/2014  17:12:00      102.535       33.430       18.078       68.678       85.118       37.392     4716.727     7245.149     1398.148        1.266        0.668      107.848       39.844        0.136      347.179       25.961      857.236
09/04/2014  17:13:00       12.041      -47.067        6.460       51.808       69.949       26.903     2684.065     4892.849      723.789        0.535        0.415       48.583       32.116        0.437      347.383       26.313      857.210
09/04/2014  17:14:00       74.230       45.072       -0.264       56.424       37.141       28.577     3183.635     1379.469      816.617        0.646        0.269       86.842       14.685        0.029      347.259       26.100      857.205
09/04/2014  17:15:00       86.080       68.459       43.898       55.643       44.558       51.812     3096.195     1985.403     2684.507        1.089        0.388      109.984       29.948        0.074      347.287       26.147      857.189
09/04/2014  17:16:00      145.907       74.606       37.017      102.073       63.272       65.913    10418.972     4003.322     4344.507        2.349        0.938      163.874       61.016        0.139      347.406       26.350      857.178
09/04/2014  17:17:00      140.540       97.082       18.177       90.792       73.930       58.998     8243.108     5465.698     3480.761        2.335        0.859      170.811       31.975        0.035      347.422       26.377      857.178
09/04/2014  17:18:00      111.942      137.119       -6.511       84.367       51.593       45.919     7117.847     2661.874     2108.575        2.163        0.594      177.010       39.215        0.049      347.433       26.397      857.188
09/04/2014  17:19:00       89.474      125.702       -4.546       89.810       71.769       44.325     8065.777     5150.777     1964.737        1.950        0.759      154.294       40.798        0.070      347.421       26.376      857.201
09/04/2014  17:20:00       99.839      116.105       11.425       93.693       83.259       69.419     8778.448     6931.996     4819.067        2.205        1.026      153.128       54.058        0.125      347.394       26.330      857.197
09/04/2014  17:21:00      113.113      177.334        7.835       95.516      106.179       81.661     9123.361    11273.985     6668.547        3.568        1.353      210.338       74.992        0.127      347.247       26.075      857.204
09/04/2014  17:22:00       74.313       92.337       -6.275       63.953       62.604       37.500     4089.982     3919.305     1406.238        1.175        0.471      118.527       26.098        0.048      347.273       26.122      857.204
09/04/2014  17:23:00       26.335       44.609       -1.278       56.521       52.393       29.793     3194.661     2745.079      887.645        0.476        0.341       51.803       19.877        0.147      347.223       26.036      857.189
09/04/2014  17:24:00      -22.362       15.441       13.895       26.183       41.741       19.463      685.557     1742.276      378.790        0.187        0.140       27.175       18.576        0.467      347.513       26.536      857.174
09/04/2014  17:25:00      -17.765       95.557      -17.113       60.240       68.780       31.874     3628.904     4730.651     1015.975        0.956        0.469       97.194       40.466        0.173      347.369       26.288      857.160
09/04/2014  17:26:00       31.294       66.959       10.532       55.171       77.094       35.778     3043.865     5943.431     1280.034        0.792        0.513       73.911       41.682        0.318      347.363       26.277      857.146
09/04/2014  17:27:00       79.036      110.500        4.153      102.619       63.591       50.955    10530.673     4043.843     2596.375        1.782        0.859      135.856       40.718        0.090      347.461       26.445      857.150
09/04/2014  17:28:00      177.603      173.366        9.651      146.046      103.269      100.051    21329.363    10664.383    10010.301        5.184        2.100      248.190       73.373        0.087      347.163       25.930      857.135
09/04/2014  17:29:00      267.367      213.725       17.469      147.139      103.988      109.065    21649.884    10813.551    11895.212        8.091        2.218      342.291       78.569        0.053      347.117       25.850      857.144
09/04/2014  17:30:00      159.674      130.770       10.449      105.536       78.613       71.085    11137.922     6180.024     5053.074        3.253        1.119      206.389       44.748        0.047      347.057       25.748      857.167
09/04/2014  17:31:00      184.757      122.666       27.127       87.427       61.760       45.296     7643.494     3814.322     2051.716        3.171        0.675      221.771       23.741        0.011      347.140       25.890      857.158
09/04/2014  17:32:00      112.195       43.323        8.795       80.468       72.151       37.141     6475.139     5205.790     1379.447        1.380        0.653      120.269       25.436        0.045      347.266       26.109      857.150
09/04/2014  17:33:00       40.002       44.028       48.923       85.661       55.004       53.110     7337.829     3025.445     2820.636        0.956        0.659       59.486       36.986        0.387      347.317       26.198      857.143
09/04/2014  17:34:00      152.625       60.317       44.058      147.029       95.537       62.970    21617.504     9127.305     3965.166        3.179        1.735      164.112       57.485        0.123      347.315       26.193      857.143
09/04/2014  17:35:00      161.530      119.314       53.717      147.148       83.929       90.609    21652.515     7044.066     8210.061        4.005        1.845      200.817       55.678        0.077      347.293       26.156      857.136
09/04/2014  17:36:00      279.706      169.065       41.046       84.475       97.039       59.060     7136.076     9416.546     3488.107        6.427        1.002      326.830       29.304        0.008      347.231       26.046      857.153
09/04/2014  17:37:00      194.808      131.780       68.554       92.464       71.599       80.944     8549.558     5126.420     6551.930        4.012        1.011      235.194       40.095        0.029      347.186       25.969      857.149
09/04/2014  17:38:00      205.933      133.667       76.697       99.251       66.235       84.499     9850.824     4387.067     7140.107        4.376        1.069      245.510       34.783        0.020      347.178       25.955      857.140
09/04/2014  17:39:00      103.067       83.562      124.252      107.631       84.027       60.512    11584.487     7060.603     3661.686        2.767        1.115      132.685       58.212        0.192      347.244       26.070      857.134
09/04/2014  17:40:00       99.132       77.711       46.389       99.517       72.575       58.663     9903.572     5267.144     3441.399        1.831        0.931      125.961       53.010        0.177      347.352       26.258      857.144
09/04/2014  17:41:00      245.054      137.686       49.041      122.738       99.698       78.247    15064.687     9939.744     6122.623        5.627        1.556      281.085       57.574        0.042      347.255       26.089      857.139
09/04/2014  17:42:00      216.028      120.533       11.897      108.543       83.836       60.889    11781.654     7028.501     3707.414        4.192        1.126      247.379       42.556        0.030      347.130       25.873      857.152
09/04/2014  17:43:00      145.076       68.496       26.470       75.350       59.204       35.371     5677.640     3505.107     1251.080        1.843        0.522      160.433       26.410        0.027      347.108       25.836      857.154
09/04/2014  17:44:00      133.979       81.477       29.728       54.943       46.290       41.636     3018.733     2142.783     1733.564        1.618        0.345      156.808       28.822        0.034      347.189       25.978      857.145
09/04/2014  17:45:00      127.908       74.840       19.554       81.134       51.347       67.739     6582.729     2636.511     4588.561        1.807        0.690      148.194       18.170        0.015      347.246       26.077      857.148
09/04/2014  17:46:00       99.589       47.067       53.351       92.107       89.091       58.527     8483.746     7937.269     3425.371        1.741        0.992      110.151       51.209        0.216      347.279       26.131      857.137
09/04/2014  17:47:00      199.437      118.011       22.653       86.156       70.002       51.070     7422.901     4900.220     2608.170        3.457        0.747      231.736       39.208        0.029      347.284       26.138      857.127
09/04/2014  17:48:00      282.300      188.776       48.709       83.846       60.699       42.021     7030.210     3684.405     1765.797        6.509        0.624      339.603       10.613        0.001      347.284       26.137      857.126
09/04/2014  17:49:00       88.749       84.055       18.413       68.515       42.964       38.786     4694.268     1845.908     1504.345        1.166        0.402      122.236       33.279        0.074      347.339       26.236      857.140
09/04/2014  17:50:00       29.629      149.657       -6.086       54.446      147.985       52.778     2964.344    21899.520     2785.470        2.548        1.382      152.562       70.640        0.214      347.330       26.219      857.148
09/04/2014  17:51:00       26.642      114.269      -18.618       38.736      102.432       36.450     1500.468    10492.323     1328.615        1.372        0.666      117.333       47.962        0.167      347.292       26.153      857.155
09/04/2014  17:52:00       58.818       65.443       -6.919       44.522       44.535       27.837     1982.248     1983.397      774.872        0.626        0.237       87.991       17.503        0.040      347.333       26.227      857.161
09/04/2014  17:53:00      128.623       69.884       14.568       65.627       61.222       43.222     4306.893     3748.142     1868.102        1.578        0.496      146.382       35.805        0.060      347.303       26.174      857.164
09/04/2014  17:54:00       62.682       48.738       21.231       47.021       33.321       35.442     2210.968     1110.301     1256.166        0.567        0.229       79.401       21.093        0.071      347.391       26.326      857.167
09/04/2014  17:55:00       42.014       67.749       -3.994       40.993       50.914       23.672     1680.444     2592.186      560.363        0.560        0.242       79.719       23.679        0.088      347.321       26.205      857.174
09/04/2014  17:56:00       55.286       65.478       34.487       55.127       40.507       35.765     3038.983     1640.841     1279.159        0.725        0.298       85.696       27.788        0.105      347.389       26.323      857.175
09/04/2014  17:57:00       93.097       60.390        1.642       38.732       46.383       36.163     1500.179     2151.345     1307.739        0.864        0.248      110.968       23.088        0.043      347.266       26.110      857.170
09/04/2014  17:58:00      108.357       38.155       12.118       40.532       30.827       29.590     1642.817      950.277      875.565        0.841        0.173      114.878       22.028        0.037      347.308       26.183      857.177
09/04/2014  17:59:00      111.763       51.514       14.842       57.074       35.441       32.277     3257.489     1256.099     1041.826        1.046        0.278      123.064       25.731        0.044      347.347       26.251      857.159
09/04/2014  18:00:00      141.200       66.428        9.619       58.744       52.824       34.804     3450.900     2790.368     1211.289        1.595        0.373      156.045       20.115        0.017      347.222       26.033      857.149
09/04/2014  18:01:00      106.750       48.843       21.498       55.033       43.582       36.902     3028.664     1899.394     1361.770        1.027        0.314      117.393       21.656        0.034      347.232       26.051      857.146
09/04/2014  18:02:00      186.614       97.154       36.853       79.528       64.263       42.138     6324.751     4129.778     1775.574        2.892        0.612      210.389       26.411        0.016      347.259       26.096      857.145
09/04/2014  18:03:00      210.296      138.164       37.303      104.403       80.479       77.514    10899.886     6476.947     6008.411        4.404        1.169      251.622       49.723        0.039      347.186       25.970      857.134
09/04/2014  18:04:00      190.914      121.543       16.992       95.125       75.019       64.896     9048.817     5627.780     4211.442        3.520        0.944      226.321       35.534        0.025      347.177       25.956      857.137
09/04/2014  18:05:00       26.737       63.130       61.217       49.518       61.331       49.746     2452.070     3761.439     2474.682        0.857        0.434       68.559       45.252        0.436      347.203       26.002      857.143
09/04/2014  18:06:00      160.053       70.682       22.052       97.910       48.233       36.073     9586.458     2326.382     1301.273        2.215        0.661      174.965       25.262        0.021      347.196       25.988      857.148
09/04/2014  18:07:00      148.865       92.531       16.208       47.036       42.247       31.109     2212.427     1784.819      967.764        1.797        0.248      175.279       18.237        0.011      347.157       25.922      857.154
09/04/2014  18:08:00      199.124      103.618       31.012       86.830       59.947       57.365     7539.442     3593.662     3290.712        3.288        0.721      224.471       14.787        0.004      347.136       25.883      857.143
09/04/2014  18:09:00      125.308       74.093       50.423       96.999       72.934       56.989     9408.789     5319.297     3247.724        2.085        0.899      145.575       35.917        0.061      347.180       25.960      857.133
09/04/2014  18:10:00       86.333       67.396        7.273       77.967       78.340       50.045     6078.806     6137.206     2504.504        1.338        0.736      109.524       31.743        0.084      347.118       25.856      857.127
09/04/2014  18:11:00      173.527      121.591       17.073       82.824       61.056       59.102     6859.737     3727.796     3493.065        2.963        0.704      211.887       43.335        0.042      347.088       25.802      857.109
09/04/2014  18:12:00       64.564      118.591        6.374       83.221       90.295       53.161     6925.717     8153.145     2826.088        1.809        0.895      135.027       43.401        0.103      347.101       25.825      857.113
09/04/2014  18:13:00       37.973      185.207      -22.079       67.154       85.208       46.227     4509.601     7260.458     2136.973        2.507        0.695      189.060       47.037        0.062      347.052       25.741      857.117
09/04/2014  18:14:00       24.222      178.326      -17.201       63.343       87.558       50.920     4012.368     7666.401     2592.881        2.347        0.714      179.963       46.784        0.068      347.038       25.717      857.115
09/04/2014  18:15:00       42.031       99.497       11.660       63.180       76.996       49.429     3991.667     5928.360     2443.256        1.208        0.618      108.011       50.143        0.216      347.070       25.771      857.115
09/04/2014  18:16:00       74.627       73.688        0.352       60.858       40.398       30.204     3703.663     1632.033      912.262        0.862        0.312      104.877       20.815        0.039      347.084       25.797      857.113
09/04/2014  18:17:00       54.680       45.871       10.545       60.505       48.608       35.691     3660.856     2362.740     1273.877        0.625        0.365       71.373       31.014        0.189      347.098       25.821      857.109
09/04/2014  18:18:00       57.908       47.534        0.958       34.929       26.502       25.480     1220.054      702.333      649.246        0.409        0.129       74.919       11.907        0.025      347.069       25.771      857.098
09/04/2014  18:19:00       54.245       28.280        6.399       48.334       41.854       30.677     2336.212     1751.764      941.060        0.441        0.251       61.174       20.435        0.112      347.091       25.810      857.092
09/04/2014  18:20:00       65.493      140.469      -10.145       77.418      111.508       59.300     5993.586    12434.077     3516.445        2.303        1.097      154.987       61.441        0.157      347.056       25.746      857.101
09/04/2014  18:21:00       44.609      172.449      -17.390       57.878       88.069       53.874     3349.873     7756.185     2902.459        2.302        0.700      178.125       56.512        0.101      347.043       25.725      857.097
09/04/2014  18:22:00       90.455       77.487       15.283       71.584       58.187       40.874     5124.226     3385.707     1670.681        1.230        0.509      119.106       31.788        0.071      347.063       25.760      857.121
09/04/2014  18:23:00       39.435      120.126       -0.392       48.247       78.715       36.500     2327.740     6196.005     1332.263        1.292        0.493      126.433       37.386        0.087      347.028       25.699      857.144
09/04/2014  18:24:00       78.626       82.095       13.481       77.895       63.877       46.703     6067.668     4080.295     2181.216        1.271        0.616      113.673       34.544        0.092      347.038       25.717      857.165
09/04/2014  18:25:00      174.605      135.889       21.404       83.320       64.181       61.993     6942.223     4119.153     3843.194        3.216        0.745      221.252       41.213        0.035      346.986       25.625      857.192
09/04/2014  18:26:00       46.664       60.841        8.327       51.951       41.184       31.498     2698.879     1696.090      992.094        0.567        0.269       76.676       25.625        0.112      346.969       25.598      857.205
09/04/2014  18:27:00      137.703      101.713       25.597       81.081       54.225       46.107     6574.149     2940.349     2125.851        2.080        0.582      171.195       28.449        0.028      346.985       25.623      857.233
09/04/2014  18:28:00      123.990       87.664        3.419      108.761       50.654       56.580    11828.920     2565.866     3201.291        2.033        0.880      151.850       32.060        0.045      346.919       25.511      857.262
09/04/2014  18:29:00       42.264      176.769      -15.415       54.654       80.546       51.091     2987.027     6487.722     2610.283        2.268        0.604      181.751       55.567        0.093      346.898       25.473      857.278
09/04/2014  18:30:00       17.812      132.529      -11.904       42.512       74.816       38.936     1807.239     5597.486     1515.976        1.347        0.446      133.720       40.230        0.091      346.936       25.540      857.278
09/04/2014  18:31:00       23.047      130.888      -30.381       41.387       49.275       22.256     1712.870     2428.019      495.323        1.161        0.232      132.902       19.081        0.021      346.959       25.582      857.287
09/04/2014  18:32:00      -76.926      220.678      -32.598       78.645      106.026       50.564     6185.048    11241.527     2556.674        3.783        0.999      233.702       58.254        0.062      346.939       25.545      857.276
09/04/2014  18:33:00       32.846      305.971      -49.921       68.084       91.609       40.301     4635.377     8392.140     1624.180        5.592        0.733      307.728       38.929        0.016      346.928       25.523      857.278
09/04/2014  18:34:00      -18.285      176.401      -15.610       47.194       88.845       37.526     2227.234     7893.479     1408.186        2.161        0.576      177.346       42.023        0.056      346.912       25.498      857.283
09/04/2014  18:35:00        0.834       69.783       -5.248       47.783       57.948       31.617     2283.174     3358.003      999.658        0.577        0.332       69.788       33.038        0.224      346.917       25.509      857.286
09/04/2014  18:36:00       58.143      222.425      -44.636       71.555      115.779       38.413     5120.118    13404.789     1475.528        3.742        1.000      229.899       54.290        0.056      346.881       25.445      857.298
09/04/2014  18:37:00       43.557      194.850      -23.530       65.306       92.643       45.235     4264.871     8582.654     2046.186        2.765        0.745      199.659       48.165        0.058      346.831       25.360      857.322
09/04/2014  18:38:00       42.905      116.611        1.719       79.904       88.027       52.491     6384.690     7748.816     2755.310        1.616        0.844      124.253       36.207        0.085      346.803       25.312      857.333
09/04/2014  18:39:00       61.731      147.875      -13.798       74.846       81.274       50.105     5601.981     6605.543     2510.553        2.029        0.736      160.243       48.732        0.092      346.814       25.333      857.325
09/04/2014  18:40:00       69.163      213.773      -16.760       77.930      114.314       66.237     6073.026    13067.746     4387.359        3.714        1.176      224.683       69.833        0.097      346.791       25.289      857.322
09/04/2014  18:41:00       26.862      103.561        3.444       59.428       73.219       44.095     3531.714     5361.070     1944.326        1.115        0.542      106.988       43.858        0.168      346.770       25.255      857.322
09/04/2014  18:42:00       46.598      194.301      -22.165       70.536       93.911       55.518     4975.398     8819.215     3082.207        2.864        0.844      199.811       59.694        0.089      346.777       25.266      857.328
09/04/2014  18:43:00       27.913      266.139      -34.631       76.585      132.155       52.194     5865.189    17464.923     2724.229        4.943        1.303      267.599       62.743        0.055      346.772       25.256      857.325
09/04/2014  18:44:00        8.073      229.159      -31.382       55.891      130.414       48.005     3123.852    17007.791     2304.458        3.800        1.122      229.301       62.633        0.075      346.744       25.208      857.331
09/04/2014  18:45:00      -22.650      353.701      -56.477       60.116       96.026       41.425     3613.965     9220.975     1715.999        7.168        0.728      354.425       48.522        0.019      346.768       25.250      857.331
09/04/2014  18:46:00       22.844      141.819        2.242       53.735       89.631       51.749     2887.403     8033.633     2677.969        1.712        0.680      143.647       52.593        0.134      346.686       25.109      857.339
09/04/2014  18:47:00       10.910      258.578      -38.465       71.699      111.155       52.008     5140.700    12355.490     2704.873        4.433        1.010      258.808       61.942        0.057      346.699       25.129      857.341
09/04/2014  18:48:00       22.662      306.909      -37.729       75.709      134.121       67.682     5731.880    17988.384     4580.847        6.221        1.415      307.745       74.905        0.059      346.651       25.047      857.353
09/04/2014  18:49:00       10.010      281.696      -26.769       71.809      144.982       59.851     5156.482    21019.650     3582.171        5.496        1.488      281.874       74.011        0.069      346.619       24.993      857.367
09/04/2014  18:50:00       56.748      233.068      -30.431       83.368      125.719       66.909     6950.259    15805.364     4476.757        4.285        1.362      239.877       69.702        0.084      346.584       24.935      857.364
09/04/2014  18:51:00       29.586      263.933      -36.974       56.278       74.677       41.936     3167.228     5576.707     1758.636        4.120        0.525      265.586       41.130        0.024      346.626       25.004      857.362
09/04/2014  18:52:00       -1.733      186.983      -19.082       58.993       86.090       46.068     3480.190     7411.405     2122.240        2.417        0.651      186.991       47.469        0.064      346.606       24.972      857.376
09/04/2014  18:53:00      -11.996      219.520      -30.453       71.401       94.707       49.743     5098.064     8969.347     2474.328        3.290        0.827      219.847       49.446        0.051      346.625       25.004      857.387
09/04/2014  18:54:00       27.262      266.342      -39.390       54.915       64.681       38.923     3015.699     4183.647     1515.021        4.097        0.436      267.733       32.351        0.015      346.618       24.991      857.382
09/04/2014  18:55:00       21.992      195.405      -13.907       51.414       74.345       51.762     2643.351     5527.229     2679.315        2.485        0.542      196.638       49.621        0.064      346.594       24.953      857.378
09/04/2014  18:56:00       10.150      213.432      -30.887       54.133       94.939       35.854     2930.434     9013.503     1285.502        2.992        0.661      213.674       30.331        0.020      346.610       24.979      857.398
09/04/2014  18:57:00      -39.109      283.497      -34.642       71.790       91.219       52.752     5153.749     8320.822     2782.794        4.968        0.813      286.182       56.784        0.039      346.557       24.887      857.416
09/04/2014  18:58:00      -31.327      255.741      -38.552       89.168      110.722       47.990     7950.956    12259.326     2303.082        4.519        1.126      257.653       44.276        0.030      346.553       24.881      857.423
09/04/2014  18:59:00      -60.946      330.073      -37.828       74.930       78.825       45.403     5614.560     6213.449     2061.455        6.399        0.694      335.652       37.365        0.012      346.522       24.826      857.433
09/04/2014  19:00:00     -138.592      323.324      -43.550       75.739      101.846       55.458     5736.379    10372.606     3075.591        7.241        0.959      351.775       52.109        0.022      346.505       24.798      857.441
09/04/2014  19:01:00     -113.921      339.211      -44.646       71.961       96.688       46.257     5178.335     9348.499     2139.747        7.335        0.833      357.830       44.138        0.015      346.482       24.757      857.447
09/04/2014  19:02:00      -69.921      379.751      -56.517       88.217      106.057       42.782     7782.307    11248.141     1830.259        8.657        1.043      386.134       37.061        0.009      346.481       24.757      857.442
09/04/2014  19:03:00      -83.923      264.551      -31.624       71.410       96.135       43.741     5099.350     9241.952     1913.267        4.714        0.813      277.543       39.092        0.020      346.454       24.711      857.441
09/04/2014  19:04:00      -55.901      304.190      -42.340       72.520       75.567       38.165     5259.093     5710.420     1456.578        5.494        0.621      309.284       36.354        0.014      346.454       24.711      857.435
09/04/2014  19:05:00      -49.944      289.320      -29.501       78.484       96.320       51.101     6159.682     9277.516     2611.327        5.256        0.902      293.599       52.890        0.032      346.414       24.640      857.428
09/04/2014  19:06:00      -15.559      270.107      -29.743       58.593       67.506       39.584     3433.170     4557.035     1566.870        4.182        0.478      270.555       31.838        0.014      346.403       24.622      857.444
09/04/2014  19:07:00       -1.011      277.619      -30.501       62.486       83.462       36.527     3904.461     6965.911     1334.204        4.510        0.610      277.621       38.779        0.020      346.423       24.655      857.442
09/04/2014  19:08:00       37.186       92.518       -0.803       69.470       83.755       53.306     4826.022     7014.953     2841.510        1.231        0.734       99.711       44.561        0.200      346.338       24.512      857.442
09/04/2014  19:09:00        4.054      143.620       -3.566       63.838       94.124       45.106     4075.293     8859.383     2034.576        1.781        0.748      143.677       49.789        0.120      346.302       24.450      857.452
09/04/2014  19:10:00      -28.054      285.182      -41.411       77.411       80.423       33.476     5992.500     6467.792     1120.615        4.870        0.679      286.559       23.727        0.007      346.376       24.575      857.475
09/04/2014  19:11:00        3.423      183.539      -16.432       42.060       97.220       37.271     1769.042     9451.657     1389.140        2.329        0.630      183.571       45.813        0.062      346.300       24.447      857.496
09/04/2014  19:12:00       17.027       62.310       10.758       39.615       65.175       33.845     1569.354     4247.832     1145.489        0.562        0.348       64.594       32.452        0.252      346.210       24.294      857.506
09/04/2014  19:13:00       15.856      223.289      -29.817       50.855       78.757       48.090     2586.244     6202.685     2312.602        3.105        0.555      223.851       49.405        0.049      346.310       24.462      857.516
09/04/2014  19:14:00       46.666      257.534      -36.622       69.512       74.426       43.972     4831.978     5539.302     1933.533        4.107        0.615      261.728       39.724        0.023      346.321       24.480      857.546
09/04/2014  19:15:00       12.962      188.644      -30.789       47.788       46.412       29.360     2283.688     2154.030      862.019        2.100        0.265      189.089       30.990        0.027      346.289       24.428      857.549
09/04/2014  19:16:00        4.096      132.282      -17.532       37.760       53.348       27.611     1425.833     2845.956      762.349        1.143        0.252      132.345       29.898        0.051      346.269       24.395      857.560
09/04/2014  19:17:00      -10.228      176.882      -23.166       49.987      100.796       34.494     2498.693    10159.913     1189.813        2.289        0.692      177.178       48.655        0.075      346.277       24.407      857.570
09/04/2014  19:18:00       15.491      168.058      -24.061       34.667       51.790       26.865     1201.772     2682.158      721.713        1.683        0.230      168.771       24.710        0.021      346.222       24.314      857.588
09/04/2014  19:19:00        8.908      211.233      -26.898       39.445       53.340       30.454     1555.882     2845.186      927.456        2.537        0.266      211.421       28.849        0.019      346.243       24.347      857.581
09/04/2014  19:20:00        2.619      161.835      -24.159       47.579       55.014       29.620     2263.739     3026.541      877.366        1.647        0.308      161.856       30.558        0.036      346.166       24.217      857.586
09/04/2014  19:21:00       24.894      136.044      -13.345       45.534       65.573       36.834     2073.345     4299.786     1356.752        1.352        0.386      138.303       37.835        0.075      346.153       24.195      857.586
09/04/2014  19:22:00        3.847      189.999      -26.727       56.155      108.115       44.311     3153.330    11688.920     1963.421        2.681        0.840      190.038       54.995        0.084      346.150       24.189      857.596
09/04/2014  19:23:00      -46.550      308.285      -35.233       89.046       75.533       45.330     7929.268     5705.174     2054.793        5.707        0.784      311.779       42.546        0.019      346.237       24.336      857.600
09/04/2014  19:24:00       -0.096      296.199      -38.903       51.014       77.547       38.903     2602.381     6013.510     1513.430        4.969        0.506      296.199       42.003        0.020      346.240       24.341      857.601
09/04/2014  19:25:00       23.318      213.609      -33.624       40.600       56.063       33.758     1648.377     3143.087     1139.621        2.662        0.297      214.878       29.666        0.019      346.233       24.330      857.601
09/04/2014  19:26:00      -29.769      233.212      -36.343       68.282       73.143       31.852     4662.444     5349.826     1014.530        3.381        0.551      235.104       30.025        0.016      346.212       24.293      857.603
09/04/2014  19:27:00        7.560      143.236      -16.524       51.864       48.321       27.200     2689.852     2334.910      739.865        1.330        0.288      143.436       26.880        0.035      346.064       24.042      857.608
09/04/2014  19:28:00        2.311      208.474      -21.902       47.123       73.241       37.175     2220.536     5364.233     1381.994        2.646        0.448      208.487       33.569        0.026      346.057       24.028      857.626
09/04/2014  19:29:00       41.085      118.700       -3.344       50.471       82.278       42.155     2547.354     6769.665     1777.045        1.344        0.555      125.609       46.879        0.139      346.002       23.935      857.625
09/04/2014  19:30:00       16.218      120.062       -1.444       45.633       70.966       43.728     2082.402     5036.161     1912.137        1.185        0.452      121.153       45.841        0.143      345.986       23.909      857.622
09/04/2014  19:31:00        4.203      143.590      -21.673       45.809       54.162       28.774     2098.439     2933.483      827.922        1.348        0.293      143.652       28.670        0.040      345.986       23.907      857.638
09/04/2014  19:32:00       15.198      225.742      -27.848       56.522       57.728       33.281     3194.727     3332.567     1107.637        2.980        0.382      226.253       27.729        0.015      346.014       23.954      857.664
09/04/2014  19:33:00       29.915      111.063        8.268       55.062       73.582       46.476     3031.827     5414.334     2160.032        1.195        0.530      115.021       44.829        0.152      345.929       23.811      857.682
09/04/2014  19:34:00        9.325      176.603      -14.999       38.173       60.925       31.301     1457.197     3711.831      979.766        1.882        0.307      176.849       33.650        0.036      345.987       23.910      857.715
09/04/2014  19:35:00       18.915      170.085      -20.346       44.779       59.861       37.503     2005.125     3583.351     1406.454        1.835        0.350      171.134       37.744        0.049      345.977       23.891      857.731
09/04/2014  19:36:00       33.770       92.825       -4.472       45.885       79.839       37.879     2105.440     6374.294     1434.827        0.984        0.496       98.777       35.450        0.129      345.884       23.734      857.758
09/04/2014  19:37:00        5.752      109.026      -10.944       22.022       51.754       19.209      484.958     2678.506      368.992        0.779        0.177      109.178       23.346        0.046      345.907       23.773      857.772
09/04/2014  19:38:00       28.459      150.806      -22.320       37.318       71.246       29.490     1392.618     5076.029      869.669        1.569        0.367      153.468       38.618        0.063      345.909       23.776      857.793
09/04/2014  19:39:00       -4.023      237.589      -41.025       40.788       59.434       32.202     1663.690     3532.414     1036.942        3.219        0.312      237.623       29.701        0.016      346.030       23.980      857.802
09/04/2014  19:40:00       -8.867      201.135      -29.673       42.892       36.068       19.399     1839.758     1300.868      376.308        2.247        0.176      201.330       17.020        0.007      346.031       23.984      857.813
09/04/2014  19:41:00        1.356      254.341      -43.181       76.746      108.660       36.397     5889.981    11807.032     1324.752        4.279        0.951      254.344       50.881        0.040      346.031       23.983      857.822
09/04/2014  19:42:00       14.452      183.757      -11.170       57.027      108.826       41.467     3252.040    11843.024     1719.528        2.545        0.841      184.325       51.220        0.077      345.925       23.801      857.830
09/04/2014  19:43:00       -1.590      256.504      -38.070       46.744       63.757       23.030     2185.016     4064.900      530.403        3.701        0.339      256.509       18.371        0.005      345.968       23.874      857.843
09/04/2014  19:44:00       14.387      131.557       -4.324       34.750       74.459       36.562     1207.553     5544.207     1336.785        1.281        0.404      132.341       37.479        0.080      345.785       23.564      857.848
09/04/2014  19:45:00       22.722      183.529      -18.225       39.005       65.146       34.954     1521.366     4244.004     1221.756        2.076        0.349      184.931       35.644        0.037      345.845       23.666      857.849
09/04/2014  19:46:00        5.706      199.169      -28.431       53.995       56.181       30.024     2915.452     3156.315      901.424        2.374        0.349      199.250       26.258        0.017      345.913       23.780      857.847
09/04/2014  19:47:00      -23.906      112.751       -5.030       55.116       74.176       38.096     3037.827     5502.063     1451.314        1.165        0.500      115.257       46.131        0.160      345.843       23.663      857.857
09/04/2014  19:48:00        8.122      121.361      -10.092       55.028       60.981       38.192     3028.072     3718.653     1458.624        1.155        0.410      121.633       38.853        0.102      345.790       23.571      857.865
09/04/2014  19:49:00       15.228      242.826      -38.736       38.888       60.876       28.993     1512.304     3705.932      840.569        3.338        0.303      243.303       32.402        0.018      345.954       23.850      857.881
09/04/2014  19:50:00       24.817      221.689      -27.197       58.465       89.351       39.384     3418.194     7983.676     1551.072        3.173        0.648      223.074       43.340        0.038      345.907       23.770      857.902
09/04/2014  19:51:00       76.414      160.083       -8.887       74.349       96.981       44.481     5527.805     9405.299     1978.569        2.423        0.846      177.385       53.146        0.090      345.857       23.684      857.917
09/04/2014  19:52:00       47.798      101.126       -8.798       57.959       54.473       35.963     3359.261     2967.279     1293.372        1.010        0.381      111.853       35.744        0.102      345.775       23.546      857.939
09/04/2014  19:53:00       19.477      177.441      -16.434       58.060       76.554       40.272     3370.914     5860.587     1621.840        2.149        0.543      178.506       39.789        0.050      345.779       23.551      857.951
09/04/2014  19:54:00       20.687      146.363      -12.897       36.403       80.212       41.162     1325.184     6433.916     1694.335        1.573        0.473      147.818       47.710        0.104      345.771       23.540      857.970
09/04/2014  19:55:00       55.585      101.266      -15.495       54.657       96.886       35.965     2987.427     9386.843     1293.496        1.362        0.683      115.518       49.110        0.181      345.746       23.494      857.981
09/04/2014  19:56:00       16.856      137.255       -8.802       36.175       56.256       35.545     1308.623     3164.681     1263.446        1.247        0.287      138.286       27.756        0.040      345.706       23.428      858.006
09/04/2014  19:57:00       32.150      143.047      -13.497       35.897       55.233       31.017     1288.586     3050.732      962.038        1.349        0.265      146.615       32.943        0.050      345.735       23.476      858.019
09/04/2014  19:58:00       26.537      180.728      -29.773       67.428       52.391       28.829     4546.496     2744.789      831.099        2.119        0.406      182.666       30.170        0.027      345.826       23.633      858.033
09/04/2014  19:59:00      -29.503      205.211      -15.026       81.885       80.064       44.644     6705.176     6410.280     1993.054        2.916        0.755      207.321       38.498        0.034      345.760       23.518      858.040
09/04/2014  20:00:00       19.686      111.904       -2.478       44.332       85.621       41.290     1965.334     7330.909     1704.864        1.196        0.550      113.622       42.112        0.137      345.676       23.376      858.064
09/04/2014  20:01:00       26.150      176.117      -30.203       46.252       47.895       20.594     2139.284     2293.977      424.120        1.873        0.243      178.048       21.777        0.015      345.781       23.557      858.092
09/04/2014  20:02:00       20.289      177.893       -2.453       79.841      106.640       60.503     6374.615    11372.152     3660.624        2.673        1.070      179.046       69.032        0.149      345.762       23.522      858.099
09/04/2014  20:03:00      -38.597      291.959      -42.634       74.785       69.963       38.880     5592.791     4894.794     1511.662        5.027        0.600      294.499       38.824        0.017      345.853       23.676      858.121
09/04/2014  20:04:00       30.116      181.942      -22.791       70.835       99.995       52.537     5017.652     9998.960     2760.142        2.615        0.889      184.418       61.753        0.112      345.756       23.513      858.139
09/04/2014  20:05:00       15.128      160.688      -17.484       51.067       52.585       40.731     2607.838     2765.153     1658.995        1.669        0.352      161.399       35.047        0.047      345.743       23.492      858.144
09/04/2014  20:06:00      -38.954      163.259      -27.564       28.051       23.456       18.412      786.856      550.193      339.020        1.530        0.084      167.842       10.720        0.004      345.739       23.483      858.170
09/04/2014  20:07:00      -52.052      123.612      -18.517       31.767       36.934       18.403     1009.142     1364.155      338.669        1.052        0.136      134.124       15.460        0.013      345.672       23.371      858.177
09/04/2014  20:08:00      -94.934       74.357      -20.849       42.684       32.230       24.047     1821.964     1038.786      578.256        0.921        0.172      120.588       24.168        0.040      345.657       23.343      858.195
09/04/2014  20:09:00      -98.171      145.097      -30.365       42.379       70.408       26.861     1795.988     4957.355      721.535        1.954        0.374      175.188       16.366        0.009      345.636       23.307      858.217
09/04/2014  20:10:00      -76.443       83.453      -17.719       40.001       41.090       23.843     1600.102     1688.383      568.472        0.849        0.193      113.172       21.483        0.036      345.527       23.120      858.240
09/04/2014  20:11:00      -78.824       29.665       -5.218       41.350       32.603       21.894     1709.823     1062.950      479.360        0.519        0.163       84.221       16.739        0.039      345.543       23.148      858.251
09/04/2014  20:12:00      -98.993       69.933      -22.032       46.426       50.393       30.032     2155.382     2539.429      901.934        1.039        0.280      121.203       31.492        0.068      345.500       23.075      858.263
09/04/2014  20:13:00     -110.547      117.484      -29.756       38.457       71.476       26.359     1478.912     5108.872      694.771        1.709        0.364      161.317       29.015        0.032      345.428       22.951      858.272
09/04/2014  20:14:00     -105.409      115.910      -18.688       45.179       63.519       36.075     2041.107     4034.723     1301.379        1.614        0.369      156.672       31.136        0.039      345.398       22.898      858.287
09/04/2014  20:15:00     -137.880       92.392      -27.068       45.659       46.822       26.907     2084.715     2192.315      723.986        1.664        0.250      165.974       23.152        0.019      345.404       22.910      858.293
09/04/2014  20:16:00     -109.255      158.662      -26.390       54.390       84.549       37.386     2958.222     7148.493     1397.746        2.465        0.575      192.641       45.100        0.055      345.411       22.919      858.295
09/04/2014  20:17:00     -103.762      115.647      -21.062       39.758       50.444       30.479     1580.706     2544.631      928.968        1.482        0.253      155.373       26.176        0.028      345.368       22.849      858.312
09/04/2014  20:18:00      -89.204      110.373      -26.865       35.654       47.521       26.992     1271.201     2258.281      728.554        1.256        0.213      141.914       17.983        0.016      345.397       22.899      858.325
09/04/2014  20:19:00      -94.234       92.507      -18.130       34.599       36.420       22.530     1197.060     1326.409      507.600        1.040        0.152      132.051       18.982        0.021      345.315       22.757      858.325
09/04/2014  20:20:00      -91.710       22.974       -8.301       24.722       26.204       15.934      611.168      686.658      253.891        0.528        0.078       94.544       10.843        0.013      345.346       22.809      858.332
09/04/2014  20:21:00     -118.685       48.321      -15.419       41.933       24.619       20.613     1758.418      606.113      424.902        0.972        0.139      128.144       13.410        0.011      345.398       22.898      858.338
09/04/2014  20:22:00      -74.010       12.215       -5.138       32.697       24.046       21.737     1069.113      578.191      472.492        0.389        0.106       75.011       18.725        0.062      345.368       22.848      858.332
09/04/2014  20:23:00      -99.763       43.061      -14.341       47.222       47.270       19.060     2229.933     2234.468      363.284        0.842        0.241      108.660       20.344        0.035      345.373       22.856      858.340
09/04/2014  20:24:00      -65.822       24.903       -8.093       38.957       28.527       21.458     1517.679      813.803      460.462        0.390        0.140       70.375       21.865        0.097      345.323       22.770      858.336
09/04/2014  20:25:00      -42.111       22.924       -9.687       17.122       17.659       10.248      293.160      311.851      105.017        0.155        0.036       47.946        7.807        0.027      345.277       22.692      858.340
09/04/2014  20:26:00      -61.705       -4.222       -9.327       24.899       19.429       15.130      619.976      377.496      228.905        0.257        0.061       61.849       16.706        0.073      345.323       22.770      858.337
09/04/2014  20:27:00       -3.208       37.730        5.319       18.998       17.086       12.932      360.907      291.932      167.235        0.114        0.041       37.866       12.103        0.102      345.136       22.452      858.349
09/04/2014  20:28:00       -7.428       33.674        6.681       35.263       32.920       18.001     1243.501     1083.716      324.045        0.194        0.133       34.483        7.813        0.051      345.201       22.562      858.363
09/04/2014  20:29:00      -51.785       65.095      -14.551       23.220       27.170       16.994      539.161      738.202      288.798        0.435        0.078       83.181       13.071        0.025      345.256       22.656      858.366
09/04/2014  20:30:00      -32.998       76.719      -16.561       20.626       26.850       10.373      425.432      720.918      107.592        0.425        0.063       83.514        6.618        0.006      345.243       22.633      858.386
09/04/2014  20:31:00      -44.942       72.553      -10.246       31.883       39.277       17.666     1016.541     1542.667      312.105        0.513        0.144       85.345       13.609        0.025      345.153       22.481      858.387
09/04/2014  20:32:00      -54.389       33.374      -13.384       25.815       21.891       13.802      666.412      479.200      190.504        0.279        0.067       63.812        9.990        0.025      345.251       22.648      858.402
09/04/2014  20:33:00      -98.652       78.250      -14.520       45.461       35.206       23.061     2066.685     1239.459      531.818        0.995        0.192      125.918       20.090        0.025      345.239       22.627      858.417
09/04/2014  20:34:00     -107.604       53.467      -14.817       32.206       50.247       19.201     1037.203     2524.811      368.683        0.929        0.197      120.155       17.676        0.022      345.213       22.582      858.430
09/04/2014  20:35:00      -93.177       32.939      -13.373       37.793       41.415       21.812     1428.319     1715.187      475.763        0.678        0.181       98.828       10.368        0.011      345.231       22.614      858.439
09/04/2014  20:36:00      -80.445       35.743      -15.529       30.119       28.911       19.510      907.136      835.862      380.626        0.506        0.106       88.028       15.127        0.030      345.178       22.523      858.442
09/04/2014  20:37:00      -47.791       59.196      -12.440       28.234       37.610       20.073      797.175     1414.522      402.922        0.428        0.131       76.080       14.430        0.036      345.118       22.421      858.440
09/04/2014  20:38:00      -60.422       14.497       -5.338       31.075       30.003       17.254      965.656      900.171      297.699        0.303        0.108       62.137       12.538        0.041      345.067       22.332      858.445
09/04/2014  20:39:00      -66.717       60.052      -19.550       35.827       53.469       25.532     1283.569     2858.899      651.862        0.662        0.240       89.763       27.472        0.094      345.111       22.406      858.447
09/04/2014  20:40:00      -33.998       74.518      -10.427       34.211       43.259       19.190     1170.368     1871.320      368.273        0.511        0.170       81.908       18.207        0.049      345.046       22.297      858.461
09/04/2014  20:41:00      -49.891       28.803      -15.613       44.536       35.161       17.505     1983.469     1236.330      306.430        0.354        0.176       57.608       13.268        0.053      345.145       22.466      858.465
09/04/2014  20:42:00      -70.567      147.500      -24.845       49.882       79.569       37.470     2488.174     6331.176     1404.031        1.879        0.511      163.511       35.640        0.048      345.118       22.418      858.473
09/04/2014  20:43:00      -82.253       45.787      -21.123       31.084       31.172       20.024      966.208      971.715      400.970        0.582        0.117       94.138        7.585        0.006      345.186       22.536      858.482
09/04/2014  20:44:00      -66.605       32.851      -14.182       32.197       59.048       23.996     1036.641     3486.645      575.792        0.541        0.255       74.265       13.990        0.035      345.145       22.467      858.503
09/04/2014  20:45:00      -10.911       26.511       -6.807       20.712       26.134       23.205      428.997      682.971      538.482        0.126        0.083       28.669       18.812        0.431      345.000       22.219      858.518
09/04/2014  20:46:00      -69.262       75.259      -13.273       47.371       51.741       28.024     2244.014     2677.126      785.331        0.817        0.285      102.280       23.249        0.052      345.065       22.329      858.521
09/04/2014  20:47:00      -33.152       32.209        5.788       48.089       26.874       24.229     2312.574      722.207      587.045        0.290        0.181       46.222       27.446        0.353      344.998       22.216      858.536
09/04/2014  20:48:00      -26.233       35.780       -3.846       30.328       32.294       15.047      919.803     1042.895      226.399        0.209        0.109       44.366       12.333        0.077      345.037       22.283      858.545
09/04/2014  20:49:00      -59.461      -30.477      -11.377       18.426       37.355       17.734      339.531     1395.371      314.501        0.332        0.102       66.817       12.515        0.035      345.107       22.403      858.556
09/04/2014  20:50:00      -12.356       13.777       -0.440       23.906       40.979       19.488      571.473     1679.318      379.795        0.149        0.132       18.506       10.282        0.309      345.044       22.294      858.570
09/04/2014  20:51:00      -22.660       20.765       -4.366       27.758       18.762       12.589      770.489      352.029      158.476        0.112        0.064       30.735       10.132        0.109      345.003       22.225      858.588
09/04/2014  20:52:00       -0.070       11.614       -1.141       28.447       13.876       12.518      809.254      192.531      156.712        0.065        0.058       11.615       12.719        1.199      344.989       22.199      858.612
09/04/2014  20:53:00      -60.015      -18.505      -13.232       21.039       26.688       12.468      442.636      712.237      155.457        0.271        0.066       62.803       11.814        0.035      345.067       22.334      858.628
09/04/2014  20:54:00      -40.690       -1.749       -5.276       21.758       22.035       21.519      473.401      485.554      463.074        0.155        0.071       40.728       13.013        0.102      345.090       22.371      858.638
09/04/2014  20:55:00      -12.115       -3.782       -6.789       28.136       21.652       13.610      791.646      468.818      185.242        0.083        0.072       12.691       13.682        1.162      344.952       22.137      858.638
09/04/2014  20:56:00      -42.010      -25.023        3.001       29.906       12.388       10.155      894.398      153.456      103.130        0.178        0.058       48.898        5.818        0.014      344.871       21.997      858.653
09/04/2014  20:57:00        6.845      -13.101       10.990       13.765       16.171       11.830      189.475      261.517      139.948        0.047        0.030       14.781        7.825        0.280      344.774       21.833      858.649
09/04/2014  20:58:00      -58.642      -33.731       -0.008       25.763       21.432       15.112      663.736      459.348      228.372        0.296        0.068       67.651       10.713        0.025      344.767       21.820      858.664
09/04/2014  20:59:00      -61.908      -56.929        2.348       32.061       31.696       13.711     1027.891     1004.642      187.981        0.465        0.111       84.104        8.960        0.011      344.703       21.711      858.684
09/04/2014  21:00:00      -47.225      -48.206        9.506       49.726       26.270       23.103     2472.661      690.101      533.756        0.417        0.185       67.484       29.300        0.189      344.822       21.914      858.683
09/04/2014  21:01:00      -56.000      -25.228        0.542       37.719       25.057       15.261     1422.728      627.854      232.887        0.303        0.114       61.420       15.352        0.062      344.807       21.889      858.684
09/04/2014  21:02:00      -69.784      -36.628        1.230       28.951       22.900       18.007      838.179      524.421      324.240        0.395        0.084       78.813       12.105        0.024      344.659       21.635      858.705
09/04/2014  21:03:00      -67.133      -41.243       -4.633       36.380       22.104       16.300     1323.470      488.593      265.698        0.415        0.104       78.790       17.189        0.048      344.717       21.733      858.710
09/04/2014  21:04:00      -19.207      -27.279        3.841       23.796       25.695       16.748      566.267      660.251      280.491        0.132        0.075       33.362       13.405        0.161      344.718       21.737      858.719
09/04/2014  21:05:00      -36.173       -8.328        2.314       27.359       22.709       13.737      748.533      515.703      188.713        0.142        0.073       37.119       13.901        0.140      344.625       21.577      858.734
09/04/2014  21:06:00     -103.981      -46.664      -13.093       17.334       22.618       10.442      300.483      511.570      109.042        0.704        0.046      113.972        7.317        0.004      344.637       21.597      858.745
09/04/2014  21:07:00      -75.096      -35.549       -4.390       41.766       20.425       13.975     1744.395      417.181      195.289        0.464        0.118       83.085       16.085        0.037      344.620       21.568      858.754
09/04/2014  21:08:00      -60.320      -31.160       -0.478       35.702       19.142       14.893     1274.624      366.419      221.808        0.324        0.093       67.893       14.972        0.049      344.464       21.303      858.788
09/04/2014  21:09:00      -51.897      -48.186        4.681       42.130       28.164       25.415     1774.904      793.198      645.919        0.413        0.161       70.818       26.712        0.142      344.472       21.316      858.800
09/04/2014  21:10:00      -54.104      -50.960        3.465       53.505       30.960       23.054     2862.761      958.544      531.491        0.494        0.218       74.324       26.939        0.131      344.435       21.251      858.806
09/04/2014  21:11:00      -77.231      -51.309        3.879       38.777       33.943       21.876     1503.688     1152.122      478.538        0.587        0.157       92.722       18.799        0.041      344.361       21.125      858.825
09/04/2014  21:12:00      -52.796      -38.749        4.862       37.794       28.882       16.899     1428.387      834.146      285.566        0.343        0.127       65.490       13.526        0.043      344.366       21.134      858.845
09/04/2014  21:13:00      -91.046      -62.361      -11.211       28.347       20.438       17.363      803.579      417.721      301.483        0.691        0.076      110.355       16.008        0.021      344.446       21.271      858.866
09/04/2014  21:14:00      -69.365      -59.910        1.064       31.735       25.783       22.689     1007.088      664.766      514.771        0.529        0.109       91.655       21.307        0.054      344.413       21.212      858.879
09/04/2014  21:15:00      -45.028      -31.435        3.333       43.734       23.175       21.461     1912.631      537.089      460.594        0.297        0.146       54.915       19.085        0.121      344.429       21.241      858.898
09/04/2014  21:16:00      -56.280      -56.665        5.900       40.933       35.080       23.002     1675.533     1230.577      529.075        0.492        0.172       79.865       17.577        0.048      344.404       21.198      858.890
09/04/2014  21:17:00      -85.259      -75.393       -0.174       38.420       23.618       16.049     1476.064      557.786      257.579        0.762        0.115      113.813        6.666        0.003      344.510       21.381      858.902
09/04/2014  21:18:00      -56.974      -61.455       11.154       53.620       37.503       27.387     2875.117     1406.451      750.040        0.609        0.252       83.802       29.538        0.124      344.466       21.306      858.917
09/04/2014  21:19:00      -59.195      -52.547        9.205       50.136       28.990       25.952     2513.652      840.446      673.495        0.519        0.201       79.153       27.554        0.121      344.390       21.176      858.923
09/04/2014  21:20:00      -66.500      -52.510       -3.102       33.281       22.116       15.682     1107.612      489.128      245.930        0.452        0.092       84.732       12.039        0.020      344.374       21.147      858.944
09/04/2014  21:21:00      -68.384      -77.783       -0.971       41.869       31.128       22.432     1753.039      968.983      503.202        0.698        0.161      103.569       24.158        0.054      344.369       21.139      858.947
09/04/2014  21:22:00      -72.292      -74.271        2.033       52.442       28.718       27.187     2750.145      824.715      739.146        0.753        0.216      103.645       31.815        0.094      344.267       20.964      858.966
09/04/2014  21:23:00      -76.268      -83.335       -5.598       31.972       32.519       23.262     1022.196     1057.461      541.120        0.771        0.131      112.967       25.658        0.052      344.253       20.939      858.981
09/04/2014  21:24:00      -97.595      -68.034       -7.490       24.661       18.239       16.814      608.152      332.677      282.701        0.772        0.061      118.968       12.756        0.011      344.358       21.118      859.009
09/04/2014  21:25:00      -53.946      -49.281       -0.441       25.133       18.795       12.586      631.645      353.267      158.410        0.324        0.057       73.067       13.080        0.032      344.181       20.817      859.036
09/04/2014  21:26:00      -51.209      -43.197       -3.528       21.349       17.684       12.919      455.800      312.733      166.912        0.272        0.047       66.995        6.076        0.008      344.373       21.147      859.037
09/04/2014  21:27:00      -52.032      -51.100        5.975       39.515       28.038       19.153     1561.421      786.156      366.850        0.403        0.136       72.928       20.170        0.076      344.199       20.847      859.050
09/04/2014  21:28:00      -86.847      -60.943       -5.242       16.368       16.184       11.831      267.916      261.909      139.973        0.598        0.033      106.097        8.725        0.007      344.301       21.023      859.060
09/04/2014  21:29:00      -77.346      -52.146       -3.061       19.489       21.448       15.465      379.809      460.015      239.181        0.489        0.054       93.283        9.649        0.011      344.314       21.044      859.067
09/04/2014  21:30:00      -72.260      -47.473      -12.346       24.019       14.015       10.873      576.905      196.427      118.214        0.426        0.045       86.459        7.483        0.007      344.305       21.031      859.087
09/04/2014  21:31:00      -61.274      -37.287       -1.483       41.535       25.229       17.231     1725.176      636.506      296.904        0.390        0.133       71.728       19.023        0.070      344.106       20.689      859.087
09/04/2014  21:32:00      -69.736      -46.644       -3.401       29.348       18.275       14.397      861.295      333.958      207.263        0.423        0.070       83.898       16.210        0.037      344.183       20.821      859.105
09/04/2014  21:33:00      -48.793      -16.229        2.252       23.418       15.391       12.978      548.404      236.868      168.437        0.180        0.048       51.422       14.381        0.078      344.172       20.803      859.108
09/04/2014  21:34:00      -52.153      -24.677       -8.192       17.015       12.217       10.655      289.511      149.243      113.538        0.197        0.028       57.696        9.319        0.026      344.210       20.868      859.116
09/04/2014  21:35:00       -2.733      -18.231       -2.521       12.081       10.579       13.538      145.956      111.911      183.278        0.039        0.022       18.435        4.279        0.054      344.336       21.082      859.124
09/04/2014  21:36:00      -51.858      -16.474      -10.207       21.243       12.408        7.192      451.262      153.966       51.729        0.186        0.033       54.412        5.282        0.009      344.334       21.080      859.125
09/04/2014  21:37:00      -80.304      -37.148      -11.403       15.267       13.076       11.960      233.070      170.971      143.051        0.425        0.027       88.480        9.380        0.011      344.185       20.824      859.137
09/04/2014  21:38:00      -30.756      -22.098        1.198       27.198       18.446       15.818      739.732      340.239      250.200        0.138        0.067       37.872       12.684        0.112      344.014       20.533      859.125
09/04/2014  21:39:00      -57.360      -18.105        1.123       22.300       25.849       16.926      497.306      668.161      286.477        0.254        0.073       60.149       13.711        0.052      344.068       20.625      859.132
09/04/2014  21:40:00      -64.943        8.320      -10.958       11.633       14.852        9.775      135.316      220.590       95.549        0.243        0.023       65.474        4.656        0.005      344.075       20.636      859.142
09/04/2014  21:41:00      -76.093       -6.316      -13.460       14.075       11.955       11.013      198.101      142.926      121.276        0.324        0.023       76.355        6.890        0.008      344.060       20.610      859.132
09/04/2014  21:42:00      -98.474      -30.620      -14.458       19.886       15.361       11.886      395.473      235.948      141.280        0.581        0.039      103.125        9.850        0.009      344.018       20.540      859.135
09/04/2014  21:43:00      -26.131      -20.252        4.986       55.292       28.043       15.501     3057.192      786.419      240.271        0.260        0.204       33.060       23.252        0.495      343.865       20.278      859.134
09/04/2014  21:44:00      -22.241       -9.522       -1.246       19.308       22.602        9.339      372.817      510.842       87.221        0.078        0.049       24.193        5.189        0.046      343.909       20.355      859.137
09/04/2014  21:45:00      -36.020       -6.077       -3.678       26.739       14.232       12.735      714.988      202.548      162.171        0.121        0.054       36.529        5.174        0.020      344.182       20.821      859.142
09/04/2014  21:46:00      -38.185      -11.343       -0.858       17.370       15.433       12.744      301.706      238.193      162.403        0.114        0.035       39.834       11.710        0.086      344.306       21.031      859.141
09/04/2014  21:47:00      -47.459      -21.387      -12.020       10.649        9.084       10.683      113.401       82.512      114.117        0.158        0.016       52.056        6.044        0.013      343.998       20.505      859.151
09/04/2014  21:48:00      -56.482      -32.961       -2.100       23.147       15.162       11.956      535.782      229.880      142.944        0.259        0.045       65.396        6.195        0.009      343.990       20.491      859.170
09/04/2014  21:49:00       -9.038       -3.293        3.516       10.611       20.222        8.477      112.598      408.911       71.854        0.035        0.030        9.619        6.613        0.473      343.790       20.150      859.180
09/04/2014  21:50:00      -52.946      -16.643      -10.514       11.801       10.489        9.429      139.271      110.017       88.900        0.176        0.017       55.500        5.753        0.011      343.938       20.402      859.194
09/04/2014  21:51:00      -28.902      -23.705        2.886       18.008        9.411        9.850      324.300       88.564       97.032        0.096        0.025       37.379        8.608        0.053      343.872       20.291      859.206
09/04/2014  21:52:00      -40.487      -21.534      -12.768       15.208        9.659        5.649      231.275       93.293       31.916        0.131        0.018       45.858        4.561        0.010      343.983       20.478      859.209
09/04/2014  21:53:00       16.449        5.813        0.254       17.258       16.648       11.065      297.829      277.164      122.444        0.050        0.035       17.446       10.466        0.360      344.504       21.370      859.214
09/04/2014  21:54:00       -4.521       27.716       -4.637       19.707       11.439       10.404      388.371      130.857      108.249        0.072        0.031       28.083        7.068        0.063      344.695       21.699      859.207
09/04/2014  21:55:00      -39.846       29.925      -11.450       30.770       19.668       10.229      946.798      386.826      104.634        0.203        0.072       49.831       12.294        0.061      344.486       21.338      859.196
09/04/2014  21:56:00      -68.172       19.494      -10.584       13.973        9.952        9.412      195.258       99.050       88.595        0.276        0.019       70.905        6.671        0.009      343.774       20.121      859.193
09/04/2014  21:57:00      -50.842       24.311      -10.781       17.929       10.574        9.953      321.453      111.817       99.065        0.191        0.027       56.355        4.729        0.007      343.784       20.139      859.172
09/04/2014  21:58:00      -32.240       65.183      -12.037       17.424       21.087        8.550      303.594      444.648       73.097        0.313        0.041       72.721        6.522        0.008      344.355       21.114      859.152
09/04/2014  21:59:00      -60.589       67.128      -17.603       14.028       20.685       10.081      196.776      427.871      101.627        0.461        0.036       90.427        5.793        0.004      344.163       20.787      859.142
09/04/2014  22:00:00      -52.885       78.442      -13.373       30.828       40.776       17.145      950.371     1662.679      293.936        0.602        0.145       94.604       10.179        0.012      344.292       21.008      859.138
09/04/2014  22:01:00      -21.188      113.439      -17.836       27.220       22.011       12.441      740.905      484.484      154.789        0.751        0.069      115.401       11.115        0.009      344.466       21.306      859.131
09/04/2014  22:02:00      -35.593      109.677      -15.623       27.121       30.075       17.196      735.553      904.531      295.708        0.774        0.097      115.308       11.892        0.011      344.320       21.056      859.154
09/04/2014  22:03:00      -42.082      115.937      -15.253       31.628       32.184       16.174     1000.315     1035.781      261.593        0.887        0.115      123.338       12.555        0.010      344.421       21.227      859.168
09/04/2014  22:04:00      -59.325       77.628      -17.052       28.882       52.445       15.656      834.187     2750.467      245.105        0.683        0.191       97.702       17.979        0.034      344.296       21.014      859.176
09/04/2014  22:05:00      -90.358       48.748      -10.530       32.262       49.113       21.989     1040.852     2412.051      483.512        0.729        0.197      102.670       17.980        0.031      344.068       20.626      859.186
09/04/2014  22:06:00     -101.139       92.163      -20.526       30.944       52.176       27.300      957.562     2722.328      745.306        1.178        0.221      136.832       28.248        0.043      344.257       20.948      859.199
09/04/2014  22:07:00     -112.408      148.668      -24.827       34.142       37.354       23.758     1165.675     1395.308      564.453        1.924        0.156      186.380       20.787        0.012      344.362       21.126      859.213
09/04/2014  22:08:00      -82.077       41.886      -13.030       35.002       48.402       23.315     1225.167     2342.736      543.599        0.639        0.206       92.147       25.652        0.077      344.181       20.818      859.233
09/04/2014  22:09:00      -85.287       84.770      -23.864       35.088       41.264       22.967     1231.154     1702.698      527.499        0.924        0.173      120.249       27.025        0.051      344.231       20.903      859.250
09/04/2014  22:10:00      -45.647       56.222      -10.622       32.623       31.244       13.494     1064.241      976.211      182.085        0.379        0.111       72.419       18.889        0.068      344.236       20.911      859.269
09/04/2014  22:11:00       -1.979       24.532        0.305       20.084       12.610       10.642      403.373      159.018      113.245        0.064        0.034       24.612        7.226        0.086      344.075       20.638      859.295
09/04/2014  22:12:00      -33.402      -14.103       -3.954       17.174       30.068       14.050      294.931      904.087      197.413        0.136        0.070       36.257       17.196        0.225      344.183       20.819      859.314
09/04/2014  22:13:00      -10.021       -6.599       11.187       30.454       16.671       17.007      927.444      277.929      289.227        0.088        0.075       11.999       19.638        2.679      343.846       20.245      859.322
09/04/2014  22:14:00       -6.034      -47.438      -10.937       19.016       18.242        8.272      361.604      332.780       68.421        0.158        0.038       47.820        6.747        0.020      343.751       20.083      859.329
09/04/2014  22:15:00        5.988      -25.843       12.715       28.384       17.422       20.846      805.648      303.512      434.551        0.120        0.077       26.528       17.321        0.426      343.724       20.036      859.346
09/04/2014  22:16:00      -30.694      -58.149        2.406       32.350       21.093       21.941     1046.550      444.932      481.405        0.315        0.099       65.753       16.809        0.065      343.776       20.125      859.346
09/04/2014  22:17:00      -31.501      -68.347        4.237       23.998       21.740       17.426      575.892      472.623      303.654        0.352        0.068       75.257       11.577        0.024      343.900       20.338      859.331
09/04/2014  22:18:00      -47.678      -30.362        0.959       55.416       36.443       17.161     3070.913     1328.062      294.501        0.394        0.235       56.525       13.737        0.059      343.763       20.104      859.317
09/04/2014  22:19:00      -90.793      -96.787      -12.425       55.156       47.823       29.955     3042.221     2287.052      897.280        1.199        0.311      132.707       22.826        0.030      343.603       19.830      859.306
09/04/2014  22:20:00      -76.178      -75.700       -8.947       47.906       28.089       22.031     2295.018      788.986      485.379        0.759        0.178      107.394        9.841        0.008      343.544       19.731      859.293
09/04/2014  22:21:00      -35.218      -18.056       -3.121       28.943       13.613       13.590      837.724      185.314      184.696        0.139        0.060       39.576       13.143        0.110      343.528       19.703      859.301
09/04/2014  22:22:00      -35.295      -20.319       -1.315       24.501       17.613       13.604      600.318      310.217      185.080        0.138        0.055       40.726        5.029        0.015      343.625       19.868      859.321
09/04/2014  22:23:00      -27.265      -36.796       -4.549       24.087       22.755       16.487      580.202      517.791      271.825        0.174        0.068       45.796        7.823        0.029      343.640       19.892      859.329
09/04/2014  22:24:00      -15.517      -41.980      -14.022       21.027       17.941       13.525      442.123      321.891      182.919        0.157        0.047       44.756        6.910        0.024      343.720       20.032      859.344
09/04/2014  22:25:00      -47.725      -36.020       -3.820       13.840       13.592        8.453      191.551      184.755       71.459        0.202        0.022       59.792        5.474        0.008      343.894       20.326      859.363
09/04/2014  22:26:00      -37.495      -24.283        3.510       32.678       18.732       14.692     1067.853      350.879      215.841        0.182        0.082       44.672       13.808        0.096      343.732       20.050      859.370
09/04/2014  22:27:00      -16.009      -18.062        6.604       28.348       19.321       14.624      803.635      373.299      213.867        0.101        0.070       24.136        5.687        0.056      343.509       19.671      859.369
09/04/2014  22:28:00      -30.281      -27.967        0.680       35.521       18.940       13.690     1261.716      358.716      187.409        0.175        0.090       41.220       13.312        0.104      343.395       19.477      859.382
09/04/2014  22:29:00      -98.127      -31.553       -6.419       22.697       17.011       12.063      515.136      289.383      145.525        0.581        0.048      103.075        8.080        0.006      343.435       19.544      859.388
09/04/2014  22:30:00     -101.027      -44.413       -0.009       36.481       24.763       15.544     1330.889      613.218      241.625        0.718        0.109      110.359        9.612        0.008      343.314       19.339      859.388
09/04/2014  22:31:00      -71.215      -51.970        4.188       42.037       28.851       21.550     1767.116      832.354      464.399        0.543        0.153       88.162       19.655        0.050      343.273       19.268      859.394
09/04/2014  22:32:00      -62.917      -71.447        6.077       33.139       22.088       20.555     1098.166      487.868      422.492        0.555        0.100       95.201       14.568        0.023      343.346       19.394      859.407
09/04/2014  22:33:00      -57.874      -66.439        3.981       30.229       32.889       19.788      913.776     1081.683      391.550        0.508        0.119       88.111       22.028        0.063      343.352       19.404      859.407
09/04/2014  22:34:00      -72.521      -56.652       -2.629       27.010       24.302       13.561      729.525      590.581      183.890        0.499        0.075       92.026       13.125        0.020      343.329       19.364      859.412
09/04/2014  22:35:00      -87.429      -62.452        0.556       36.087       25.898       21.160     1302.268      670.691      447.761        0.698        0.121      107.443       19.884        0.034      343.329       19.363      859.409
09/04/2014  22:36:00      -89.415      -55.290        1.437       42.146       29.825       23.482     1776.259      889.557      551.381        0.714        0.161      105.129       18.955        0.033      343.246       19.222      859.415
09/04/2014  22:37:00      -54.380      -41.929        2.889       34.661       26.940       22.794     1201.380      725.774      519.579        0.358        0.122       68.668       21.815        0.101      343.264       19.253      859.416
09/04/2014  22:38:00      -57.857      -35.892        4.524       31.715       14.006       17.045     1005.843      196.180      290.518        0.307        0.075       68.085       17.231        0.064      343.201       19.145      859.420
09/04/2014  22:39:00      -44.404      -35.494        3.108       27.695       15.885       14.762      767.002      252.318      217.904        0.224        0.062       56.847       16.791        0.087      343.256       19.239      859.428
09/04/2014  22:40:00      -40.005      -36.383        1.303       24.543       19.843       16.819      602.382      393.745      282.875        0.210        0.064       54.075       13.306        0.061      343.329       19.364      859.458
09/04/2014  22:41:00      -53.755      -26.823        2.966       32.181       20.970       16.541     1035.620      439.742      273.612        0.268        0.087       60.076       20.352        0.115      343.328       19.363      859.462
09/04/2014  22:42:00      -88.272      -15.670       -1.455       20.339       19.267       10.759      413.661      371.232      115.763        0.447        0.045       89.652        8.263        0.008      343.209       19.161      859.473
09/04/2014  22:43:00      -88.402      -18.898       -8.179       10.749       12.733        9.989      115.533      162.134       99.775        0.431        0.019       90.400        7.211        0.006      343.245       19.220      859.496
09/04/2014  22:44:00      -81.572        0.762       -9.493       17.176       14.597       10.408      295.028      213.065      108.322        0.368        0.031       81.575        8.360        0.011      343.240       19.212      859.502
09/04/2014  22:45:00      -91.753       -5.327      -13.014       11.304       12.578        9.759      127.775      158.217       95.244        0.450        0.019       91.908        4.299        0.002      343.187       19.121      859.498
09/04/2014  22:46:00     -101.624      -18.632      -14.415       21.157       18.514       12.576      447.604      342.757      158.149        0.592        0.047      103.318       12.953        0.016      343.217       19.173      859.489
09/04/2014  22:47:00     -108.109      -27.366       -2.646       37.196       20.076       17.541     1383.533      403.027      307.689        0.727        0.105      111.519       20.853        0.035      343.106       18.983      859.479
09/04/2014  22:48:00      -98.235      -24.173      -13.686       15.258       16.402       13.994      232.816      269.013      195.827        0.556        0.035      101.165        9.469        0.009      343.106       18.983      859.470
09/04/2014  22:49:00      -75.904      -51.401      -12.345       23.116       19.463       12.897      534.365      378.799      166.325        0.482        0.054       91.671       10.619        0.013      343.102       18.977      859.471
09/04/2014  22:50:00      -45.273      -48.966        1.954       34.827       36.296       22.236     1212.899     1317.410      494.460        0.374        0.151       66.688       21.258        0.102      342.922       18.670      859.476
09/04/2014  22:51:00      -23.976      -17.536        7.808       28.667       17.584       22.678      821.783      309.192      514.276        0.129        0.082       29.705       20.415        0.472      342.894       18.623      859.475
09/04/2014  22:52:00      -25.937      -27.910        3.890       38.760       19.719       19.933     1502.312      388.821      397.324        0.188        0.114       38.101       24.341        0.408      342.905       18.641      859.481
09/04/2014  22:53:00      -27.374      -33.794       -0.569       24.628       20.156       15.634      606.531      406.261      244.429        0.157        0.063       43.490       11.180        0.066      342.861       18.568      859.493
09/04/2014  22:54:00      -38.833      -14.644       -5.847       30.802       12.996       20.057      948.763      168.903      402.294        0.164        0.076       41.502       19.479        0.220      342.826       18.507      859.501
09/04/2014  22:55:00      -30.564      -13.070        0.669       23.134       14.241       13.512      535.198      202.805      182.575        0.101        0.046       33.241       10.479        0.099      342.749       18.376      859.510
09/04/2014  22:56:00      -55.060      -34.979       -8.781       29.371       19.233       15.479      862.676      369.915      239.597        0.290        0.074       65.232        7.263        0.012      342.836       18.524      859.527
09/04/2014  22:57:00       -8.000      -25.472        5.793       20.714       13.450       14.251      429.076      180.891      203.101        0.078        0.041       26.699       11.064        0.172      342.788       18.442      859.533
09/04/2014  22:58:00      -56.178      -36.632       -4.427       24.203       16.531       15.445      585.764      273.282      238.553        0.281        0.055       67.066       11.132        0.028      342.861       18.566      859.534
09/04/2014  22:59:00      -43.223      -37.576       -5.954       29.628       18.667       16.274      877.833      348.473      264.833        0.240        0.075       57.273        8.874        0.024      342.871       18.585      859.545
09/04/2014  23:00:00      -38.469      -26.385       -9.626       24.570       14.735       12.778      603.665      217.126      163.285        0.163        0.049       46.648       11.558        0.061      342.815       18.488      859.534
09/04/2014  23:01:00      -54.770      -25.092      -10.814       14.965       14.325       13.483      223.948      205.198      181.804        0.218        0.031       60.244        6.215        0.011      342.789       18.443      859.521
09/04/2014  23:02:00      -74.575      -10.015       -6.651       18.534       17.515       17.842      343.495      306.770      318.344        0.334        0.048       75.244       14.651        0.038      342.775       18.419      859.512
09/04/2014  23:03:00      -97.724      -13.441      -12.682       29.855       21.521       18.921      891.310      463.158      358.020        0.580        0.086       98.644       17.691        0.032      342.746       18.372      859.490
09/04/2014  23:04:00     -112.486       -5.155      -14.327       30.089       28.837       17.995      905.346      831.549      323.811        0.747        0.103      112.604       13.152        0.014      342.877       18.595      859.473
09/04/2014  23:05:00     -115.914       19.941      -14.703       44.635       33.217       22.265     1992.289     1103.355      495.713        0.882        0.180      117.617       20.687        0.031      343.204       19.149      859.475
09/04/2014  23:06:00     -111.265       28.557       -6.822       42.669       26.336       24.340     1820.663      693.579      592.452        0.817        0.155      114.872       19.347        0.028      343.363       19.422      859.471
09/04/2014  23:07:00     -142.306       38.623       -9.587       46.328       32.715       23.134     2146.319     1070.250      535.163        1.279        0.188      147.454       18.216        0.015      343.356       19.411      859.464
09/04/2014  23:08:00     -151.777       42.396      -17.863       51.262       35.922       26.965     2627.743     1290.415      727.103        1.490        0.232      157.587       23.712        0.023      343.197       19.138      859.475
09/04/2014  23:09:00     -141.820       46.381      -16.193       48.486       30.078       24.432     2350.849      904.686      596.917        1.319        0.193      149.212       18.122        0.015      343.060       18.906      859.474
09/04/2014  23:10:00     -160.473       55.569      -10.057       46.758       25.732       20.037     2186.328      662.136      401.489        1.609        0.162      169.822       13.980        0.007      343.110       18.991      859.480
09/04/2014  23:11:00     -143.843       25.608      -16.406       30.656       33.062       17.518      939.778     1093.086      306.887        1.198        0.117      146.105        9.355        0.004      343.032       18.857      859.488
09/04/2014  23:12:00     -139.941       17.897      -15.627       44.479       31.055       22.202     1978.358      964.414      492.909        1.179        0.172      141.080       14.128        0.010      342.957       18.731      859.494
09/04/2014  23:13:00     -117.795      -13.174      -17.739       40.533       40.009       22.067     1642.944     1600.720      486.933        0.905        0.187      118.530       16.809        0.020      342.911       18.654      859.491
09/04/2014  23:14:00     -112.556       11.392      -13.613       39.962       42.327       26.740     1596.945     1791.581      715.046        0.854        0.205      113.131       21.782        0.037      342.740       18.361      859.497
09/04/2014  23:15:00     -130.469       -4.597       -7.672       46.795       37.145       28.359     2189.765     1379.781      804.208        1.074        0.219      130.550       23.503        0.032      342.667       18.237      859.506
09/04/2014  23:16:00     -131.842      -11.178       -2.455       47.026       35.135       25.101     2211.460     1234.475      630.044        1.079        0.204      132.315       28.675        0.047      342.612       18.143      859.514
09/04/2014  23:17:00     -156.719        6.326      -12.893       24.896       22.530       19.308      619.822      507.600      372.802        1.313        0.075      156.846       14.219        0.008      342.666       18.236      859.530
09/04/2014  23:18:00     -149.826       -3.238      -14.063       20.530       23.233       14.104      421.497      539.783      198.920        1.191        0.058      149.861        7.796        0.003      342.682       18.262      859.534
09/04/2014  23:19:00     -133.785        9.069      -14.731       28.717       26.583       17.859      824.672      706.636      318.942        1.002        0.093      134.092       13.132        0.010      342.665       18.233      859.534
09/04/2014  23:20:00     -126.632      -13.440       -8.363       38.626       26.760       21.098     1492.001      716.092      445.130        0.947        0.133      127.343       22.421        0.031      342.596       18.117      859.541
09/04/2014  23:21:00     -153.914      -15.707      -16.885       16.732       19.888       12.935      279.958      395.523      167.302        1.253        0.042      154.713        5.693        0.001      342.696       18.285      859.545
09/04/2014  23:22:00     -129.758      -29.799       -9.311       19.897       23.022       15.720      395.877      529.998      247.131        0.949        0.059      133.135       12.208        0.008      342.747       18.372      859.541
09/04/2014  23:23:00      -97.937      -31.399       -3.660       21.984       25.615       19.880      483.290      656.135      395.224        0.606        0.077      102.847       14.477        0.020      342.722       18.330      859.557
09/04/2014  23:24:00     -102.782      -29.013       -1.537       31.983       21.350       15.501     1022.940      455.809      240.277        0.656        0.086      106.798       15.598        0.021      342.755       18.386      859.565
09/04/2014  23:25:00     -125.808      -59.099       -4.120       19.419       18.618       13.035      377.098      346.617      169.904        1.012        0.045      138.998        8.822        0.004      342.735       18.352      859.563
09/04/2014  23:26:00      -94.020      -69.582        2.550       42.055       38.173       21.439     1768.664     1457.144      459.638        0.869        0.184      116.967       18.165        0.024      342.654       18.215      859.564
09/04/2014  23:27:00     -136.926      -65.222        0.585       39.649       29.130       22.667     1572.043      848.534      513.793        1.297        0.147      151.667       22.659        0.022      342.612       18.144      859.570
09/04/2014  23:28:00     -158.469      -57.744       -4.478       39.749       30.057       16.036     1579.992      903.425      257.151        1.560        0.137      168.662       14.439        0.007      342.610       18.139      859.559
09/04/2014  23:29:00     -154.319      -58.074       -8.697       33.954       25.865       19.058     1152.853      669.006      363.203        1.472        0.109      164.885       14.348        0.008      342.604       18.130      859.559
09/04/2014  23:30:00     -138.238      -48.217       -3.300       26.590       20.792       14.522      707.046      432.296      210.884        1.140        0.068      146.405       11.822        0.007      342.512       17.973      859.558
09/04/2014  23:31:00     -126.837      -67.173      -10.479       24.028       16.588       12.293      577.335      275.175      151.114        1.086        0.050      143.526        6.916        0.002      342.560       18.055      859.558
09/04/2014  23:32:00     -111.035      -69.026        3.484       30.510       17.435       17.061      930.839      303.981      291.077        0.932        0.076      130.741       15.243        0.014      342.572       18.074      859.578
09/04/2014  23:33:00      -66.515      -50.574       -1.658       42.882       25.593       19.874     1838.888      655.023      394.982        0.494        0.144       83.558       22.578        0.073      342.512       17.973      859.601
09/04/2014  23:34:00      -61.607      -39.139        7.210       58.527       30.085       22.253     3425.366      905.130      495.215        0.510        0.241       72.989       27.732        0.144      342.404       17.789      859.614
09/04/2014  23:35:00      -86.410      -76.726       -1.596       57.935       38.126       22.595     3356.469     1453.554      510.549        0.934        0.266      115.557       21.840        0.036      342.420       17.817      859.637
09/04/2014  23:36:00      -62.918      -58.803        5.728       56.163       36.677       30.587     3154.325     1345.218      935.545        0.644        0.272       86.119       16.373        0.036      342.409       17.798      859.646
09/04/2014  23:37:00     -121.049     -105.098       -9.634       45.872       49.980       32.344     2104.195     2498.022     1046.141        1.572        0.282      160.307       24.716        0.024      342.341       17.683      859.642
09/04/2014  23:38:00     -106.786      -86.051       -6.315       45.670       39.820       20.793     2085.756     1585.606      432.347        1.148        0.205      137.142       16.742        0.015      342.178       17.404      859.648
09/04/2014  23:39:00     -106.297      -73.347       -0.888       45.768       31.649       21.978     2094.676     1001.686      483.049        1.013        0.179      129.147       19.964        0.024      342.156       17.369      859.650
09/04/2014  23:40:00      -64.433      -47.704        4.759       39.289       32.552       20.843     1543.609     1059.612      434.421        0.474        0.152       80.170       19.083        0.057      342.131       17.326      859.649
09/04/2014  23:41:00     -102.579      -75.461       -0.693       51.156       29.954       22.203     2616.968      897.263      492.979        1.011        0.200      127.345       22.716        0.032      342.201       17.446      859.652
09/04/2014  23:42:00      -81.859      -68.171       12.669       54.400       34.267       25.564     2959.395     1174.216      653.493        0.815        0.239      106.528       27.415        0.066      342.155       17.367      859.664
09/04/2014  23:43:00      -83.277      -69.395       10.864       48.530       41.532       24.674     2355.164     1724.926      608.817        0.828        0.234      108.401       25.930        0.057      342.156       17.369      859.665
09/04/2014  23:44:00     -112.681      -55.449        5.116       46.303       29.863       22.625     2143.940      891.814      511.876        0.967        0.177      125.585       20.188        0.026      342.073       17.229      859.666
09/04/2014  23:45:00      -73.744      -53.790       -2.445       52.375       43.005       24.498     2743.093     1849.464      600.163        0.676        0.260       91.277       26.132        0.082      342.132       17.328      859.674
09/04/2014  23:46:00      -93.365      -63.561       -4.511       34.182       23.749       18.388     1168.435      564.013      338.130        0.742        0.104      112.947       12.773        0.013      342.184       17.416      859.683
09/04/2014  23:47:00     -107.567      -51.816       -6.051       24.316       23.096       13.220      591.283      533.447      174.779        0.780        0.065      119.397        8.827        0.005      342.178       17.405      859.683
09/04/2014  23:48:00      -77.071      -56.476       -1.824       34.324       22.037       17.197     1178.159      485.617      295.747        0.555        0.098       95.549       12.622        0.017      342.223       17.481      859.688
09/04/2014  23:49:00      -63.347      -44.344        0.371       41.593       22.026       19.555     1730.017      485.124      382.391        0.429        0.130       77.325       20.765        0.072      342.162       17.379      859.702
09/04/2014  23:50:00      -61.042      -35.820        5.838       34.100       24.912       19.154     1162.791      620.630      366.857        0.360        0.108       70.775       17.866        0.064      342.145       17.350      859.717
09/04/2014  23:51:00      -75.918      -45.895        0.779       19.895       16.527       15.996      395.809      273.149      255.861        0.440        0.046       88.712       11.765        0.018      342.206       17.453      859.726
09/04/2014  23:52:00      -73.548      -42.730        6.510       22.341       19.021       14.774      499.101      361.814      218.261        0.418        0.054       85.060       13.275        0.024      342.212       17.464      859.741
09/04/2014  23:53:00      -91.742      -37.975        1.132       20.546       13.800       11.213      422.152      190.443      125.738        0.530        0.037       99.291       10.013        0.010      342.278       17.575      859.757
09/04/2014  23:54:00     -101.015      -31.217       -0.352       14.313       15.462       10.775      204.856      239.061      116.109        0.587        0.028      105.729        6.418        0.004      342.229       17.493      859.763
09/04/2014  23:55:00      -81.393      -18.145        0.778       24.155       20.949       13.656      583.470      438.878      186.473        0.408        0.060       83.391       13.625        0.027      342.102       17.275      859.780
09/04/2014  23:56:00      -67.299      -11.271       -1.469       23.402       17.638       10.567      547.633      311.115      111.663        0.281        0.049       68.237       10.962        0.026      342.109       17.289      859.792
09/04/2014  23:57:00      -77.750      -31.707        0.966       27.812       21.120       17.222      773.491      446.037      296.588        0.428        0.076       83.967       17.560        0.044      342.106       17.284      859.791
09/04/2014  23:58:00     -108.105      -29.791       -8.624       21.855       19.760       13.596      477.641      390.467      184.839        0.685        0.053      112.135       11.205        0.010      342.179       17.407      859.787
09/04/2014  23:59:00     -107.209      -36.327       -2.791       35.809       27.463       18.591     1282.299      754.224      345.613        0.760        0.119      113.196       17.553        0.024      342.129       17.323      859.788
